Date StartTime U_cm/s V_cm/s W_cm/s Ustd_cm/s Vstd_cm/s Wstd_cm/s Uvar_(cm/s)^2 Vvar_(cm/s)^2 Wvar_(cm/s)^2 KE_(m/s)^2 TurbulentKE_(m/s)^2 HorizWindSpeed_cm/s FrictionSpeec_cm/s DragCoef SpeedOfSound_m/s SonicTemperature_C Pressure_mb 
03/09/2014  00:00:00      -19.248        0.241       -6.448       21.821        9.968        5.815      476.174       99.359       33.820        0.051        0.030       19.250        9.117        0.224      338.883       11.836      866.761
03/09/2014  00:01:00       31.446       15.642        8.915       11.070       13.590       15.871      122.542      184.685      251.889        0.094        0.028       35.121       10.092        0.083      338.712       11.549      866.767
03/09/2014  00:02:00       22.842       44.841        4.950       12.626       13.321       16.433      159.420      177.459      270.049        0.158        0.030       50.324       10.864        0.047      338.700       11.528      866.756
03/09/2014  00:03:00       37.075       78.421        1.818       20.759       25.482       21.082      430.956      649.311      444.466        0.453        0.076       86.743       16.429        0.036      338.794       11.688      866.719
03/09/2014  00:04:00       67.292       75.952       -9.333       34.020       32.129       27.282     1157.330     1032.255      744.283        0.666        0.147      101.474       25.103        0.061      338.718       11.560      866.687
03/09/2014  00:05:00       13.997       51.104       18.697       83.552       37.400       31.299     6980.957     1398.767      979.605        0.626        0.468       52.986       43.499        0.674      338.837       11.759      866.700
03/09/2014  00:06:00      -83.610       55.935      -12.311       50.097       60.714       25.890     2509.667     3686.222      670.287        0.857        0.343      100.595       26.080        0.067      338.788       11.678      866.727
03/09/2014  00:07:00        0.477       99.892       -3.315       25.732       31.428       21.002      662.155      987.739      441.077        0.604        0.105       99.893       20.781        0.043      338.734       11.586      866.728
03/09/2014  00:08:00       13.718       31.809      -16.715       25.961       55.889       12.103      673.996     3123.577      146.487        0.271        0.197       34.641       14.213        0.168      338.863       11.803      866.758
03/09/2014  00:09:00        8.712      -11.201       20.146       20.879       54.169       20.570      435.951     2934.281      423.121        0.220        0.190       14.190       23.133        2.658      338.841       11.767      866.774
03/09/2014  00:10:00        6.347       35.093       14.412       21.389       19.309       19.267      457.475      372.820      371.206        0.134        0.060       35.662       18.142        0.259      338.935       11.925      866.743
03/09/2014  00:11:00      -40.563        5.367      -11.411       22.746       16.509       16.329      517.377      272.532      266.648        0.143        0.053       40.916       12.901        0.099      339.306       12.549      866.712
03/09/2014  00:12:00       -4.461       -0.636        5.617       32.781       35.014       21.366     1074.612     1225.996      456.510        0.140        0.138        4.506       20.222       20.139      339.093       12.190      866.703
03/09/2014  00:13:00      -40.351      -66.976       19.404       52.881       47.678       29.000     2796.443     2273.177      840.976        0.620        0.296       78.192       26.085        0.111      339.296       12.531      866.707
03/09/2014  00:14:00      -60.454      -34.718        0.866       53.141       38.000       19.629     2823.993     1444.028      385.307        0.476        0.233       69.714       20.745        0.089      339.149       12.284      866.709
03/09/2014  00:15:00      -71.503      -68.848       -2.712       48.513       60.641       28.218     2353.530     3677.273      796.246        0.834        0.341       99.261       24.298        0.060      339.183       12.342      866.709
03/09/2014  00:16:00      -88.616     -115.127       -3.921       53.482       57.959       33.362     2860.354     3359.199     1113.048        1.423        0.367      145.282       30.827        0.045      339.253       12.458      866.693
03/09/2014  00:17:00      -91.467     -125.795       -2.347       52.627       51.616       25.087     2769.594     2664.262      629.372        1.513        0.303      155.534       14.183        0.008      339.305       12.545      866.684
03/09/2014  00:18:00     -102.547     -114.253      -13.008       41.845       58.797       30.885     1751.035     3457.031      953.866        1.495        0.308      153.524       19.163        0.016      339.341       12.607      866.680
03/09/2014  00:19:00     -125.709     -142.977       -8.631       35.832       77.887       27.629     1283.937     6066.455      763.367        2.221        0.406      190.381       21.084        0.012      339.398       12.701      866.688
03/09/2014  00:20:00      -80.066     -130.691        3.030       59.909       51.466       30.904     3589.140     2648.739      955.080        1.535        0.360      153.267       20.732        0.018      339.395       12.698      866.694
03/09/2014  00:21:00     -170.712      -81.270       -9.672       56.783       61.841       29.197     3224.333     3824.294      852.488        2.187        0.395      189.070       13.798        0.005      339.441       12.773      866.702
03/09/2014  00:22:00      -92.201     -126.656       -0.500       55.412       46.855       25.722     3070.441     2195.350      661.625        1.523        0.296      156.662       23.909        0.023      339.489       12.855      866.726
03/09/2014  00:23:00      -78.603      -33.926       15.425       71.547       55.436       32.925     5119.018     3073.125     1084.045        0.842        0.464       85.612       43.069        0.253      339.437       12.769      866.738
03/09/2014  00:24:00     -127.731     -114.580       -6.465       54.682       53.512       35.677     2990.131     2863.507     1272.866        1.830        0.356      171.592       30.932        0.032      339.458       12.804      866.756
03/09/2014  00:25:00      -78.134     -133.661       10.831       59.458       83.093       34.710     3535.213     6904.446     1204.768        1.786        0.582      154.823       28.437        0.034      339.569       12.991      866.754
03/09/2014  00:26:00     -129.357     -213.584      -19.424       61.290       77.204       37.639     3756.447     5960.520     1416.709        3.693        0.557      249.702       27.752        0.012      339.713       13.231      866.765
03/09/2014  00:27:00      -62.988     -176.664       -5.626       69.063       81.356       42.879     4769.676     6618.804     1838.589        2.422        0.661      187.557       38.526        0.042      339.724       13.250      866.760
03/09/2014  00:28:00      -31.089     -164.239      -17.753       69.589       63.567       33.592     4842.683     4040.812     1128.396        1.913        0.501      167.156       30.815        0.034      339.797       13.375      866.760
03/09/2014  00:29:00       21.136     -138.297       -6.250       68.404       54.435       45.133     4679.131     2963.178     2036.971        1.464        0.484      139.903       33.906        0.059      339.820       13.415      866.729
03/09/2014  00:30:00     -123.355      -36.939       -0.152       65.735       33.592       21.730     4321.116     1128.433      472.205        1.125        0.296      128.767       26.422        0.042      339.614       13.068      866.738
03/09/2014  00:31:00     -115.191     -104.679      -10.880       70.000       57.017       28.196     4899.934     3250.940      795.024        1.664        0.447      155.649       11.214        0.005      339.653       13.134      866.737
03/09/2014  00:32:00     -102.118      -59.927       -2.320       39.854       35.299       16.861     1588.341     1246.003      284.292        0.857        0.156      118.404       15.842        0.018      339.628       13.091      866.732
03/09/2014  00:33:00     -196.906      -33.156      -13.689       57.117       53.974       29.764     3262.391     2913.222      885.908        2.356        0.353      199.678       33.457        0.028      339.558       12.971      866.750
03/09/2014  00:34:00      -85.675      -55.200       26.362      104.106       77.383       51.302    10837.992     5988.084     2631.850        1.527        0.973      101.918       62.058        0.371      339.591       13.028      866.751
03/09/2014  00:35:00     -219.321     -104.515      -15.723      127.118      154.952       50.026    16158.927    24010.179     2502.571        5.096        2.134      242.951       46.394        0.036      339.822       13.416      866.730
03/09/2014  00:36:00     -178.823     -116.941      -10.269      135.748       83.471       50.930    18427.654     6967.436     2593.868        3.687        1.399      213.665       58.818        0.076      339.839       13.445      866.719
03/09/2014  00:37:00     -137.743      -82.361        4.776      111.404       76.807       47.973    12410.802     5899.346     2301.420        2.319        1.031      160.489       59.827        0.139      339.858       13.478      866.733
03/09/2014  00:38:00     -233.513      -91.695      -11.525       64.676       50.714       32.414     4182.947     2571.926     1050.646        3.544        0.390      250.871       25.184        0.010      339.876       13.506      866.759
03/09/2014  00:39:00     -157.158      -70.765        4.881       94.310       76.501       50.643     8894.298     5852.382     2564.740        2.352        0.866      172.355       55.291        0.103      339.917       13.576      866.790
03/09/2014  00:40:00     -188.682     -189.685       -5.140      123.105      113.630       57.163    15154.746    12911.792     3267.642        5.146        1.567      267.547       69.987        0.068      339.989       13.697      866.812
03/09/2014  00:41:00     -218.688      -95.079       -2.135      137.861      102.042       56.418    19005.523    10412.626     3182.941        4.473        1.630      238.463       62.455        0.069      339.950       13.631      866.794
03/09/2014  00:42:00     -171.184     -106.651       17.366      122.423      114.388       61.097    14987.293    13084.651     3732.834        3.639        1.590      201.689       66.317        0.108      339.977       13.677      866.768
03/09/2014  00:43:00     -287.952     -119.965       -7.389      128.008       83.631       50.316    16386.091     6994.216     2531.746        6.163        1.296      311.942       52.900        0.029      340.035       13.774      866.763
03/09/2014  00:44:00     -286.884     -135.645       -3.537      104.294       93.797       57.326    10877.231     8797.869     3286.230        6.183        1.148      317.336       58.146        0.034      340.041       13.784      866.757
03/09/2014  00:45:00     -225.597      -70.610       -5.339       83.732       89.221       45.110     7011.042     7960.458     2034.887        3.645        0.850      236.389       39.946        0.029      340.028       13.762      866.764
03/09/2014  00:46:00     -179.362     -132.362       -9.198       81.958       82.484       52.701     6717.084     6803.570     2777.441        3.303        0.815      222.913       54.569        0.060      340.011       13.735      866.768
03/09/2014  00:47:00     -120.867     -116.321       -3.431       75.335       66.162       38.096     5675.387     4377.470     1451.275        1.983        0.575      167.748       43.227        0.066      339.974       13.674      866.748
03/09/2014  00:48:00      -72.217      -97.348       12.849       84.502       54.183       41.103     7140.629     2935.802     1689.489        1.331        0.588      121.210       48.243        0.158      339.972       13.672      866.745
03/09/2014  00:49:00     -176.830     -130.382      -10.606       81.030       58.564       38.232     6565.854     3429.755     1461.664        2.992        0.573      219.701       29.865        0.018      339.951       13.632      866.736
03/09/2014  00:50:00     -148.232     -124.294      -25.021       85.573       90.402       46.611     7322.781     8172.539     2172.582        2.785        0.883      193.447       37.505        0.038      340.024       13.757      866.730
03/09/2014  00:51:00      -75.166     -133.371       -6.669       57.195       72.058       34.566     3271.321     5192.378     1194.780        1.657        0.483      153.094       23.646        0.024      340.021       13.753      866.742
03/09/2014  00:52:00       10.233      -34.860       18.673       36.282       50.264       26.051     1316.389     2526.447      678.637        0.309        0.226       36.331       17.688        0.237      339.995       13.711      866.742
03/09/2014  00:53:00      -35.401      -10.423       -9.483       39.251       25.597       25.478     1540.678      655.199      649.133        0.215        0.142       36.903       22.262        0.364      339.938       13.615      866.743
03/09/2014  00:54:00      -38.581       20.229       12.052       35.940       32.999       24.269     1291.718     1088.922      588.973        0.251        0.148       43.562       23.681        0.296      339.992       13.705      866.744
03/09/2014  00:55:00      -98.422      -13.037        3.223       60.969       57.340       37.162     3717.267     3287.861     1380.999        0.913        0.419       99.282       32.435        0.107      340.023       13.758      866.746
03/09/2014  00:56:00     -113.759      -75.766       -4.013       77.196       49.023       37.094     5959.280     2403.273     1375.942        1.422        0.487      136.680       41.933        0.094      340.055       13.812      866.738
03/09/2014  00:57:00      -83.469      -19.614       -0.662       57.396       42.215       20.620     3294.349     1782.102      425.170        0.643        0.275       85.743       23.259        0.074      340.037       13.782      866.744
03/09/2014  00:58:00      -55.222      -10.007        0.930       43.323       34.777       22.185     1876.913     1209.421      492.190        0.336        0.179       56.121       25.074        0.200      340.063       13.827      866.765
03/09/2014  00:59:00     -133.709       12.212       -0.132       80.133       53.486       43.486     6421.328     2860.783     1891.075        1.460        0.559      134.265       34.276        0.065      340.029       13.767      866.773
03/09/2014  01:00:00     -142.490      -25.685        7.179       71.145       71.278       36.210     5061.639     5080.598     1311.144        1.623        0.573      144.786       29.110        0.040      340.140       13.954      866.783
03/09/2014  01:01:00      -96.871      -59.442       -5.619       62.586       49.874       28.113     3916.974     2487.378      790.346        1.007        0.360      113.654       31.167        0.075      340.125       13.929      866.812
03/09/2014  01:02:00      -61.358      -15.448        6.578       51.472       30.861       24.935     2649.377      952.414      621.730        0.413        0.211       63.273       27.685        0.191      340.088       13.866      866.823
03/09/2014  01:03:00      -63.547      -14.987       11.703       61.459       36.351       25.027     3777.229     1321.431      626.343        0.506        0.286       65.291       25.152        0.148      340.117       13.918      866.853
03/09/2014  01:04:00      -15.592      -35.027       29.122       57.728       71.369       48.064     3332.536     5093.564     2310.134        0.653        0.537       38.341       30.381        0.628      340.107       13.900      866.873
03/09/2014  01:05:00      -55.883      -14.710       14.591       71.690       64.200       43.009     5139.409     4121.634     1849.755        0.733        0.556       57.787       46.816        0.656      340.109       13.901      866.866
03/09/2014  01:06:00     -142.823      -13.053      -10.255       82.610       42.667       39.213     6824.364     1820.452     1537.640        1.543        0.509      143.418       45.829        0.102      340.161       13.991      866.861
03/09/2014  01:07:00      -59.314       34.603       20.468       75.846       81.653       49.525     5752.617     6667.250     2452.753        1.000        0.744       68.670       49.128        0.512      340.027       13.764      866.883
03/09/2014  01:08:00      -77.453       48.386       24.741       77.919       41.842       37.392     6071.433     1750.755     1398.125        0.908        0.461       91.325       42.472        0.216      340.130       13.938      866.864
03/09/2014  01:09:00       -6.848      -30.862        5.297       44.212       29.459       25.637     1954.737      867.811      657.236        0.225        0.174       31.613        6.625        0.044      339.875       13.510      866.878
03/09/2014  01:10:00       27.195       19.669       31.964       26.173       22.056       21.822      685.038      486.452      476.212        0.190        0.082       33.563       15.355        0.209      339.372       12.658      866.903
03/09/2014  01:11:00       96.716       60.610       24.841       64.893       45.626       31.050     4211.053     2081.693      964.078        1.045        0.363      114.139       25.135        0.048      339.404       12.713      866.904
03/09/2014  01:12:00       54.988       30.824       13.417       41.218       25.567       34.117     1698.902      653.684     1163.974        0.383        0.176       63.038       14.634        0.054      339.350       12.624      866.893
03/09/2014  01:13:00       45.623       53.695       -8.105       36.015       52.199       30.468     1297.113     2724.769      928.281        0.499        0.248       70.460       24.115        0.117      339.444       12.781      866.885
03/09/2014  01:14:00      101.857       32.259       22.007       52.273       70.367       40.782     2732.424     4951.527     1663.183        1.062        0.467      106.843       39.518        0.137      339.518       12.907      866.858
03/09/2014  01:15:00       76.580      -37.390        9.557       57.222       51.860       43.990     3274.343     2689.478     1935.118        0.762        0.395       85.221       37.720        0.196      339.500       12.875      866.817
03/09/2014  01:16:00       -5.440       26.628       -1.183       33.076       49.554       27.305     1094.054     2455.647      745.572        0.252        0.215       27.178        7.937        0.085      339.769       13.331      866.830
03/09/2014  01:17:00      -52.314       61.067        4.261      108.305       45.726       31.977    11729.911     2090.856     1022.557        1.066        0.742       80.410       35.233        0.192      340.111       13.905      866.858
03/09/2014  01:18:00       88.643       37.121        2.373       24.142       42.385       28.440      582.856     1796.461      808.859        0.621        0.159       96.102       14.679        0.023      339.630       13.095      866.877
03/09/2014  01:19:00       20.885      -60.647        4.973       41.445       64.683       23.986     1717.661     4183.953      575.338        0.531        0.324       64.143       29.501        0.212      339.684       13.184      866.901
03/09/2014  01:20:00       -2.404      -32.980       36.948       41.924       61.893       31.686     1757.590     3830.759     1004.027        0.452        0.330       33.067       36.484        1.217      339.889       13.532      866.866
03/09/2014  01:21:00     -119.029      -26.349       -1.269       51.539       38.183       22.197     2656.268     1457.929      492.721        0.973        0.230      121.910       12.139        0.010      339.989       13.701      866.855
03/09/2014  01:22:00     -166.095       -3.031      -14.184      115.859       60.735       43.507    13423.260     3688.686     1892.849        2.340        0.950      166.123       58.156        0.123      340.236       14.116      866.869
03/09/2014  01:23:00      -73.668      -26.659       -0.572       54.594       72.958       34.641     2980.525     5322.805     1199.992        0.782        0.475       78.343       34.004        0.188      340.176       14.015      866.870
03/09/2014  01:24:00       -7.202      -26.086        5.777       49.863       43.200       25.539     2486.367     1866.217      652.222        0.288        0.250       27.062       24.279        0.805      340.025       13.762      866.862
03/09/2014  01:25:00      -82.173        7.291        1.002       77.602       41.179       27.075     6022.128     1695.741      733.036        0.763        0.423       82.496       36.481        0.196      340.124       13.927      866.845
03/09/2014  01:26:00     -218.080        7.063      -16.897      101.060       64.282       35.825    10213.069     4132.177     1283.430        3.176        0.781      218.194       35.009        0.026      340.239       14.119      866.830
03/09/2014  01:27:00      -79.391        6.696       -3.523       83.607       64.048       40.524     6990.148     4102.134     1642.230        0.954        0.637       79.673       30.193        0.144      340.225       14.098      866.791
03/09/2014  01:28:00     -229.910       -3.812       -0.633      105.442      108.902       69.128    11117.999    11859.705     4778.694        4.031        1.388      229.941       70.155        0.093      340.238       14.116      866.764
03/09/2014  01:29:00     -198.961      -15.017       -8.191       83.888       98.682       46.570     7037.206     9738.210     2168.726        2.941        0.947      199.527       33.820        0.029      340.226       14.098      866.786
03/09/2014  01:30:00     -165.116      -39.426        1.169      108.750       66.808       52.249    11826.561     4463.375     2729.936        2.392        0.951      169.758       62.005        0.133      340.214       14.077      866.814
03/09/2014  01:31:00     -169.251      -45.896        2.178      126.171       63.071       40.170    15919.214     3977.896     1613.655        2.613        1.076      175.363       51.631        0.087      340.223       14.093      866.804
03/09/2014  01:32:00     -192.388      -19.639      -11.767       95.092       86.595       44.359     9042.410     7498.621     1967.720        2.802        0.925      193.388       39.483        0.042      340.314       14.248      866.797
03/09/2014  01:33:00     -206.137      -88.192       -8.478      111.101       91.004       44.337    12343.353     8281.734     1965.775        3.646        1.130      224.211       41.477        0.034      340.292       14.208      866.786
03/09/2014  01:34:00     -125.899      -42.986       -6.733      113.551       75.250       47.209    12893.900     5662.512     2228.672        1.926        1.039      133.035       48.164        0.131      340.263       14.162      866.799
03/09/2014  01:35:00     -167.850      -40.807       -4.326       76.134       60.976       40.302     5796.421     3718.113     1624.255        2.050        0.557      172.740       35.444        0.042      340.224       14.095      866.833
03/09/2014  01:36:00     -135.678      -67.252      -15.222      106.733       65.818       42.553    11391.913     4331.952     1810.786        2.035        0.877      151.431       49.041        0.105      340.242       14.125      866.876
03/09/2014  01:37:00     -103.771      -15.491        5.851       66.027       59.023       33.573     4359.571     3483.748     1127.173        1.000        0.449      104.921       28.496        0.074      340.236       14.118      866.924
03/09/2014  01:38:00     -120.714      -46.422       -2.289       73.018       50.967       37.691     5331.561     2597.647     1420.637        1.304        0.467      129.332       24.237        0.035      340.267       14.169      866.941
03/09/2014  01:39:00      -43.804      -28.241        5.963       62.933       37.346       35.659     3960.560     1394.736     1271.534        0.469        0.331       52.118       37.005        0.504      340.201       14.058      866.948
03/09/2014  01:40:00      -53.003      -27.190        5.058       44.236       35.009       21.821     1956.785     1225.659      476.155        0.362        0.183       59.570       16.053        0.073      340.171       14.007      866.954
03/09/2014  01:41:00      -18.750      -22.692        6.810       27.349       41.947       24.866      747.958     1759.561      618.299        0.202        0.156       29.436       20.115        0.467      340.179       14.021      866.955
03/09/2014  01:42:00     -100.386      -19.835      -13.443       57.907       44.576       25.675     3353.273     1987.041      659.195        0.832        0.300      102.327       27.790        0.074      340.210       14.071      866.958
03/09/2014  01:43:00     -136.137      -21.021       -3.545       70.852       58.218       37.609     5020.007     3389.340     1414.451        1.440        0.491      137.750       37.372        0.074      340.239       14.119      866.953
03/09/2014  01:44:00      -30.387      -26.040      -20.213       32.202       27.656       23.701     1036.981      764.881      561.717        0.219        0.118       40.018       19.077        0.227      340.153       13.976      866.936
03/09/2014  01:45:00      -35.729       17.721        2.309       43.170       57.399       33.681     1863.649     3294.634     1134.399        0.394        0.315       39.882       32.415        0.661      340.116       13.915      866.934
03/09/2014  01:46:00       -6.178      -12.424       16.139       59.810       76.225       39.132     3577.198     5810.296     1531.281        0.568        0.546       13.875       31.625        5.195      340.148       13.968      866.941
03/09/2014  01:47:00        2.326       21.049       54.912       46.545       52.823       47.056     2166.479     2790.229     2214.277        0.532        0.359       21.177       51.342        5.878      339.686       13.190      866.914
03/09/2014  01:48:00       67.414       42.374       34.433       43.697       35.445       33.998     1909.455     1256.348     1155.888        0.592        0.216       79.625       22.678        0.081      339.145       12.278      866.907
03/09/2014  01:49:00       61.444       15.529        7.281       46.952       27.554       29.190     2204.473      759.242      852.042        0.394        0.191       63.376       18.819        0.088      339.123       12.241      866.906
03/09/2014  01:50:00      -36.885       -3.171       29.201       26.117       52.872       40.442      682.078     2795.486     1635.573        0.367        0.256       37.021       39.296        1.127      339.522       12.914      866.866
03/09/2014  01:51:00       -8.241      -79.150      -14.113       51.401       47.945       31.662     2642.062     2298.710     1002.485        0.624        0.297       79.577       26.618        0.112      339.541       12.945      866.884
03/09/2014  01:52:00       31.015       -4.979       31.873       29.869       55.900       39.931      892.172     3124.813     1594.475        0.381        0.281       31.412       38.304        1.487      339.225       12.412      866.878
03/09/2014  01:53:00       72.460      -61.628        9.141       48.224       32.514       23.019     2325.516     1057.141      529.874        0.652        0.196       95.123       20.462        0.046      339.153       12.290      866.869
03/09/2014  01:54:00      -27.628      -95.244       -0.837       65.009       78.162       42.754     4226.114     6109.274     1827.933        1.100        0.608       99.170       32.267        0.106      339.492       12.861      866.887
03/09/2014  01:55:00      -74.337      -82.990       -5.563       81.185       86.824       44.189     6590.927     7538.394     1952.667        1.426        0.804      111.415       31.919        0.082      339.909       13.564      866.853
03/09/2014  01:56:00      -28.032       22.920       -3.482       46.399       51.290       22.073     2152.877     2630.653      487.236        0.330        0.264       36.209       26.423        0.533      339.632       13.098      866.864
03/09/2014  01:57:00        2.152       40.528       -5.793       38.259       32.043       21.131     1463.786     1026.754      446.501        0.231        0.147       40.585       12.921        0.101      339.335       12.597      866.859
03/09/2014  01:58:00      -58.056       24.856       -7.273       67.849       53.950       32.418     4603.449     2910.559     1050.901        0.630        0.428       63.153       17.293        0.075      339.685       13.190      866.845
03/09/2014  01:59:00     -153.591        2.867       -9.658       63.373       40.420       30.755     4016.087     1633.767      945.873        1.514        0.330      153.618       39.590        0.066      339.817       13.409      866.864
03/09/2014  03:00:00      -71.543      -27.767       -7.535       47.047       54.627       25.855     2213.408     2984.093      668.506        0.590        0.293       76.743       18.118        0.056      339.978       13.682      866.871
03/09/2014  03:01:00      -61.915      -43.218       23.354      116.232       76.500       58.795    13509.859     5852.244     3456.843        1.453        1.141       75.506       66.206        0.769      339.891       13.535      866.838
03/09/2014  03:02:00      -84.145      -45.020        7.212       90.370       61.009       32.062     8166.707     3722.071     1027.979        1.104        0.646       95.432       38.544        0.163      339.950       13.634      866.836
03/09/2014  03:03:00      -45.056      -55.658       10.719       49.503       39.840       34.141     2450.536     1587.256     1165.618        0.522        0.260       71.609       29.956        0.175      339.962       13.654      866.827
03/09/2014  03:04:00        9.194      -25.755       13.530       29.766       29.724       20.609      885.991      883.526      424.733        0.156        0.110       27.347       16.482        0.363      339.788       13.363      866.799
03/09/2014  03:05:00      -17.699        1.313        3.143       55.405       28.059       15.869     3069.694      787.332      251.834        0.222        0.205       17.748       12.929        0.531      339.881       13.518      866.801
03/09/2014  03:06:00     -128.577       24.219        6.869      116.206       71.779       36.395    13503.934     5152.228     1324.613        1.857        0.999      130.838       34.963        0.071      339.998       13.714      866.784
03/09/2014  03:07:00     -268.345      -39.476      -15.662       93.206      113.472       52.401     8687.427    12875.875     2745.903        4.906        1.215      271.233       45.232        0.028      340.021       13.749      866.747
03/09/2014  03:08:00     -178.380      -60.803      -11.852      139.742       74.192       46.762    19527.722     5504.412     2186.711        3.143        1.361      188.458       50.435        0.072      339.963       13.654      866.731
03/09/2014  03:09:00     -124.410      -80.830      -18.442       78.108       49.312       26.886     6100.882     2431.633      722.833        1.580        0.463      148.362       29.465        0.039      339.977       13.679      866.742
03/09/2014  03:10:00      -69.955      -33.391        0.419      102.065       48.300       32.445    10417.325     2332.857     1052.676        0.990        0.690       77.515       32.947        0.181      339.979       13.682      866.737
03/09/2014  03:11:00      -44.443      -97.400        1.600       59.765       56.748       35.871     3571.860     3220.339     1286.705        0.977        0.404      107.061       32.043        0.090      339.956       13.644      866.745
03/09/2014  03:12:00        4.636      -27.237       10.721       25.178       34.197       25.646      633.954     1169.402      657.716        0.167        0.123       27.629       13.002        0.221      339.910       13.566      866.736
03/09/2014  03:13:00      -42.821      -78.624       -6.293       37.347       53.127       17.178     1394.830     2822.504      295.090        0.628        0.226       89.528       15.742        0.031      339.966       13.661      866.729
03/09/2014  03:14:00     -102.001      -40.125        3.599       69.652       43.767       26.358     4851.391     1915.550      694.748        0.974        0.373      109.610       37.243        0.115      339.880       13.516      866.740
03/09/2014  03:15:00       10.616       -9.252       22.366       32.540       30.368       21.818     1058.834      922.238      476.013        0.158        0.123       14.082       19.323        1.883      339.776       13.342      866.728
03/09/2014  03:16:00       89.971      -97.307      -13.379       49.202       51.637       26.693     2420.799     2666.358      712.506        1.177        0.290      132.527       29.773        0.050      339.737       13.275      866.702
03/09/2014  03:17:00      -53.371      -89.131        6.916       57.613       52.937       27.146     3319.313     2802.275      736.919        0.885        0.343      103.888       30.620        0.087      339.869       13.498      866.698
03/09/2014  03:18:00       26.343      -86.343       14.771       36.580       48.193       25.052     1338.119     2322.598      627.592        0.633        0.214       90.272        4.364        0.002      339.909       13.563      866.692
03/09/2014  03:19:00      -11.357      -15.561       18.846       24.463       37.160       18.328      598.458     1380.885      335.924        0.152        0.116       19.265       15.114        0.615      339.868       13.497      866.691
03/09/2014  03:20:00      -24.013       39.487       25.053       21.597       18.162       26.078      466.444      329.866      680.079        0.212        0.074       46.216       16.714        0.131      339.661       13.146      866.685
03/09/2014  03:21:00       -6.592       26.213      -22.623       25.951       13.746       13.140      673.431      188.964      172.657        0.114        0.052       27.029       13.667        0.256      339.676       13.175      866.681
03/09/2014  03:22:00      -10.428       11.113      -11.065       19.106       13.397       12.524      365.039      179.489      156.844        0.053        0.035       15.239       13.061        0.735      339.640       13.114      866.664
03/09/2014  03:23:00       -8.986        1.333        2.460       15.422       10.595        9.564      237.843      112.247       91.479        0.026        0.022        9.085        7.327        0.650      339.654       13.135      866.656
03/09/2014  03:24:00      -66.201      -12.301       -2.072       23.142       22.085       12.225      535.563      487.739      149.453        0.286        0.059       67.334        3.503        0.003      339.702       13.218      866.654
03/09/2014  03:25:00      -41.620     -109.288       -3.561       47.430       41.606       24.829     2249.565     1731.093      616.455        0.914        0.230      116.945       15.314        0.017      339.764       13.322      866.659
03/09/2014  03:26:00      -57.454     -131.123      -14.230       37.710       54.321       19.924     1422.043     2950.756      396.948        1.273        0.238      143.158       18.817        0.017      339.804       13.389      866.669
03/09/2014  03:27:00      -20.273      -59.341        2.386       50.882       37.437       21.874     2589.018     1401.517      478.458        0.420        0.223       62.708       17.026        0.074      339.750       13.299      866.673
03/09/2014  03:28:00      -49.288     -113.589       -5.076       18.843       24.104       20.368      355.059      580.989      414.837        0.835        0.068      123.822       13.514        0.012      339.745       13.288      866.667
03/09/2014  03:29:00      -51.383      -54.416       -6.929       21.799       27.589       13.947      475.212      761.129      194.522        0.354        0.072       74.841        5.834        0.006      339.710       13.230      866.671
03/09/2014  03:30:00      -55.049      -39.100       -2.603       20.266       29.241       13.972      410.715      855.059      195.213        0.301        0.073       67.522        7.355        0.012      339.701       13.217      866.673
03/09/2014  03:31:00      -22.339      -46.750       -5.090       20.540       25.527       15.030      421.876      651.633      225.913        0.200        0.065       51.813        4.805        0.009      339.668       13.160      866.678
03/09/2014  03:32:00      -21.129      -48.406      -18.165       25.538       27.183       22.197      652.213      738.932      492.706        0.250        0.094       52.817       10.254        0.038      339.623       13.083      866.680
03/09/2014  03:33:00       -3.524      -31.963        1.217       31.045       39.305       23.445      963.786     1544.894      549.676        0.205        0.153       32.156       20.175        0.394      339.571       12.997      866.670
03/09/2014  03:34:00       11.228       23.292       45.246       28.761       34.118       25.312      827.190     1164.008      640.721        0.267        0.132       25.857       18.270        0.499      339.389       12.688      866.649
03/09/2014  03:35:00       57.264      -43.844       19.209       57.317       62.032       38.334     3285.200     3847.955     1469.515        0.708        0.430       72.121       45.371        0.396      339.360       12.640      866.636
03/09/2014  03:36:00       28.531      -55.390        3.207       31.606       47.976       29.979      998.920     2301.729      898.752        0.405        0.210       62.306       28.296        0.206      339.336       12.598      866.619
03/09/2014  03:37:00       42.181      -84.738      -16.413       39.851       34.515       28.182     1588.125     1191.302      794.225        0.640        0.179       94.656       16.813        0.032      339.453       12.796      866.604
03/09/2014  03:38:00       11.233       -6.890       35.261       25.873       35.953       27.956      669.433     1292.586      781.549        0.208        0.137       13.178       23.801        3.262      339.421       12.745      866.566
03/09/2014  03:39:00      -18.553       -4.317       19.037       16.604       15.830       14.154      275.683      250.587      200.339        0.073        0.036       19.048       10.818        0.323      339.497       12.871      866.541
03/09/2014  03:40:00      -22.980      -27.380       11.363       17.501       20.996       10.126      306.293      440.831      102.531        0.113        0.042       35.745        7.617        0.045      339.518       12.907      866.535
03/09/2014  03:41:00      -43.219      -22.510        6.051       48.933       36.706       18.390     2394.479     1347.338      338.185        0.324        0.204       48.730       15.215        0.097      339.464       12.815      866.552
03/09/2014  03:42:00     -123.977      -72.076        4.572       57.641       42.626       24.134     3322.452     1816.956      582.459        1.315        0.286      143.406       23.966        0.028      339.406       12.717      866.571
03/09/2014  03:43:00     -118.301      -17.721        2.670       40.869       34.293       26.327     1670.287     1176.031      693.096        0.893        0.177      119.621       20.356        0.029      339.260       12.472      866.583
03/09/2014  03:44:00      -56.572      -56.973       10.423       44.990       41.126       23.058     2024.134     1691.346      531.650        0.540        0.212       80.289       23.307        0.084      339.275       12.497      866.575
03/09/2014  03:45:00      -33.407      -53.739        3.380       23.793       28.673       15.561      566.130      822.166      242.141        0.282        0.082       63.276       14.184        0.050      339.369       12.657      866.564
03/09/2014  03:46:00      -17.071       -5.877       23.198       28.951       38.042       18.242      838.155     1447.169      332.775        0.174        0.131       18.055       26.792        2.202      339.393       12.694      866.552
03/09/2014  03:47:00        5.614       47.423       63.396       19.399       28.361       12.842      376.319      804.347      164.906        0.382        0.067       47.754       12.301        0.066      339.405       12.717      866.551
03/09/2014  03:48:00        0.275       -4.106       32.682       17.711       18.563       16.634      313.675      344.594      276.700        0.101        0.047        4.115        9.266        5.070      339.471       12.827      866.560
03/09/2014  03:49:00       32.172       -7.171       21.626       30.446       29.218       22.210      926.967      853.678      493.274        0.191        0.114       32.962       24.819        0.567      339.443       12.780      866.585
03/09/2014  03:50:00       11.169       20.436       36.462       25.051       25.907       14.058      627.568      671.158      197.636        0.168        0.075       23.289       11.953        0.263      339.461       12.809      866.597
03/09/2014  03:51:00      -18.316      -16.818       10.888       20.114       16.515       12.096      404.581      272.739      146.313        0.078        0.041       24.866       11.119        0.200      339.431       12.759      866.606
03/09/2014  03:52:00      -38.690      -11.723        4.825       16.571       14.246        9.477      274.608      202.951       89.818        0.111        0.028       40.427        8.518        0.044      339.229       12.420      866.615
03/09/2014  03:53:00      -40.882       -9.124       -3.021       24.273       13.650        9.905      589.169      186.332       98.112        0.132        0.044       41.887        8.617        0.042      339.175       12.328      866.630
03/09/2014  03:54:00      -92.217      -28.348       -6.030       35.844       28.494       13.423     1284.763      811.885      180.185        0.581        0.114       96.476       12.139        0.016      339.205       12.379      866.646
03/09/2014  03:55:00      -79.373       15.128        1.923       55.209       33.952       23.453     3048.041     1152.717      550.035        0.564        0.238       80.802       27.070        0.112      339.307       12.551      866.649
03/09/2014  03:56:00       31.592       31.603       24.892       32.690       32.282       22.390     1068.649     1042.143      501.325        0.261        0.131       44.686       10.755        0.058      339.480       12.841      866.634
03/09/2014  03:57:00       63.499       17.388        7.393       59.542       50.498       29.293     3545.225     2550.075      858.073        0.567        0.348       65.837       25.805        0.154      339.404       12.714      866.614
03/09/2014  03:58:00        0.304     -122.572        0.945       50.971       27.127       20.096     2598.018      735.897      403.838        0.938        0.187      122.572       12.475        0.010      339.569       12.992      866.631
03/09/2014  03:59:00      -83.873     -115.300       -9.341       91.313       77.285       31.967     8337.987     5972.959     1021.880        1.787        0.767      142.579       40.888        0.082      339.612       13.064      866.666
03/09/2014  04:00:00      -69.274     -101.604        1.575       70.219      111.289       38.834     4930.715    12385.331     1508.074        1.697        0.941      122.973       44.177        0.129      339.819       13.412      866.638
03/09/2014  04:01:00     -134.211      -88.049       -3.604       80.532       54.530       38.845     6485.472     2973.512     1508.906        1.837        0.548      160.516       34.668        0.047      339.833       13.436      866.568
03/09/2014  04:02:00     -187.294      -66.212      -23.023       80.482       61.454       31.669     6477.331     3776.555     1002.917        2.562        0.563      198.653       26.429        0.018      339.794       13.369      866.575
03/09/2014  04:03:00      -49.908      -72.614        6.464       62.619       51.445       32.975     3921.134     2646.560     1087.359        0.773        0.383       88.111       37.857        0.185      339.808       13.394      866.531
03/09/2014  04:04:00      -53.836       -1.834       -7.029       37.145       27.645       22.592     1379.774      764.233      510.405        0.280        0.133       53.867       15.295        0.081      339.782       13.355      866.515
03/09/2014  04:05:00        4.740      -43.472        4.774       23.488       27.541       20.073      551.675      758.486      402.915        0.182        0.086       43.730       16.949        0.150      339.781       13.349      866.500
03/09/2014  04:06:00       -7.085        9.087       47.991       21.977       41.758       29.238      482.978     1743.741      854.861        0.276        0.154       11.522       31.206        7.335      339.728       13.261      866.455
03/09/2014  04:07:00       -1.934       -0.504       66.091       29.326       54.103       38.700      860.018     2927.184     1497.666        0.483        0.264        1.998       36.377      331.377      339.671       13.164      866.410
03/09/2014  04:08:00      -11.263     -139.737        6.299       68.847      125.785       46.983     4739.890    15821.926     2207.397        2.123        1.138      140.190       55.754        0.158      339.762       13.316      866.396
03/09/2014  04:09:00      -81.703     -203.145        3.416       59.364      106.054       48.185     3524.110    11247.480     2321.835        3.252        0.855      218.960       15.341        0.005      339.758       13.308      866.390
03/09/2014  04:10:00     -139.505      -46.046      -14.249       97.897       46.447       32.930     9583.738     2157.335     1084.353        1.730        0.641      146.908       36.074        0.060      339.700       13.210      866.378
03/09/2014  04:11:00     -179.930      -17.575      -18.926       83.095       85.630       39.219     6904.812     7332.464     1538.165        2.441        0.789      180.786       35.316        0.038      339.680       13.177      866.380
03/09/2014  04:12:00      -96.129      -65.397        0.776       57.344       39.613       28.117     3288.289     1569.191      790.574        0.958        0.282      116.265       28.162        0.059      339.663       13.149      866.368
03/09/2014  04:13:00      -10.099        0.671       35.294       45.766       49.140       34.917     2094.545     2414.780     1219.186        0.354        0.286       10.122       33.903       11.220      339.636       13.105      866.352
03/09/2014  04:14:00       33.863      -38.224       26.264       60.894       61.026       53.835     3708.043     3724.175     2898.258        0.681        0.517       51.066       33.635        0.434      339.587       13.023      866.307
03/09/2014  04:15:00       14.512       11.363       47.502       24.736       57.022       29.931      611.878     3251.483      895.887        0.368        0.238       18.431       36.875        4.003      339.598       13.040      866.277
03/09/2014  04:16:00      -14.082      -59.611       -3.752       53.750       44.995       21.068     2889.057     2024.564      443.859        0.456        0.268       61.252       11.865        0.038      339.668       13.159      866.285
03/09/2014  04:17:00        5.922      -81.286      -14.338       40.306       43.786       35.422     1624.607     1917.244     1254.721        0.582        0.240       81.501       33.177        0.166      339.732       13.267      866.299
03/09/2014  04:18:00       43.689      -49.824        1.757       42.256       40.611       33.485     1785.540     1649.249     1121.242        0.447        0.228       66.266       21.763        0.108      339.585       13.020      866.290
03/09/2014  04:19:00       71.079      -82.518       -6.664       53.054       67.596       30.073     2814.775     4569.173      904.379        1.010        0.414      108.910       34.537        0.101      339.497       12.870      866.305
03/09/2014  04:20:00       65.227      -43.091       28.694       46.759       54.668       29.298     2186.448     2988.541      858.356        0.648        0.302       78.176       33.380        0.182      339.401       12.711      866.315
03/09/2014  04:21:00       34.511       35.376       51.768       47.222       50.864       42.809     2229.959     2587.106     1832.651        0.588        0.332       49.421       44.706        0.818      339.382       12.678      866.332
03/09/2014  04:22:00        9.914       36.939       61.913       27.349       28.873       24.345      747.946      833.639      592.662        0.373        0.109       38.246       22.067        0.333      339.384       12.681      866.324
03/09/2014  04:23:00       16.771       44.412       62.423       31.250       29.030       18.018      976.579      842.722      324.636        0.415        0.107       47.473       18.045        0.144      339.365       12.649      866.326
03/09/2014  04:24:00       25.765       23.035       39.571       34.139       30.813       22.206     1165.505      949.454      493.091        0.268        0.130       34.561       20.456        0.350      339.308       12.551      866.333
03/09/2014  04:25:00       55.962       16.509       43.482       54.906       39.577       38.247     3014.684     1566.371     1462.862        0.567        0.302       58.346       33.473        0.329      339.138       12.264      866.353
03/09/2014  04:26:00       64.651       19.084        1.941       36.724       22.001       22.537     1348.617      484.051      507.915        0.344        0.117       67.409       17.553        0.068      339.047       12.113      866.364
03/09/2014  04:27:00       69.969       16.528       12.660       33.883       25.173       23.762     1148.073      633.666      564.636        0.384        0.117       71.895       15.035        0.044      339.034       12.090      866.371
03/09/2014  04:28:00       38.985       43.038       20.341       45.169       26.670       24.310     2040.239      711.272      590.964        0.356        0.167       58.070       26.490        0.208      339.063       12.139      866.382
03/09/2014  04:29:00       41.914       30.345       25.881       22.472       17.659       20.844      505.013      311.838      434.456        0.230        0.063       51.745       16.554        0.102      339.090       12.185      866.382
03/09/2014  04:30:00        4.062        9.670       24.051       17.840       18.742       25.880      318.278      351.254      669.776        0.101        0.067       10.488       19.136        3.329      339.150       12.287      866.385
03/09/2014  04:31:00       -3.924       58.331       73.183       12.511       25.168       18.303      156.521      633.446      335.014        0.495        0.056       58.463       18.290        0.098      339.046       12.110      866.401
03/09/2014  04:32:00       36.786       60.857       69.048       44.504       30.372       20.391     1980.579      922.466      415.812        0.657        0.166       71.111       22.717        0.102      338.964       11.975      866.419
03/09/2014  04:33:00      110.454       54.448       64.545       63.101       50.525       45.236     3981.705     2552.804     2046.303        1.395        0.429      123.144       33.105        0.072      338.809       11.712      866.405
03/09/2014  04:34:00       85.153      117.857      105.176       80.673       56.139       47.085     6508.136     3151.586     2216.974        2.204        0.594      145.400       48.612        0.112      338.766       11.640      866.416
03/09/2014  04:35:00       86.503      126.349       86.687       50.750       39.237       46.705     2575.520     1539.508     2181.386        1.863        0.315      153.123       35.183        0.053      338.725       11.571      866.448
03/09/2014  04:36:00       42.548       43.106       56.295       39.590       29.887       27.793     1567.404      893.244      772.451        0.503        0.162       60.567       20.762        0.118      338.710       11.547      866.459
03/09/2014  04:37:00       67.920       33.023       30.929       30.964       22.355       27.692      958.746      499.751      766.822        0.444        0.111       75.523       18.177        0.058      338.700       11.530      866.450
03/09/2014  04:38:00       81.499       39.012       18.673       35.915       27.858       21.795     1289.855      776.086      475.014        0.553        0.127       90.356       14.988        0.028      338.621       11.397      866.439
03/09/2014  04:39:00       22.553       38.256       -0.474       24.415       17.930       10.605      596.092      321.471      112.463        0.150        0.052       44.409        8.379        0.036      338.519       11.225      866.445
03/09/2014  04:40:00       42.299       46.138        3.033       30.767       28.349       23.146      946.592      803.640      535.759        0.311        0.114       62.593       19.731        0.099      338.510       11.212      866.444
03/09/2014  04:41:00       32.849       49.302       -1.174       26.490       21.021       19.097      701.710      441.869      364.694        0.251        0.075       59.243       10.590        0.032      338.466       11.134      866.477
03/09/2014  04:42:00       43.779       58.746       -2.442       18.106       19.942       14.648      327.811      397.684      214.560        0.316        0.047       73.264       13.930        0.036      338.471       11.145      866.495
03/09/2014  04:43:00       92.198       67.826        4.726       42.756       33.545       24.436     1828.055     1125.239      597.135        0.834        0.178      114.459       19.905        0.030      338.505       11.202      866.471
03/09/2014  04:44:00       72.625       29.553        4.499       40.581       24.612       19.158     1646.811      605.762      367.021        0.439        0.131       78.408       10.100        0.017      338.492       11.180      866.479
03/09/2014  04:45:00       52.336       27.827       -0.571       18.932       13.332       11.031      358.410      177.746      121.676        0.209        0.033       59.274        7.883        0.018      338.496       11.187      866.505
03/09/2014  04:46:00       25.857       44.467       -1.000       17.144       19.637       17.658      293.925      385.594      311.814        0.182        0.050       51.438       10.402        0.041      338.488       11.173      866.507
03/09/2014  04:47:00       23.958       17.327        8.198       24.118       20.567       17.086      581.694      422.992      291.932        0.112        0.065       29.567        9.156        0.096      338.476       11.152      866.501
03/09/2014  04:48:00       19.471       36.166        1.442       19.216       34.113       16.957      369.262     1163.670      287.539        0.175        0.091       41.074       18.589        0.205      338.429       11.073      866.515
03/09/2014  04:49:00       26.639       52.009       -5.233       18.781       28.008       17.590      352.740      784.458      309.404        0.244        0.072       58.435       14.277        0.060      338.456       11.119      866.512
03/09/2014  04:50:00       36.154       75.742       -6.421       24.616       42.073       22.992      605.946     1770.155      528.637        0.499        0.145       83.928       23.115        0.076      338.395       11.016      866.505
03/09/2014  04:51:00       33.205       57.570        0.314       25.523       37.266       27.194      651.409     1388.751      739.531        0.360        0.139       66.460       27.311        0.169      338.346       10.934      866.508
03/09/2014  04:52:00       16.144       74.056       -7.898       15.361       23.976       14.159      235.974      574.839      200.486        0.341        0.051       75.795       11.936        0.025      338.339       10.923      866.546
03/09/2014  04:53:00       22.921       93.753       -7.510       22.651       20.056       17.903      513.072      402.242      320.509        0.530        0.062       96.514       15.736        0.027      338.307       10.869      866.575
03/09/2014  04:54:00       29.626       39.906        5.394       26.521       26.316       21.973      703.361      692.520      482.807        0.219        0.094       49.701       15.509        0.097      338.286       10.835      866.581
03/09/2014  04:55:00       21.933       62.186       -5.318       18.780       40.653       20.525      352.700     1652.650      421.273        0.340        0.121       65.941       22.125        0.113      338.277       10.820      866.609
03/09/2014  04:56:00       86.301       91.510       -1.014       44.132       31.194       26.552     1947.661      973.071      705.031        0.972        0.181      125.785       22.254        0.031      338.262       10.794      866.604
03/09/2014  04:57:00      119.560       79.994        6.569       43.256       37.772       21.069     1871.047     1426.730      443.908        1.224        0.187      143.853        8.623        0.004      338.218       10.721      866.593
03/09/2014  04:58:00       88.447       45.788        9.834       46.629       34.223       29.709     2174.227     1171.218      882.597        0.712        0.211       99.596       19.004        0.036      338.217       10.717      866.603
03/09/2014  04:59:00       79.180       51.220        7.163       44.730       28.615       26.569     2000.797      818.844      705.938        0.623        0.176       94.303       17.385        0.034      338.186       10.664      866.606
03/09/2014  05:00:00       33.132       40.070       17.282       35.422       25.463       22.016     1254.696      648.354      484.705        0.269        0.119       51.994       16.886        0.105      338.170       10.639      866.597
03/09/2014  05:01:00       72.616       57.324       17.236       23.072       28.202       32.626      532.315      795.329     1064.444        0.562        0.120       92.515       20.135        0.047      338.132       10.575      866.581
03/09/2014  05:02:00      109.506       87.622        7.396       37.247       23.176       27.408     1387.358      537.119      751.176        1.120        0.134      140.246       14.157        0.010      338.136       10.583      866.572
03/09/2014  05:03:00      123.633       70.355       24.872       27.412       20.993       28.171      751.444      440.698      793.586        1.142        0.099      142.249       16.855        0.014      338.132       10.573      866.560
03/09/2014  05:04:00       33.210       40.940       36.273       34.171       30.444       28.769     1167.633      926.850      827.662        0.351        0.146       52.716       14.171        0.072      338.171       10.640      866.564
03/09/2014  05:05:00       55.733       20.812       17.949       42.966       27.238       22.702     1846.091      741.893      515.390        0.348        0.155       59.492       12.382        0.043      338.179       10.652      866.590
03/09/2014  05:06:00       64.953       46.734        4.045       31.000       18.395       15.576      961.018      338.390      242.613        0.398        0.077       80.019       10.666        0.018      338.214       10.713      866.614
03/09/2014  05:07:00       38.874       69.474       -0.943       39.397       22.264       19.201     1552.125      495.689      368.697        0.438        0.121       79.610       10.690        0.018      338.226       10.734      866.635
03/09/2014  05:08:00      104.155       72.101       17.119       34.724       20.048       27.668     1205.750      401.913      765.494        0.936        0.119      126.676       15.453        0.015      338.240       10.757      866.632
03/09/2014  05:09:00       96.671       68.697        7.495       39.761       28.403       23.015     1580.961      806.727      529.685        0.852        0.146      118.595       18.957        0.026      338.230       10.741      866.620
03/09/2014  05:10:00       71.716       51.497       16.858       40.563       35.194       23.757     1645.396     1238.629      564.415        0.576        0.172       88.290       22.558        0.065      338.240       10.757      866.653
03/09/2014  05:11:00       82.172       73.884       12.407       36.234       27.631       27.335     1312.924      763.451      747.226        0.759        0.141      110.503       22.372        0.041      338.425       11.068      866.668
03/09/2014  05:12:00       90.823       77.912       15.886       49.119       22.628       26.120     2412.713      512.036      682.239        0.909        0.180      119.662       25.229        0.044      338.455       11.118      866.685
03/09/2014  05:13:00       -0.514       45.645       -1.767       20.992       25.503       16.354      440.644      650.392      267.467        0.172        0.068       45.648       15.665        0.118      338.394       11.016      866.723
03/09/2014  05:14:00       17.961       78.691       -6.020       15.073       22.598       15.074      227.210      510.668      227.213        0.376        0.048       80.715       11.025        0.019      338.301       10.859      866.764
03/09/2014  05:15:00       25.498       98.770       -9.561       20.947       32.254       20.380      438.798     1040.302      415.354        0.620        0.095      102.009       18.008        0.031      338.243       10.763      866.813
03/09/2014  05:16:00       47.452      104.100       -8.912       40.834       39.020       24.424     1667.442     1522.565      596.544        0.848        0.189      114.405       21.816        0.036      338.314       10.880      866.835
03/09/2014  05:17:00      113.119       85.142       11.312       40.280       28.672       23.907     1622.466      822.103      571.523        1.159        0.151      141.581       19.385        0.019      338.374       10.981      866.853
03/09/2014  05:18:00       75.289       63.888       10.804       42.293       33.733       27.081     1788.715     1137.903      733.373        0.676        0.183       98.743       18.290        0.034      338.364       10.966      866.868
03/09/2014  05:19:00       11.333       50.046       -1.875       25.086       45.386       23.834      629.295     2059.885      568.061        0.295        0.163       51.313       27.107        0.279      338.394       11.017      866.899
03/09/2014  05:20:00      -57.314       43.543      -16.269       23.917       35.963       21.845      572.041     1293.337      477.197        0.389        0.117       71.978       16.441        0.052      338.453       11.116      866.924
03/09/2014  05:21:00      -47.659       59.085      -13.603       21.660       38.358       18.645      469.161     1471.365      347.625        0.412        0.114       75.911       19.457        0.066      338.411       11.045      866.948
03/09/2014  05:22:00       21.821      110.796       -8.750       49.876       43.800       29.281     2487.648     1918.408      857.372        0.904        0.263      112.925       29.976        0.070      338.691       11.515      866.924
03/09/2014  05:23:00      107.830      118.346        0.992       80.774       48.783       47.838     6524.423     2379.803     2288.511        1.841        0.560      160.104       32.211        0.040      338.621       11.397      866.862
03/09/2014  05:24:00      178.611       88.395       14.878       51.547       37.062       39.888     2657.048     1373.571     1591.037        2.278        0.281      199.288       24.611        0.015      338.656       11.453      866.817
03/09/2014  05:25:00       71.164      110.527       80.841       67.698       44.637       51.203     4583.061     1992.503     2621.768        1.650        0.460      131.456       47.609        0.131      338.686       11.507      866.792
03/09/2014  05:26:00       95.693       63.648       37.959       35.624       28.601       28.172     1269.072      818.032      793.687        0.876        0.144      114.927       18.597        0.026      338.770       11.648      866.811
03/09/2014  05:27:00       56.436       26.004       16.949       51.391       31.567       22.796     2640.993      996.481      519.669        0.415        0.208       62.138        9.303        0.022      338.648       11.443      866.835
03/09/2014  05:28:00      -18.321       29.181       -6.700       22.326       28.075       14.890      498.441      788.203      221.716        0.137        0.075       34.456       10.910        0.100      338.575       11.321      866.841
03/09/2014  05:29:00      -21.356        8.156       -5.737       23.320       18.045        9.828      543.804      325.639       96.590        0.076        0.048       22.860        9.707        0.180      338.594       11.353      866.843
03/09/2014  05:30:00      -44.727      -18.380      -13.950       31.061       18.419       24.384      964.806      339.274      594.583        0.222        0.095       48.356       22.190        0.211      338.681       11.499      866.820
03/09/2014  05:31:00      -47.748       -0.502      -12.413       15.006       13.310       12.460      225.184      177.144      155.259        0.150        0.028       47.751        6.360        0.018      338.679       11.493      866.767
03/09/2014  05:32:00      -90.175       15.674      -12.643       37.774       23.573       12.202     1426.870      555.685      148.880        0.533        0.107       91.527        6.714        0.005      338.647       11.440      866.720
03/09/2014  05:33:00      -98.293       37.439      -13.339       43.074       27.505       23.408     1855.353      756.526      547.938        0.720        0.158      105.182       18.474        0.031      338.769       11.646      866.714
03/09/2014  05:34:00      -53.665      -13.197      -10.150       24.244       26.971       14.838      587.753      727.441      220.170        0.235        0.077       55.264        6.681        0.015      338.750       11.614      866.713
03/09/2014  05:35:00       13.841      -15.439        3.881       15.092       15.137       18.550      227.762      229.142      344.085        0.062        0.040       20.735       12.936        0.389      338.716       11.556      866.699
03/09/2014  05:36:00      -26.558       -6.108       -1.563       26.118       12.467       10.304      682.128      155.435      106.175        0.084        0.047       27.251       13.348        0.240      338.753       11.620      866.666
03/09/2014  05:37:00      -81.466      -55.151       -2.491       51.849       42.522       27.951     2688.369     1808.109      781.284        0.748        0.264       98.379       24.536        0.062      338.725       11.572      866.676
03/09/2014  05:38:00      -26.073      -31.565        4.198       35.390       26.981       24.254     1252.471      727.965      588.256        0.213        0.128       40.941       24.335        0.353      338.765       11.638      866.678
03/09/2014  05:39:00      -83.391      -19.495       -8.765       56.710       21.913       14.886     3216.008      480.184      221.604        0.566        0.196       85.639       19.876        0.054      338.731       11.582      866.662
03/09/2014  05:40:00     -125.457      -37.429        3.044       42.847       39.063       23.798     1835.841     1525.913      566.367        1.054        0.196      130.922       18.893        0.021      338.708       11.542      866.676
03/09/2014  05:41:00     -134.067      -54.704        5.778       69.071       59.375       34.641     4770.788     3525.432     1200.032        1.525        0.475      144.798       35.155        0.059      339.000       12.033      866.670
03/09/2014  05:42:00     -132.606      -25.462       -1.794       54.581       37.917       25.716     2979.042     1437.730      661.298        1.166        0.254      135.028       13.927        0.011      338.912       11.885      866.665
03/09/2014  05:43:00     -119.719      -57.542       -4.710       44.320       43.317       25.424     1964.294     1876.349      646.363        1.108        0.224      132.830       23.353        0.031      339.064       12.141      866.647
03/09/2014  05:44:00     -146.885      -72.669      -11.707       65.876       48.094       31.495     4339.684     2313.036      991.907        1.732        0.382      163.878       20.552        0.016      339.090       12.184      866.643
03/09/2014  05:45:00     -256.623      -94.772       -8.438       91.100       93.190       43.629     8299.198     8684.399     1903.522        4.689        0.944      273.563       40.518        0.022      339.180       12.333      866.638
03/09/2014  05:46:00     -334.590     -122.092      -14.974      167.029      110.432       72.844    27898.552    12195.171     5306.191        8.623        2.270      356.170       82.183        0.053      339.341       12.605      866.636
03/09/2014  05:47:00     -112.855      -66.610        6.146      111.477       92.803       45.332    12427.057     8612.444     2054.981        2.015        1.155      131.046       56.268        0.184      339.277       12.498      866.642
03/09/2014  05:48:00     -196.846     -115.820       -9.163       94.429       65.918       50.799     8916.825     4345.248     2580.561        3.404        0.792      228.391       54.094        0.056      339.312       12.556      866.639
03/09/2014  05:49:00     -110.982     -102.128        6.924       98.866      113.526       51.717     9774.420    12888.066     2674.634        2.406        1.267      150.822       43.762        0.084      339.350       12.620      866.617
03/09/2014  05:50:00     -273.972      -35.206        7.369      168.098      101.125       65.118    28256.949    10226.197     4240.368        5.953        2.136      276.224       71.806        0.068      339.333       12.592      866.596
03/09/2014  05:51:00     -253.393      -70.753      -17.018       96.490       84.615       49.597     9310.280     7159.674     2459.867        4.421        0.946      263.085       48.772        0.034      339.332       12.589      866.577
03/09/2014  05:52:00     -211.275      -81.134       -1.825      132.536      133.512       63.377    17565.904    17825.341     4016.669        4.531        1.970      226.318       77.629        0.118      339.300       12.536      866.556
03/09/2014  05:53:00     -195.465     -130.704      -12.025      124.404      110.828       64.176    15476.409    12282.777     4118.578        4.365        1.594      235.138       67.265        0.082      339.332       12.589      866.527
03/09/2014  05:54:00     -249.001      -67.932      -22.973      123.655       77.843       44.444    15290.587     6059.524     1975.231        4.523        1.166      258.101       43.504        0.028      339.313       12.557      866.505
03/09/2014  05:55:00     -299.932     -152.551      -11.149      188.748      119.240       69.906    35625.733    14218.098     4886.811        8.403        2.737      336.498       89.850        0.071      339.299       12.533      866.468
03/09/2014  05:56:00     -246.279      -81.504      -17.503      136.383      148.175       58.777    18600.309    21955.755     3454.691        5.580        2.201      259.415       66.876        0.066      339.317       12.563      866.450
03/09/2014  05:57:00     -130.671      -33.342       15.924      122.837      123.820       64.040    15089.012    15331.339     4101.070        2.647        1.726      134.858       63.758        0.224      339.295       12.527      866.432
03/09/2014  05:58:00     -162.919      -53.208        2.799      109.579       83.883       48.059    12007.593     7036.415     2309.638        2.536        1.068      171.387       40.838        0.057      339.266       12.479      866.406
03/09/2014  05:59:00     -249.720     -129.598       -3.002      152.148      125.319       70.468    23149.119    15704.840     4965.672        6.148        2.191      281.346       65.790        0.055      339.287       12.513      866.372
03/09/2014  06:00:00     -290.320      -44.485       -3.823      141.371       69.592       55.126    19985.647     4842.985     3038.822        5.707        1.393      293.709       64.403        0.048      339.263       12.475      866.365
03/09/2014  06:01:00     -356.481      -86.337      -12.805      148.755      110.779       54.642    22127.974    12272.036     2985.710        8.603        1.869      366.787       60.524        0.027      339.276       12.493      866.349
03/09/2014  06:02:00     -356.031     -117.165       -2.545      153.951      129.003       75.106    23700.956    16641.818     5640.863        9.323        2.299      374.814       80.761        0.046      339.272       12.489      866.341
03/09/2014  06:03:00     -309.683      -85.049      -11.515      141.705      102.293       69.230    20080.403    10463.838     4792.734        6.930        1.767      321.150       76.737        0.057      339.262       12.472      866.332
03/09/2014  06:04:00     -178.547      -50.306       -7.756      103.844       84.765       55.742    10783.486     7185.170     3107.213        2.777        1.054      185.499       48.682        0.069      339.247       12.448      866.338
03/09/2014  06:05:00     -125.345       -0.881       28.092      138.547       89.807       71.385    19195.366     8065.228     5095.773        2.442        1.618      125.348       72.043        0.330      339.238       12.433      866.317
03/09/2014  06:06:00     -325.151      -56.407       -7.052      118.445       93.602       57.101    14029.145     8761.296     3260.527        6.750        1.303      330.008       55.744        0.029      339.267       12.480      866.321
03/09/2014  06:07:00     -196.539      -40.195        5.117       92.988      101.087       52.021     8646.748    10218.632     2706.234        3.092        1.079      200.608       40.618        0.041      339.248       12.449      866.343
03/09/2014  06:08:00     -131.519      -49.126        1.160      131.946      102.933       67.474    17409.869    10595.212     4552.762        2.613        1.628      140.394       68.346        0.237      339.262       12.473      866.320
03/09/2014  06:09:00     -295.888      -55.835      -23.606      126.310      104.197       53.861    15954.126    10856.913     2900.992        6.046        1.486      301.110       50.837        0.029      339.255       12.459      866.308
03/09/2014  06:10:00     -224.372      -70.768        2.028      124.348      120.842       53.067    15462.435    14602.899     2816.088        4.411        1.644      235.268       55.811        0.056      339.288       12.515      866.290
03/09/2014  06:11:00     -205.637      -35.142        8.836      103.822       98.812       55.935    10779.025     9763.884     3128.768        3.363        1.184      208.618       49.606        0.057      339.266       12.480      866.253
03/09/2014  06:12:00     -238.913      -99.346        9.509      166.547      104.949       72.671    27737.877    11014.245     5281.106        5.553        2.202      258.745       86.268        0.111      339.287       12.513      866.225
03/09/2014  06:13:00     -289.825      -37.183        1.210      134.523      102.093       54.969    18096.491    10422.957     3021.642        5.846        1.577      292.201       63.058        0.047      339.303       12.540      866.208
03/09/2014  06:14:00     -157.717     -124.664        9.121      108.146      106.323       59.361    11695.516    11304.615     3523.708        3.351        1.326      201.037       63.270        0.099      339.292       12.522      866.221
03/09/2014  06:15:00     -158.773     -114.692       -3.772      100.514       69.575       60.980    10103.140     4840.682     3718.587        2.852        0.933      195.866       62.126        0.101      339.294       12.526      866.246
03/09/2014  06:16:00     -221.940     -173.993        0.485      118.931      112.221       64.162    14144.628    12593.516     4116.704        5.519        1.543      282.013       65.110        0.053      339.336       12.597      866.280
03/09/2014  06:17:00      -67.647     -128.690      -15.657      117.783       76.986       35.517    13872.756     5926.880     1261.435        2.122        1.053      145.386       16.779        0.013      339.361       12.642      866.326
03/09/2014  06:18:00      -64.223      -70.397        8.289       98.429       51.675       43.038     9688.170     2670.336     1852.236        1.168        0.711       95.291       44.939        0.222      339.389       12.689      866.350
03/09/2014  06:19:00       27.006       -9.695       71.933       75.324      111.376       66.728     5673.750    12404.625     4452.676        1.426        1.127       28.693       61.194        4.548      339.282       12.507      866.315
03/09/2014  06:20:00      -48.114     -195.277       -6.105       91.245       79.796       48.655     8325.672     6367.408     2367.332        2.877        0.853      201.117       45.939        0.052      339.394       12.693      866.339
03/09/2014  06:21:00       40.282       -0.494       57.934       54.466       77.680       68.429     2966.582     6034.155     4682.520        0.933        0.684       40.285       52.690        1.711      339.260       12.473      866.355
03/09/2014  06:22:00       21.620       84.453      129.962       59.043       73.441       49.112     3486.129     5393.574     2411.948        1.789        0.565       87.177       49.058        0.317      339.152       12.288      866.327
03/09/2014  06:23:00       60.799     -140.497       11.551       74.417      113.318       55.891     5537.839    12841.078     3123.848        2.253        1.075      153.088       60.783        0.158      339.082       12.170      866.327
03/09/2014  06:24:00       65.184     -120.148      -18.511       38.182       43.812       29.178     1457.835     1919.515      851.374        1.163        0.211      136.692       19.640        0.021      339.105       12.210      866.345
03/09/2014  06:25:00       26.328      -13.630       35.717       30.322       40.675       26.934      919.448     1654.480      725.438        0.273        0.165       29.647       23.718        0.640      339.056       12.127      866.358
03/09/2014  06:26:00       51.967       -6.391       -3.438       31.631       19.965       12.867     1000.519      398.586      165.556        0.216        0.078       52.359        8.092        0.024      338.983       12.006      866.376
03/09/2014  06:27:00       16.448       13.234       32.241       24.768       30.303       25.223      613.457      918.245      636.211        0.183        0.108       21.111       16.983        0.647      338.928       11.912      866.376
03/09/2014  06:28:00       37.934       20.059       28.374       24.136       35.871       29.583      582.533     1286.711      875.166        0.269        0.137       42.911       19.625        0.209      338.853       11.787      866.369
03/09/2014  06:29:00       19.956       40.974       46.609       21.823       25.478       14.490      476.225      649.110      209.973        0.279        0.067       45.575        7.412        0.026      338.807       11.709      866.367
03/09/2014  06:30:00       39.867       54.192       57.199       32.979       24.274       23.580     1087.624      589.208      556.022        0.501        0.112       67.277       17.741        0.070      338.862       11.802      866.372
03/09/2014  06:31:00       67.573       72.586       62.477       46.432       36.843       36.658     2155.914     1357.440     1343.776        0.930        0.243       99.171       29.938        0.091      338.894       11.857      866.350
03/09/2014  06:32:00       56.133       56.194       65.400       65.755       46.931       35.378     4323.682     2202.487     1251.593        0.918        0.389       79.427       31.953        0.162      338.858       11.796      866.323
03/09/2014  06:33:00       15.794       34.239       73.099       34.265       63.129       41.082     1174.065     3985.224     1687.728        0.680        0.342       37.706       35.781        0.901      338.941       11.935      866.330
03/09/2014  06:34:00       15.528       43.832       81.402       39.752       53.939       30.818     1580.211     2909.441      949.736        0.711        0.272       46.501       29.738        0.409      339.006       12.044      866.328
03/09/2014  06:35:00        7.319       -7.114       62.344       31.140       63.844       43.134      969.717     4076.044     1860.577        0.545        0.345       10.207       37.911       13.796      338.991       12.020      866.330
03/09/2014  06:36:00      -14.172      -43.904       -5.848       39.705       36.923       26.896     1576.478     1363.328      723.379        0.291        0.183       46.135       18.827        0.167      339.024       12.076      866.371
03/09/2014  06:37:00       47.457      -12.140       39.475       42.076       81.768       48.780     1770.415     6685.994     2379.443        0.739        0.542       48.985       52.556        1.151      338.997       12.030      866.375
03/09/2014  06:38:00       32.849       29.899       68.639       40.267       72.157       38.027     1621.451     5206.686     1446.066        0.748        0.414       44.419       47.764        1.156      338.959       11.965      866.378
03/09/2014  06:39:00       65.697       -1.486       43.217       58.869       66.879       49.555     3465.544     4472.835     2455.743        0.829        0.520       65.714       50.731        0.596      339.002       12.038      866.372
03/09/2014  06:40:00       -7.539       55.047       76.925       29.755       38.424       21.431      885.380     1476.436      459.301        0.591        0.141       55.561       22.286        0.161      339.019       12.068      866.362
03/09/2014  06:41:00       10.275      -11.085       12.820       43.238       29.897       21.987     1869.528      893.840      483.429        0.182        0.162       15.115       16.204        1.149      339.102       12.205      866.369
03/09/2014  06:42:00       73.220      -35.384       29.194       65.326       71.149       42.136     4267.539     5062.209     1775.403        0.928        0.555       81.322       51.898        0.407      339.169       12.318      866.355
03/09/2014  06:43:00      -16.085      -22.270       31.719       29.677       40.796       27.839      880.743     1664.324      775.008        0.254        0.166       27.472       19.988        0.529      339.145       12.277      866.340
03/09/2014  06:44:00        0.713       46.577       90.395       41.522       52.961       40.381     1724.118     2804.920     1630.646        0.825        0.308       46.582       37.538        0.649      339.143       12.274      866.314
03/09/2014  06:45:00        3.042       27.754       72.778       33.060       44.265       29.093     1092.939     1959.417      846.415        0.499        0.195       27.920       15.166        0.295      339.175       12.328      866.301
03/09/2014  06:46:00       22.628      -32.351       31.288       51.170       62.557       46.200     2618.364     3913.345     2134.449        0.560        0.433       39.479       43.982        1.241      339.216       12.395      866.309
03/09/2014  06:47:00       15.074        6.543       58.414       47.150       54.407       43.531     2223.141     2960.118     1894.991        0.538        0.354       16.433       25.208        2.353      339.214       12.394      866.298
03/09/2014  06:48:00       35.817      -63.514       32.073       47.146       51.330       47.580     2222.760     2634.743     2263.857        0.673        0.356       72.917       38.263        0.275      339.309       12.552      866.311
03/09/2014  06:49:00       44.142      -39.670       50.799       55.048      105.669       66.866     3030.320    11165.912     4471.127        1.238        0.933       59.348       73.791        1.546      339.350       12.621      866.292
03/09/2014  06:50:00       58.952     -132.362      -33.499       85.533       75.568       63.954     7315.907     5710.460     4090.123        1.961        0.856      144.896       62.993        0.189      339.385       12.681      866.273
03/09/2014  06:51:00       61.744      -25.105       41.766       77.937       86.295       75.003     6074.101     7446.857     5625.400        1.266        0.957       66.653       78.049        1.371      339.336       12.599      866.245
03/09/2014  06:52:00       22.813     -103.627       13.014       63.011       85.403       56.856     3970.377     7293.735     3232.641        1.296        0.725      106.108       53.308        0.252      339.378       12.670      866.211
03/09/2014  06:53:00       39.752      -47.355       24.625       55.687       76.982       54.322     3100.995     5926.269     2950.866        0.820        0.599       61.829       47.593        0.593      339.398       12.703      866.166
03/09/2014  06:54:00      132.307     -118.710      -17.832       80.694       96.961       56.417     6511.558     9401.518     3182.905        2.550        0.955      177.756       56.760        0.102      339.437       12.766      866.112
03/09/2014  06:55:00       48.114      -53.531       41.400       75.644       85.107       65.344     5722.009     7243.128     4269.776        1.206        0.862       71.976       63.395        0.776      339.434       12.764      866.050
03/09/2014  06:56:00       -0.198      -77.528       -6.361       33.533       64.975       49.982     1124.490     4221.807     2498.228        0.695        0.392       77.528       37.104        0.229      339.410       12.728      866.034
03/09/2014  06:57:00       14.113      -78.046       -9.240       47.664       58.239       39.547     2271.871     3391.828     1563.987        0.680        0.361       79.312       39.078        0.243      339.534       12.934      866.055
03/09/2014  06:58:00        5.049      -16.449       15.609       37.002       45.121       33.834     1369.122     2035.930     1144.770        0.254        0.227       17.207       27.156        2.491      339.506       12.886      866.078
03/09/2014  06:59:00       -4.789      -51.959        7.415       57.166       52.445       29.412     3267.958     2750.489      865.056        0.483        0.344       52.179       33.296        0.407      339.547       12.954      866.104
03/09/2014  07:00:00      -20.868      -47.998       -3.743       30.908       34.164       22.741      955.304     1167.148      517.154        0.270        0.132       52.338       19.368        0.137      339.573       12.998      866.140
03/09/2014  07:01:00      -33.956      -86.470        4.804       48.327       69.015       36.484     2335.481     4763.045     1331.100        0.854        0.421       92.898       36.022        0.150      339.651       13.131      866.155
03/09/2014  07:02:00      -23.524      -45.106        4.503       37.069       39.482       22.359     1374.130     1558.810      499.917        0.302        0.172       50.871       20.677        0.165      339.593       13.033      866.166
03/09/2014  07:03:00        0.800      -11.226       10.662       27.354       33.885       19.347      748.241     1148.211      374.324        0.126        0.114       11.255       17.951        2.544      339.540       12.943      866.159
03/09/2014  07:04:00        7.783      -85.001       -9.676       48.679       41.418       34.047     2369.603     1715.420     1159.192        0.631        0.262       85.357       30.310        0.126      339.654       13.137      866.156
03/09/2014  07:05:00      -37.608      -66.142        2.307       43.149       46.011       29.628     1861.864     2117.045      877.790        0.532        0.243       76.086       24.359        0.102      339.603       13.048      866.144
03/09/2014  07:06:00      -57.816      -54.687        2.285       50.898       35.254       20.959     2590.566     1242.826      439.280        0.530        0.214       79.582       22.726        0.082      339.489       12.856      866.133
03/09/2014  07:07:00      -30.239      -60.238        8.528       50.118       45.997       21.289     2511.861     2115.706      453.226        0.485        0.254       67.402       16.590        0.061      339.533       12.932      866.123
03/09/2014  07:08:00       -5.725      -29.159       15.854       35.217       39.778       22.546     1240.238     1582.275      508.308        0.223        0.167       29.716        8.882        0.089      339.516       12.903      866.107
03/09/2014  07:09:00        5.377      -84.354      -17.622       56.958       59.900       32.614     3244.239     3588.011     1063.688        0.767        0.395       84.525       24.430        0.084      339.582       13.013      866.102
03/09/2014  07:10:00        6.505      -77.247       -7.222       49.919       59.752       27.235     2491.874     3570.276      741.726        0.643        0.340       77.520       21.234        0.075      339.649       13.125      866.105
03/09/2014  07:11:00       96.917     -121.324       -3.407       80.361       77.131       45.584     6457.946     5949.196     2077.915        1.930        0.724      155.281       50.717        0.107      339.631       13.097      866.075
03/09/2014  07:12:00       67.187      -34.008       34.643       74.525       69.882       42.123     5553.995     4883.540     1774.361        0.954        0.611       75.303       47.987        0.406      339.544       12.948      866.033
03/09/2014  07:13:00       13.074      -16.052       41.693       26.838       42.071       24.856      720.289     1769.958      617.810        0.264        0.155       20.703       19.543        0.891      339.533       12.933      866.023
03/09/2014  07:14:00      -22.580      -30.302       48.488       34.808       53.589       33.320     1211.623     2871.737     1110.206        0.449        0.260       37.789       21.486        0.323      339.509       12.891      866.004
03/09/2014  07:15:00       -4.329      -45.043       14.377       59.045       44.795       30.301     3486.341     2006.552      918.158        0.433        0.321       45.250       33.010        0.532      339.456       12.803      865.997
03/09/2014  07:16:00       53.245      -71.019      -10.484       42.672       54.990       37.476     1820.936     3023.920     1404.419        0.712        0.312       88.762       33.535        0.143      339.461       12.811      865.996
03/09/2014  07:17:00      120.993     -125.313      -10.688       70.710       79.039       46.273     4999.837     6247.115     2141.220        2.192        0.669      174.191       42.256        0.059      339.409       12.722      865.982
03/09/2014  07:18:00       96.756      -46.851       21.319       73.792       78.525       46.692     5445.224     6166.147     2180.172        1.290        0.690      107.502       53.977        0.252      339.368       12.653      865.956
03/09/2014  07:19:00       26.772       11.646       50.086       42.972       59.578       43.202     1846.608     3549.529     1866.447        0.531        0.363       29.195       43.252        2.195      339.361       12.642      865.918
03/09/2014  07:20:00        0.927       27.489       86.322       35.992       54.793       34.150     1295.452     3002.261     1166.238        0.683        0.273       27.505       34.349        1.560      339.342       12.610      865.881
03/09/2014  07:21:00        2.217      -54.546       26.794       39.367       79.399       50.653     1549.788     6304.141     2565.688        0.706        0.521       54.592       54.715        1.005      339.362       12.642      865.882
03/09/2014  07:22:00       48.582      -83.956       21.358       50.722       55.469       42.909     2572.751     3076.795     1841.209        0.868        0.375       96.999       31.227        0.104      339.344       12.611      865.893
03/09/2014  07:23:00      115.039     -148.752       -0.646       94.546       82.632       50.764     8939.020     6827.994     2577.011        2.685        0.917      188.046       58.952        0.098      339.379       12.669      865.921
03/09/2014  07:24:00      106.876     -173.182      -19.975       78.142       61.570       43.528     6106.140     3790.840     1894.694        2.680        0.590      203.506       31.815        0.024      339.448       12.786      865.938
03/09/2014  07:25:00      116.669     -176.305       -3.799       69.376       73.057       58.145     4813.094     5337.373     3380.785        2.912        0.677      211.412       55.352        0.069      339.493       12.861      865.950
03/09/2014  07:26:00       19.532      -74.879       37.242       41.201       73.930       48.032     1697.486     5465.702     2307.062        0.842        0.474       77.384       45.436        0.345      339.438       12.773      865.956
03/09/2014  07:27:00       68.112     -105.019       -4.377       76.833       72.926       38.776     5903.340     5318.224     1503.582        1.420        0.636      125.173       38.110        0.093      339.572       12.994      865.971
03/09/2014  07:28:00       91.827     -106.186       14.147       66.447       84.553       42.244     4415.222     7149.150     1784.554        1.663        0.667      140.384       35.166        0.063      339.485       12.849      865.970
03/09/2014  07:29:00       50.429      -71.639       29.031       58.996       62.469       50.257     3480.512     3902.404     2525.758        0.921        0.495       87.609       49.682        0.322      339.430       12.759      865.966
03/09/2014  07:30:00      -12.145      -40.298       16.348       47.354       57.511       38.024     2242.429     3307.508     1445.814        0.452        0.350       42.088       33.776        0.644      339.479       12.840      865.946
03/09/2014  07:31:00       30.131      -38.970       23.033       56.932       72.617       45.941     3241.284     5273.188     2110.552        0.679        0.531       49.260       53.839        1.195      339.458       12.806      865.930
03/09/2014  07:32:00       38.548      -89.806       12.105       50.744       70.044       42.893     2575.001     4906.175     1839.843        0.951        0.466       97.730       43.358        0.197      339.561       12.978      865.937
03/09/2014  07:33:00       25.441      -41.358       12.193       43.660       60.065       36.807     1906.210     3607.846     1354.725        0.469        0.343       48.557       36.060        0.552      339.463       12.814      865.952
03/09/2014  07:34:00      -11.051      -54.645        3.521       51.863       42.859       28.699     2689.778     1836.875      823.640        0.423        0.268       55.751       21.148        0.144      339.509       12.891      865.957
03/09/2014  07:35:00       47.526      -95.060        4.554       68.186       57.497       40.257     4649.384     3305.924     1620.615        1.044        0.479      106.278       28.149        0.070      339.576       13.002      865.935
03/09/2014  07:36:00       81.344     -110.130       -9.420       41.983       50.512       30.048     1762.601     2551.499      902.875        1.202        0.261      136.914       29.494        0.046      339.642       13.115      865.907
03/09/2014  07:37:00        3.809      -84.465       -0.374       47.024       54.251       34.916     2211.232     2943.139     1219.117        0.676        0.319       84.551       25.628        0.092      339.658       13.144      865.890
03/09/2014  07:38:00      -22.636      -18.157        8.721       43.391       47.524       21.301     1882.777     2258.503      453.734        0.276        0.230       29.018       22.838        0.619      339.624       13.085      865.875
03/09/2014  07:39:00      -66.351      -48.068        4.533       56.874       37.794       30.132     3234.622     1428.410      907.911        0.615        0.279       81.933       31.259        0.146      339.566       12.987      865.864
03/09/2014  07:40:00      -59.731      -82.096        1.469       48.919       45.636       32.784     2393.056     2082.651     1074.780        0.793        0.278      101.526       22.491        0.049      339.634       13.103      865.871
03/09/2014  07:41:00     -114.624     -124.561       -2.702       64.984       49.595       34.695     4222.872     2459.645     1203.715        1.827        0.394      169.275       29.074        0.030      339.466       12.819      865.880
03/09/2014  07:42:00      -66.095     -140.652       -8.591       53.138       59.340       22.619     2823.666     3521.231      511.625        1.554        0.343      155.407       22.773        0.021      339.501       12.876      865.886
03/09/2014  07:43:00      -62.661     -138.235       -8.778       53.886       43.746       27.313     2903.699     1913.702      745.980        1.434        0.278      151.774       25.411        0.028      339.577       13.004      865.882
03/09/2014  07:44:00      -48.038      -63.941       -2.075       39.286       41.245       25.587     1543.402     1701.170      654.694        0.515        0.195       79.975       21.670        0.073      339.630       13.096      865.850
03/09/2014  07:45:00      -76.925      -98.090       -2.708       42.324       49.374       19.799     1791.308     2437.761      392.018        1.008        0.231      124.656       19.919        0.026      339.524       12.915      865.828
03/09/2014  07:46:00      -83.123      -69.185        7.715       49.727       49.338       27.071     2472.800     2434.207      732.858        0.870        0.282      108.148       29.219        0.073      339.556       12.969      865.807
03/09/2014  07:47:00      -23.695      -55.382        3.404       18.139       26.818       13.938      329.012      719.219      194.278        0.244        0.062       60.238        5.452        0.008      339.691       13.199      865.800
03/09/2014  07:48:00        3.677       18.905        8.119       18.714       19.723       15.928      350.219      389.011      253.690        0.071        0.050       19.259       11.386        0.350      339.524       12.914      865.806
03/09/2014  07:49:00       24.399       10.746        3.657       30.072       33.498       20.394      904.343     1122.106      415.935        0.158        0.122       26.660       13.505        0.257      339.192       12.357      865.835
03/09/2014  07:50:00       36.622       36.412       -1.101       19.370       28.204       17.261      375.194      795.485      297.937        0.207        0.073       51.643       15.915        0.095      338.798       11.695      865.861
03/09/2014  07:51:00       30.112       31.137        5.885       15.387       16.899       14.017      236.772      285.563      196.487        0.131        0.036       43.315        4.684        0.012      338.716       11.556      865.879
03/09/2014  07:52:00       45.469       50.784       -7.861       21.350       17.257       12.193      455.842      297.814      148.659        0.281        0.045       68.165        7.138        0.011      338.605       11.369      865.893
03/09/2014  07:53:00       22.444       46.350       -4.550       15.788       22.349       16.893      249.255      499.496      285.363        0.185        0.052       51.498       15.969        0.096      338.582       11.332      865.903
03/09/2014  07:54:00       25.783       62.599      -10.125       12.665       21.553       13.368      160.390      464.527      178.702        0.274        0.040       67.701       14.340        0.045      338.592       11.349      865.912
03/09/2014  07:55:00       29.936       53.760      -12.782       11.440       13.513        7.512      130.881      182.607       56.432        0.216        0.018       61.533        4.465        0.005      338.632       11.415      865.908
03/09/2014  07:56:00       24.351       27.527       -2.308       16.643       16.852       14.314      276.983      283.986      204.884        0.106        0.038       36.751       11.718        0.102      338.639       11.426      865.895
03/09/2014  07:57:00       12.980       21.882       -3.573       10.641       11.931        9.687      113.234      142.359       93.838        0.050        0.017       25.442        7.125        0.078      338.657       11.457      865.877
03/09/2014  07:58:00       12.865       18.221       -1.175       10.526        7.259        5.361      110.802       52.695       28.745        0.035        0.010       22.306        3.705        0.028      338.700       11.527      865.843
03/09/2014  07:59:00      -16.770       21.505       -1.924       12.341       13.207        7.351      152.303      174.429       54.043        0.056        0.019       27.271        7.279        0.071      338.725       11.571      865.812
03/09/2014  08:00:00      -27.966       21.585       -5.674        9.842       19.683        7.766       96.857      387.430       60.314        0.091        0.027       35.327        7.254        0.042      338.776       11.656      865.797
03/09/2014  08:01:00       -6.945       21.916        1.223        7.820       15.138        8.262       61.151      229.151       68.255        0.044        0.018       22.990        5.532        0.058      338.782       11.667      865.797
03/09/2014  08:02:00       -8.541       -7.354        0.758        9.536        9.953        5.231       90.934       99.054       27.362        0.017        0.011       11.271        3.309        0.086      338.846       11.775      865.813
03/09/2014  08:03:00      -38.708      -50.085       -7.576       35.173       24.837       13.560     1237.140      616.888      183.885        0.305        0.102       63.299       18.068        0.081      339.044       12.108      865.833
03/09/2014  08:04:00      -76.671      -27.214       -7.706       17.700       21.295       11.773      313.299      453.479      138.607        0.379        0.045       81.357        7.509        0.009      339.048       12.116      865.851
03/09/2014  08:05:00      -21.856      -40.893        7.483       24.858       21.918       17.273      617.934      480.386      298.371        0.180        0.070       46.367       13.439        0.084      338.986       12.010      865.881
03/09/2014  08:06:00        1.098      -36.232        1.286       26.916       30.062       18.138      724.483      903.698      328.981        0.164        0.098       36.248       11.856        0.107      338.953       11.955      865.917
03/09/2014  08:07:00       26.800       28.137       18.160       20.758        8.113       14.224      430.877       65.824      202.326        0.127        0.035       38.858        4.785        0.015      338.643       11.434      865.938
03/09/2014  08:08:00       17.565       10.281        1.283       15.940       11.865        8.557      254.084      140.767       73.214        0.044        0.023       20.352        7.498        0.136      338.572       11.314      865.958
03/09/2014  08:09:00       16.824        8.120       10.857       14.384       20.304        9.998      206.896      412.249       99.957        0.059        0.036       18.680        9.622        0.265      338.533       11.247      865.965
03/09/2014  08:10:00      -10.964      -41.634       -2.519       25.227       43.411       11.015      636.425     1884.475      121.330        0.225        0.132       43.054       14.682        0.116      338.733       11.583      865.970
03/09/2014  08:11:00      -64.666      -93.604       -3.822       24.759       38.985       18.042      612.990     1519.836      325.520        0.771        0.123      113.769       21.463        0.036      339.062       12.139      865.965
03/09/2014  08:12:00      -65.616      -90.721      -16.225       27.798       46.509       19.697      772.704     2163.091      387.975        0.806        0.166      111.963       12.236        0.012      339.070       12.152      865.967
03/09/2014  08:13:00       -1.925      -44.032        5.067       26.063       29.574       17.467      679.265      874.625      305.088        0.191        0.093       44.074       13.773        0.098      339.075       12.159      865.973
03/09/2014  08:14:00      -25.347      -67.248        6.727       30.586       39.277       19.437      935.508     1542.655      377.815        0.403        0.143       71.866       17.738        0.061      339.092       12.188      865.990
03/09/2014  08:15:00       -1.889       -1.418       19.352       45.634       28.955       18.213     2082.475      838.416      331.717        0.182        0.163        2.362       15.595       43.588      339.002       12.036      866.005
03/09/2014  08:16:00      -41.583      -44.140        3.147       22.887       26.908       18.414      523.800      724.028      339.089        0.264        0.079       60.642       15.428        0.065      339.185       12.346      866.023
03/09/2014  08:17:00       -0.286        5.807       19.567       24.284       12.810       16.496      589.706      164.108      272.129        0.072        0.051        5.814       15.169        6.807      339.087       12.179      866.039
03/09/2014  08:18:00        5.801       12.733        3.961       28.607       30.822       29.132      818.388      949.994      848.684        0.141        0.131       13.993       19.944        2.031      339.096       12.195      866.069
03/09/2014  08:19:00       68.794       49.420       25.255       56.485       43.275       36.695     3190.502     1872.705     1346.492        0.711        0.320       84.705       24.458        0.083      338.898       11.863      866.098
03/09/2014  08:20:00       98.469       70.920       47.192       89.902       48.192       57.161     8082.403     2322.490     3267.359        1.531        0.684      121.350       62.895        0.269      338.499       11.192      866.113
03/09/2014  08:21:00      110.349       56.786       28.067       50.893       41.557       36.646     2590.089     1726.991     1342.918        1.092        0.283      124.103       25.009        0.041      338.410       11.043      866.121
03/09/2014  08:22:00      143.565       55.639       19.803       51.025       35.541       32.534     2603.506     1263.184     1058.432        1.451        0.246      153.969       21.955        0.020      338.381       10.994      866.118
03/09/2014  08:23:00      140.501      102.119       42.062       61.959       45.000       46.936     3838.937     2025.024     2202.981        2.000        0.403      173.692       41.543        0.057      338.375       10.983      866.139
03/09/2014  08:24:00      166.748      102.870       38.613       72.327       54.380       51.959     5231.246     2957.213     2699.696        2.538        0.544      195.926       51.727        0.070      338.345       10.930      866.171
03/09/2014  08:25:00      146.126       69.177       26.789       65.547       63.065       45.638     4296.428     3977.135     2082.788        1.860        0.518      161.674       27.844        0.030      338.386       11.001      866.194
03/09/2014  08:26:00       91.288       61.544       16.710       40.868       37.373       30.561     1670.224     1396.712      933.945        0.820        0.200      110.096        9.775        0.008      338.396       11.018      866.221
03/09/2014  08:27:00      110.996       46.086        8.411       35.740       31.870       29.466     1277.366     1015.697      868.260        0.884        0.158      120.183       21.931        0.033      338.402       11.027      866.230
03/09/2014  08:28:00       80.805       20.345       42.493       63.797       43.529       41.618     4070.011     1894.756     1732.058        0.822        0.385       83.327       29.874        0.129      338.472       11.147      866.215
03/09/2014  08:29:00      132.124       77.081       30.800       58.008       40.563       44.126     3364.890     1645.368     1947.144        1.565        0.348      152.964       29.970        0.038      338.442       11.096      866.195
03/09/2014  08:30:00      131.693       93.737       24.846       51.445       38.635       37.877     2646.542     1492.650     1434.666        1.616        0.279      161.647       32.467        0.040      338.422       11.062      866.175
03/09/2014  08:31:00      106.100       68.822       38.634       45.389       40.810       37.516     2060.171     1665.483     1407.420        1.131        0.257      126.466       26.023        0.042      338.453       11.114      866.159
03/09/2014  08:32:00      125.104       72.099       32.585       68.611       45.133       40.571     4707.502     2037.008     1646.006        1.515        0.420      144.393       31.592        0.048      338.537       11.257      866.149
03/09/2014  08:33:00       73.600       58.390       43.900       46.380       35.131       33.501     2151.106     1234.178     1122.337        0.763        0.225       93.949       24.277        0.067      338.641       11.431      866.146
03/09/2014  08:34:00        6.143       36.085       56.259       30.544       36.362       37.632      932.931     1322.202     1416.138        0.409        0.184       36.605       29.177        0.635      338.666       11.473      866.165
03/09/2014  08:35:00       28.325       20.106       57.886       58.739       35.089       37.675     3450.255     1231.264     1419.423        0.533        0.305       34.736       42.105        1.469      338.651       11.447      866.191
03/09/2014  08:36:00       54.202       35.273       69.983       60.755       49.750       38.754     3691.230     2475.073     1501.895        0.837        0.383       64.668       34.027        0.277      338.583       11.334      866.222
03/09/2014  08:37:00       77.045       15.807       38.035       62.891       60.379       46.528     3955.321     3645.643     2164.864        0.870        0.488       78.650       50.031        0.405      338.549       11.276      866.231
03/09/2014  08:38:00       57.202        9.542       43.431       31.668       41.260       26.106     1002.859     1702.397      681.507        0.432        0.169       57.993       10.213        0.031      338.556       11.287      866.231
03/09/2014  08:39:00       56.127       32.587       36.121       33.075       32.679       23.684     1093.949     1067.887      560.940        0.412        0.136       64.901       18.186        0.079      338.591       11.346      866.206
03/09/2014  08:40:00       67.090       29.856       23.187       54.833       30.041       31.316     3006.625      902.458      980.693        0.541        0.244       73.434       32.395        0.195      338.599       11.360      866.203
03/09/2014  08:41:00       50.582       22.073       31.571       41.161       22.050       28.691     1694.252      486.181      823.176        0.352        0.150       55.188       21.892        0.157      338.650       11.446      866.208
03/09/2014  08:42:00       56.014       31.779       42.896       40.200       28.748       27.650     1616.019      826.469      764.543        0.460        0.160       64.401       21.411        0.111      338.640       11.428      866.218
03/09/2014  08:43:00       64.851       22.611       49.214       47.856       31.031       27.042     2290.204      962.928      731.285        0.556        0.199       68.680       24.183        0.124      338.641       11.430      866.228
03/09/2014  08:44:00       50.904       32.166       33.874       39.099       34.950       31.917     1528.762     1221.514     1018.719        0.427        0.188       60.215       31.142        0.267      338.654       11.451      866.241
03/09/2014  08:45:00       33.886       22.805       28.744       42.801       39.894       23.701     1831.891     1591.542      561.716        0.324        0.199       40.845       28.141        0.475      338.721       11.564      866.251
03/09/2014  08:46:00       30.086       41.614       30.795       13.761       17.312       15.947      189.364      299.699      254.312        0.216        0.037       51.351        8.415        0.027      338.702       11.533      866.258
03/09/2014  08:47:00       38.000       19.174        3.866       24.598       19.340       13.655      605.076      374.053      186.468        0.150        0.058       42.563        7.880        0.034      338.724       11.573      866.255
03/09/2014  08:48:00       25.814       28.395       -3.828       27.287       20.977       11.484      744.579      440.014      131.889        0.140        0.066       38.375       10.334        0.073      338.703       11.534      866.257
03/09/2014  08:49:00      -26.062       44.284      -11.474       25.576       22.148        9.842      654.110      490.551       96.857        0.201        0.062       51.384        8.874        0.030      338.719       11.563      866.256
03/09/2014  08:50:00      -60.705        8.852       -7.063       23.641       20.150       12.844      558.887      406.019      164.976        0.247        0.056       61.347       10.254        0.028      338.751       11.616      866.261
03/09/2014  08:51:00      -94.286      -17.199      -11.420       27.236       26.713       16.223      741.818      713.604      263.195        0.552        0.086       95.842       14.387        0.023      338.785       11.673      866.270
03/09/2014  08:52:00      -99.605       -7.299       -8.563       34.811       37.267       21.858     1211.787     1388.799      477.769        0.656        0.154       99.872       17.890        0.032      338.818       11.728      866.279
03/09/2014  08:53:00     -127.453      -64.853      -12.530       38.010       27.554       19.652     1444.724      759.219      386.182        1.160        0.130      143.004       18.586        0.017      338.858       11.794      866.288
03/09/2014  08:54:00     -105.180      -18.174      -12.828       30.899       24.073       16.906      954.719      579.532      285.816        0.669        0.091      106.739        7.018        0.004      338.851       11.782      866.288
03/09/2014  08:55:00      -58.013       -8.214       -9.959       16.195       13.950       12.790      262.270      194.605      163.583        0.208        0.031       58.591        3.498        0.004      338.824       11.736      866.308
03/09/2014  08:56:00      -42.949        7.606       -7.955       12.812        5.938        6.945      164.156       35.257       48.229        0.111        0.012       43.618        3.682        0.007      338.831       11.747      866.331
03/09/2014  08:57:00      -64.786       30.720      -13.704       17.153       15.922       13.535      294.212      253.498      183.184        0.303        0.037       71.700       10.893        0.023      338.893       11.854      866.342
03/09/2014  08:58:00      -55.524       63.773      -16.465       15.316       20.495       13.321      234.576      420.050      177.453        0.413        0.042       84.557        8.684        0.011      338.908       11.878      866.359
03/09/2014  08:59:00      -65.659       47.441      -13.747       24.434       30.640       17.741      597.000      938.834      314.734        0.430        0.093       81.005       22.400        0.076      338.906       11.875      866.386
03/09/2014  09:00:00      -39.904       36.881      -15.835       16.388       18.316       12.372      268.554      335.481      153.068        0.198        0.038       54.338        8.615        0.025      338.913       11.887      866.394
03/09/2014  09:01:00      -58.723       27.057       -7.196       11.978       13.719        9.091      143.464      188.217       82.641        0.232        0.021       64.657        2.934        0.002      338.957       11.960      866.400
03/09/2014  09:02:00      -34.747        3.851       -6.216       13.645       27.102       10.932      186.182      734.503      119.518        0.115        0.052       34.960       12.023        0.118      338.973       11.988      866.408
03/09/2014  09:03:00      -62.387       -2.412       -7.619       14.558       10.819        8.881      211.936      117.049       78.875        0.218        0.020       62.434        5.839        0.009      338.957       11.963      866.405
03/09/2014  09:04:00      -40.770       -6.594       -6.314       13.194        7.914       10.975      174.076       62.630      120.445        0.105        0.018       41.299        8.294        0.040      338.973       11.987      866.414
03/09/2014  09:05:00      -51.559       -4.990       -0.609       31.948       18.378       11.727     1020.665      337.744      137.520        0.209        0.075       51.800       11.399        0.048      339.001       12.036      866.424
03/09/2014  09:06:00      -62.141       -6.772       -8.483       19.402       17.306       11.429      376.430      299.491      130.629        0.239        0.040       62.509        8.548        0.019      338.986       12.014      866.422
03/09/2014  09:07:00      -72.773       31.267      -17.570       11.214       16.864       13.183      125.744      284.397      173.788        0.358        0.029       79.206        8.066        0.010      339.004       12.040      866.425
03/09/2014  09:08:00      -80.240       23.050      -12.063       17.279       10.798        9.425      298.569      116.592       88.829        0.381        0.025       83.485        4.876        0.003      339.010       12.052      866.427
03/09/2014  09:09:00     -115.103       28.465      -11.943       20.200       11.619        8.379      408.024      135.003       70.208        0.741        0.031      118.570        3.119        0.001      338.994       12.028      866.431
03/09/2014  09:10:00     -135.141       -3.159      -18.103       19.193       17.776       11.115      368.386      315.982      123.542        0.970        0.040      135.178       11.316        0.007      339.017       12.065      866.425
03/09/2014  09:11:00     -142.593       20.639      -11.936       32.889       22.939       19.050     1081.662      526.212      362.897        1.144        0.099      144.079       18.745        0.017      339.013       12.057      866.430
03/09/2014  09:12:00     -124.823       23.101      -12.741       27.393       25.232       17.372      750.369      636.675      301.789        0.898        0.084      126.943       15.406        0.015      339.026       12.078      866.431
03/09/2014  09:13:00      -81.850       24.172      -14.413       17.431       22.889       12.974      303.826      523.896      168.319        0.424        0.050       85.345        8.318        0.009      339.036       12.094      866.416
03/09/2014  09:14:00      -27.858       14.051       -8.372       29.111       21.675       13.060      847.448      469.801      170.555        0.127        0.074       31.201       10.695        0.118      339.141       12.270      866.398
03/09/2014  09:15:00       30.843       18.813       22.826       17.160       19.622       17.091      294.451      385.015      292.085        0.140        0.049       36.128       11.508        0.101      339.207       12.381      866.386
03/09/2014  09:16:00       38.632       19.821       -2.134       12.366       10.796        9.020      152.915      116.564       81.359        0.112        0.018       43.420        6.018        0.019      339.129       12.251      866.380
03/09/2014  09:17:00       28.914       27.003       11.772       17.968       12.799       19.935      322.846      163.805      397.390        0.129        0.044       39.562       12.485        0.100      339.166       12.313      866.400
03/09/2014  09:18:00       30.824       24.593       21.870       19.887       11.763       13.689      395.499      138.365      187.394        0.138        0.036       39.432       14.233        0.130      339.204       12.378      866.433
03/09/2014  09:19:00        8.154        8.768       15.210       13.863       12.276        9.078      192.170      150.704       82.406        0.040        0.021       11.974        5.419        0.205      339.316       12.565      866.452
03/09/2014  09:20:00       15.871       14.027       -4.598        4.940        8.045        5.173       24.400       64.717       26.755        0.029        0.006       21.181        3.311        0.024      339.222       12.409      866.462
03/09/2014  09:21:00       37.508       19.630       -1.145        9.422        5.955        5.402       88.766       35.462       29.180        0.097        0.008       42.334        5.788        0.019      339.225       12.412      866.449
03/09/2014  09:22:00       22.272       13.531        7.969       16.197       15.674       16.850      262.347      245.662      283.911        0.077        0.040       26.060       14.274        0.300      339.295       12.530      866.413
03/09/2014  09:23:00       15.044        8.136        0.497        9.376        8.064        9.427       87.915       65.024       88.877        0.027        0.012       17.103        4.835        0.080      339.286       12.516      866.377
03/09/2014  09:24:00        8.103        5.001       -2.542        6.541       10.339        4.483       42.782      106.893       20.096        0.013        0.008        9.522        4.686        0.242      339.271       12.491      866.377
03/09/2014  09:25:00       50.736       50.163       21.865       21.183       16.890       22.981      448.713      285.266      528.135        0.342        0.063       71.348       22.106        0.096      339.282       12.508      866.382
03/09/2014  09:26:00       32.666       65.531       66.638       31.798       21.715       18.639     1011.098      471.535      347.402        0.582        0.092       73.221       18.515        0.064      339.366       12.650      866.360
03/09/2014  09:27:00       52.707       63.665       58.442       47.133       27.110       28.557     2221.520      734.971      815.486        0.701        0.189       82.651       30.663        0.138      339.361       12.641      866.364
03/09/2014  09:28:00       47.517       34.174       23.030       30.925       23.812       28.577      956.344      566.995      816.649        0.315        0.117       58.529       18.272        0.097      339.350       12.622      866.375
03/09/2014  09:29:00       50.578       24.906       23.494       23.047       26.487       18.815      531.173      701.583      354.014        0.266        0.079       56.378       13.074        0.054      339.363       12.645      866.396
03/09/2014  09:30:00       35.024       -1.868       17.143       25.462       18.567       15.594      648.336      344.738      243.167        0.138        0.062       35.074       15.737        0.201      339.422       12.745      866.448
03/09/2014  09:31:00       79.270      -95.587      -12.543       44.658       37.185       25.679     1994.347     1382.755      659.426        0.981        0.202      124.180       29.537        0.057      339.402       12.710      866.489
03/09/2014  09:32:00       28.508      -22.227       19.442       44.994       48.558       33.603     2024.455     2357.837     1129.153        0.360        0.276       36.149       37.861        1.097      339.447       12.788      866.492
03/09/2014  09:33:00       10.922       -0.244       51.260       21.030       26.836       22.214      442.253      720.164      493.482        0.220        0.083       10.925       12.971        1.410      339.519       12.907      866.497
03/09/2014  09:34:00       14.428       37.535       65.904       33.954       36.436       22.539     1152.873     1327.568      508.001        0.447        0.149       40.213       18.363        0.209      339.418       12.738      866.494
03/09/2014  09:35:00       38.176       62.833       87.663       41.221       48.008       23.713     1699.186     2304.730      562.299        0.883        0.228       73.521       28.612        0.151      339.378       12.670      866.461
03/09/2014  09:36:00       31.935        2.480       49.351       33.267       37.520       32.693     1106.669     1407.729     1068.818        0.352        0.179       32.031       27.609        0.743      339.401       12.711      866.454
03/09/2014  09:37:00       23.873      -18.885       34.786       35.693       60.525       41.578     1274.013     3663.241     1728.750        0.440        0.333       30.439       42.373        1.938      339.409       12.723      866.454
03/09/2014  09:38:00       41.141       17.021       52.990       39.865       35.228       34.510     1589.187     1240.986     1190.961        0.440        0.201       44.523       18.987        0.182      339.379       12.673      866.454
03/09/2014  09:39:00       42.004       39.163       81.415       47.587       35.865       35.425     2264.553     1286.330     1254.963        0.737        0.240       57.429       29.543        0.265      339.380       12.674      866.434
03/09/2014  09:40:00        8.277       23.536       55.571       36.404       50.507       43.977     1325.246     2550.920     1933.972        0.476        0.291       24.950       29.334        1.382      339.418       12.740      866.424
03/09/2014  09:41:00       41.270      -27.752       34.378       43.568       33.845       37.756     1898.148     1145.469     1425.540        0.406        0.223       49.733       27.547        0.307      339.475       12.833      866.447
03/09/2014  09:42:00       86.160      -97.004        2.177       28.019       42.110       31.804      785.065     1773.283     1011.503        1.020        0.178      129.743       20.910        0.026      339.436       12.768      866.473
03/09/2014  09:43:00      129.916     -133.253      -27.866       38.784       35.433       24.374     1504.236     1255.463      594.080        1.938        0.168      186.104       17.078        0.008      339.416       12.734      866.497
03/09/2014  09:44:00       58.674      -51.756        7.455       66.769       69.273       55.903     4458.117     4798.704     3125.187        0.928        0.619       78.239       51.586        0.435      339.494       12.863      866.484
03/09/2014  09:45:00        6.228      -14.206       40.584       44.868       64.241       46.200     2013.161     4126.924     2134.404        0.508        0.414       15.511       35.330        5.188      339.504       12.881      866.489
03/09/2014  09:46:00       37.519       -8.443       43.369       43.602       51.446       45.657     1901.142     2646.728     2084.557        0.499        0.332       38.458       43.705        1.292      339.470       12.825      866.482
03/09/2014  09:47:00       38.782      -16.333       68.666       48.101       80.854       57.701     2313.689     6537.322     3329.438        0.933        0.609       42.081       56.330        1.792      339.416       12.734      866.453
03/09/2014  09:48:00       49.117      -10.044       45.802       51.449       94.074       77.253     2646.962     8849.841     5968.081        1.103        0.873       50.133       69.218        1.906      339.355       12.630      866.427
03/09/2014  09:49:00      152.068     -152.033      -33.024       59.701       49.561       35.977     3564.268     2456.304     1294.309        2.732        0.366      215.032       32.247        0.022      339.305       12.544      866.417
03/09/2014  09:50:00       32.756       19.990       64.472       43.073       93.798       59.630     1855.291     8798.093     3555.775        0.992        0.710       38.374       65.135        2.881      339.374       12.664      866.412
03/09/2014  09:51:00       14.960       48.792       69.423       33.116       38.522       25.075     1096.702     1483.908      628.781        0.532        0.160       51.035       24.567        0.232      339.354       12.630      866.408
03/09/2014  09:52:00       61.173      -24.435       26.757       58.861       60.141       38.604     3464.647     3616.999     1490.288        0.681        0.429       65.873       47.777        0.526      339.372       12.659      866.415
03/09/2014  09:53:00      118.236     -122.431      -17.886       64.094       49.418       32.178     4107.996     2442.140     1035.414        1.844        0.379      170.203       31.734        0.035      339.351       12.624      866.414
03/09/2014  09:54:00       86.948      -66.533        7.605       35.315       54.179       35.553     1247.135     2935.345     1263.988        0.874        0.272      109.483       33.526        0.094      339.357       12.634      866.393
03/09/2014  09:55:00       46.470       21.927        0.583       19.132       28.751       24.124      366.046      826.595      581.983        0.221        0.089       51.383       15.802        0.095      339.352       12.627      866.387
03/09/2014  09:56:00        2.774        3.659       13.548       26.304       27.208       12.223      691.926      740.290      149.401        0.089        0.079        4.592        8.837        3.704      339.418       12.737      866.404
03/09/2014  09:57:00      -54.747      -32.913        6.869       49.413       28.858       19.409     2441.630      832.768      376.713        0.389        0.183       63.878       14.216        0.050      339.541       12.945      866.433
03/09/2014  09:58:00       14.698        1.234       16.519       22.848       34.048       25.718      522.048     1159.294      661.439        0.142        0.117       14.750       21.262        2.078      339.582       13.013      866.405
03/09/2014  09:59:00       -7.356       13.860       40.624       32.001       36.834       24.722     1024.054     1356.754      611.175        0.244        0.150       15.691       24.137        2.366      339.535       12.934      866.401
03/09/2014  10:00:00       -8.441        6.764       30.278       10.602       19.149       11.738      112.409      366.697      137.774        0.083        0.031       10.816        6.754        0.390      339.635       13.105      866.416
03/09/2014  10:01:00      -12.520       10.883       38.852       12.853       17.756       11.394      165.205      315.262      129.823        0.120        0.031       16.588        5.990        0.130      339.638       13.108      866.397
03/09/2014  10:02:00      -13.379      -12.397       -2.401       19.564       19.410       21.252      382.770      376.754      451.631        0.077        0.061       18.240       14.804        0.659      339.519       12.907      866.374
03/09/2014  10:03:00      -56.943      -21.013       -0.958       18.231       14.813        9.467      332.362      219.411       89.630        0.216        0.032       60.696        6.714        0.012      339.502       12.878      866.363
03/09/2014  10:04:00       21.573       37.416       24.256       28.399       32.038       29.773      806.509     1026.409      886.404        0.259        0.136       43.189       31.543        0.533      339.589       13.026      866.328
03/09/2014  10:05:00      -29.604       -2.957        1.936       22.658       28.325       24.328      513.386      802.298      591.855        0.140        0.095       29.752       16.292        0.300      339.708       13.226      866.295
03/09/2014  10:06:00      -17.523        3.938      -11.606       30.196       22.907        7.730      911.775      524.741       59.757        0.098        0.075       17.960        9.402        0.274      339.687       13.191      866.293
03/09/2014  10:07:00        3.171      -15.025       -3.001       18.718       19.197       12.099      350.376      368.516      146.384        0.055        0.043       15.356       10.511        0.468      339.836       13.444      866.302
03/09/2014  10:08:00      -37.623       -2.080       -5.089       20.925       22.315       13.922      437.841      497.962      193.824        0.129        0.056       37.680       12.520        0.110      339.886       13.527      866.311
03/09/2014  10:09:00     -105.041      -55.149       -4.993       56.006       37.123       23.286     3136.719     1378.087      542.243        0.958        0.253      118.639       13.514        0.013      339.884       13.524      866.317
03/09/2014  10:10:00      -44.093      -48.219       -9.106       59.379       41.528       35.653     3525.860     1724.599     1271.112        0.544        0.326       65.340       18.440        0.080      340.190       14.039      866.310
03/09/2014  10:11:00     -145.703     -187.821      -10.455       57.200       69.988       31.799     3271.832     4898.295     1011.182        3.290        0.459      237.710       25.582        0.012      340.111       13.901      866.305
03/09/2014  10:12:00     -113.045     -134.165       -5.396       61.384       46.091       36.497     3767.989     2124.368     1332.005        1.901        0.361      175.440       34.510        0.039      340.129       13.936      866.316
03/09/2014  10:13:00     -157.209     -172.564       -1.163      108.130       85.271       54.102    11692.039     7271.205     2927.051        3.819        1.095      233.437       56.951        0.060      340.223       14.092      866.299
03/09/2014  10:14:00     -107.669     -202.251        0.625       70.169       56.922       37.750     4923.722     3240.161     1425.083        3.104        0.479      229.124       39.685        0.030      340.240       14.123      866.274
03/09/2014  10:15:00      -55.830     -164.995       -4.704       31.715       56.249       20.314     1005.871     3163.954      412.674        1.747        0.229      174.184       19.244        0.012      340.279       14.187      866.263
03/09/2014  10:16:00      -62.468      -95.097       -1.940       35.536       29.135       22.886     1262.774      848.834      523.771        0.779        0.132      113.780       18.250        0.026      340.284       14.195      866.256
03/09/2014  10:17:00      -99.649      -76.179        1.580       41.119       36.318       21.039     1690.775     1318.998      442.628        0.959        0.173      125.432       20.248        0.026      340.287       14.203      866.267
03/09/2014  10:18:00     -143.415      -79.900       -6.212       54.688       39.313       28.804     2990.785     1545.507      829.681        1.618        0.268      164.170       25.674        0.024      340.263       14.162      866.290
03/09/2014  10:19:00      -87.536      -46.229        7.196       52.056       49.946       29.773     2709.854     2494.635      886.429        0.797        0.305       98.993       30.058        0.092      340.231       14.108      866.286
03/09/2014  10:20:00      -73.097      -30.156        2.738       54.720       36.320       24.406     2994.259     1319.146      595.642        0.558        0.245       79.073       30.004        0.144      340.233       14.111      866.286
03/09/2014  10:21:00      -90.863      -95.743       -2.530       40.376       49.003       30.916     1630.223     2401.340      955.795        1.121        0.249      131.995       20.475        0.024      340.208       14.071      866.292
03/09/2014  10:22:00      -92.097      -90.847        5.134       60.281       39.919       33.611     3633.798     1593.530     1129.674        1.156        0.318      129.364       35.085        0.074      340.197       14.050      866.291
03/09/2014  10:23:00      -14.813       24.650       37.476       33.301       33.306       33.173     1108.962     1109.321     1100.470        0.277        0.166       28.758       32.304        1.262      340.365       14.336      866.303
03/09/2014  10:24:00       -2.690       34.579       66.627       38.482       44.336       31.023     1480.847     1965.658      962.439        0.502        0.220       34.683       25.161        0.526      340.275       14.183      866.292
03/09/2014  10:25:00      124.618     -106.546        1.077      120.562      117.572       76.372    14535.104    13823.096     5832.675        3.053        1.710      163.956       97.802        0.356      339.901       13.549      866.293
03/09/2014  10:26:00      133.674      -99.434       26.425      111.543      168.054       99.086    12441.904    28242.094     9817.946        3.947        2.525      166.601      120.973        0.527      339.670       13.159      866.284
03/09/2014  10:27:00       42.275      -32.473       64.349       69.050      133.226       86.802     4767.889    17749.053     7534.571        1.851        1.503       53.307      101.247        3.607      339.658       13.140      866.321
03/09/2014  10:28:00       35.455      -28.484       50.363       69.550      126.796       84.567     4837.266    16077.302     7151.644        1.633        1.403       45.479      101.438        4.975      339.625       13.086      866.351
03/09/2014  10:29:00        2.621      -27.652       48.495       50.418       92.927       70.127     2541.958     8635.363     4917.758        0.961        0.805       27.776       66.657        5.759      339.694       13.202      866.357
03/09/2014  10:30:00      108.952     -174.973      -33.938      100.531       97.449       47.674    10106.431     9496.402     2272.837        3.275        1.094      206.122       44.543        0.047      339.475       12.830      866.338
03/09/2014  10:31:00       83.156     -105.312       -6.448       74.144      148.753       66.142     5497.281    22127.490     4374.711        2.502        1.600      134.185       82.390        0.377      339.554       12.964      866.344
03/09/2014  10:32:00       66.345      -85.008        0.899       64.288       97.033       62.283     4132.916     9415.414     3879.158        1.452        0.871      107.833       68.267        0.401      339.569       12.990      866.346
03/09/2014  10:33:00       50.765      -30.949       36.655       54.355       85.364       55.613     2954.512     7286.954     3092.763        0.910        0.667       59.455       56.217        0.894      339.617       13.072      866.318
03/09/2014  10:34:00       82.344      -48.772       28.662       92.136       85.259       47.928     8489.038     7269.016     2297.070        1.401        0.903       95.704       56.096        0.344      339.532       12.930      866.297
03/09/2014  10:35:00       92.766      -29.355       44.248       73.789       88.415       51.920     5444.783     7817.239     2695.709        1.369        0.798       97.300       65.335        0.451      339.499       12.872      866.309
03/09/2014  10:36:00       94.571     -107.168       -0.674       43.062       80.966       35.301     1854.370     6555.490     1246.196        1.504        0.483      142.929       39.128        0.075      339.519       12.907      866.319
03/09/2014  10:37:00       63.834       -4.108       54.698       55.120       42.958       33.435     3038.211     1845.352     1117.899        0.654        0.300       63.966       35.817        0.314      339.549       12.958      866.326
03/09/2014  10:38:00       61.580       -8.262       41.042       44.301       38.517       31.725     1962.546     1483.576     1006.472        0.500        0.223       62.132       31.736        0.261      339.517       12.905      866.325
03/09/2014  10:39:00       20.574       35.454       49.038       28.880       34.796       25.110      834.037     1210.771      630.524        0.338        0.134       40.991       20.136        0.241      339.565       12.986      866.322
03/09/2014  10:40:00       45.182      -27.153       44.634       47.775       61.388       44.758     2282.451     3768.437     2003.314        0.641        0.403       52.713       42.737        0.657      339.581       13.012      866.326
03/09/2014  10:41:00       48.188       99.476       92.989       36.427       33.416       22.189     1326.921     1116.626      492.362        1.190        0.147      110.533        8.505        0.006      339.472       12.827      866.339
03/09/2014  10:42:00       48.470       73.096       76.078       44.563       36.434       29.658     1985.863     1327.427      879.578        0.884        0.210       87.706       26.858        0.094      339.525       12.918      866.363
03/09/2014  10:43:00       80.735      -87.651        0.406       60.581       94.798       54.982     3670.034     8986.664     3023.072        1.494        0.784      119.167       74.359        0.389      339.511       12.896      866.396
03/09/2014  10:44:00       96.073      -93.175      -14.055       51.452       63.079       37.251     2647.326     3978.936     1387.618        1.306        0.401      133.835       40.328        0.091      339.535       12.936      866.398
03/09/2014  10:45:00       39.876        3.456       49.270       49.006       58.795       40.461     2401.621     3456.903     1637.080        0.576        0.375       40.025       49.063        1.503      339.623       13.085      866.394
03/09/2014  10:46:00       26.136       -5.908       49.441       33.590       39.226       36.086     1128.317     1538.683     1302.187        0.357        0.198       26.796       25.890        0.934      339.663       13.151      866.356
03/09/2014  10:47:00        4.285       25.371       73.539       30.206       51.428       38.758      912.379     2644.870     1502.158        0.556        0.253       25.730       36.758        2.041      339.625       13.086      866.310
03/09/2014  10:48:00       14.316       45.350       74.368       37.571       40.073       23.562     1411.577     1605.823      555.157        0.568        0.179       47.556       24.165        0.258      339.654       13.137      866.261
03/09/2014  10:49:00        9.871      -41.167       32.816       22.117       75.581       31.187      489.152     5712.469      972.627        0.502        0.359       42.334       43.018        1.033      339.715       13.238      866.246
03/09/2014  10:50:00       53.777     -130.022      -16.311       43.331       23.125       18.897     1877.555      534.743      357.093        1.142        0.138      140.704        9.317        0.004      339.718       13.243      866.263
03/09/2014  10:51:00       60.568     -138.395        4.281       57.444       43.233       34.045     3299.774     1869.114     1159.070        1.458        0.316      151.069       35.041        0.054      339.751       13.299      866.274
03/09/2014  10:52:00      114.854     -128.750      -39.482       47.894       41.270       30.554     2293.875     1703.250      933.528        1.813        0.247      172.534       17.494        0.010      339.594       13.032      866.263
03/09/2014  10:53:00       57.617      -31.101       13.906       58.853       43.840       40.436     3463.698     1921.960     1635.065        0.575        0.351       65.475       41.409        0.400      339.598       13.040      866.248
03/09/2014  10:54:00       15.048       34.370       48.951       25.441       26.185       27.172      647.227      685.652      738.326        0.294        0.104       37.520       22.398        0.356      339.673       13.167      866.237
03/09/2014  10:55:00       -1.537       18.019       37.010       26.547       31.243       25.534      704.766      976.135      652.002        0.201        0.117       18.085       22.451        1.541      339.725       13.256      866.253
03/09/2014  10:56:00        9.073       19.146       34.488       31.475       15.859       14.840      990.654      251.514      220.232        0.155        0.073       21.187       11.251        0.282      339.779       13.346      866.274
03/09/2014  10:57:00      -10.949       20.510       47.278        8.892       16.703       14.655       79.076      279.007      214.772        0.167        0.029       23.249       12.837        0.305      339.815       13.407      866.280
03/09/2014  10:58:00        6.610       28.394       61.663       30.289       22.496       11.951      917.413      506.063      142.831        0.311        0.078       29.153       12.587        0.186      339.770       13.330      866.258
03/09/2014  10:59:00       52.785       22.502       16.620       18.843       23.010       21.687      355.048      529.458      470.339        0.246        0.068       57.381       11.459        0.040      339.636       13.107      866.217
03/09/2014  11:00:00       42.578       38.744        2.206       23.543       31.479       22.032      554.272      990.911      485.390        0.267        0.102       57.567        9.956        0.030      339.603       13.049      866.179
03/09/2014  11:01:00      147.680       58.099       10.034       53.932       38.367       26.969     2908.621     1472.054      727.354        1.520        0.255      158.697       22.482        0.020      339.637       13.106      866.161
03/09/2014  11:02:00      135.951       53.727       -6.535       39.797       40.164       25.011     1583.780     1613.179      625.545        1.262        0.191      146.182       19.614        0.018      339.611       13.062      866.163
03/09/2014  11:03:00      133.680       59.907        6.019       38.711       32.810       26.421     1498.580     1076.484      698.078        1.238        0.164      146.490       14.311        0.010      339.604       13.052      866.176
03/09/2014  11:04:00      103.594       54.807        8.723       39.838       36.891       25.107     1587.096     1360.943      630.337        0.869        0.179      117.199       20.503        0.031      339.616       13.071      866.204
03/09/2014  11:05:00      103.396       70.944       13.027       30.522       28.660       22.205      931.567      821.403      493.054        0.907        0.112      125.395       19.885        0.025      339.624       13.086      866.217
03/09/2014  11:06:00      123.477       77.966       10.773       31.140       17.574       20.866      969.677      308.840      435.409        1.158        0.086      146.032       12.665        0.008      339.596       13.040      866.238
03/09/2014  11:07:00       88.042       73.696       14.498       31.024       26.365       20.654      962.506      695.135      426.582        0.774        0.104      114.815       18.811        0.027      339.633       13.099      866.253
03/09/2014  11:08:00       82.226       41.938        4.966       33.802       30.218       21.872     1142.544      913.098      478.393        0.554        0.127       92.303        7.081        0.006      339.714       13.237      866.245
03/09/2014  11:09:00       66.584       54.384        7.091       37.243       21.745       22.492     1387.004      472.824      505.892        0.490        0.118       85.971       15.958        0.034      339.663       13.149      866.235
03/09/2014  11:10:00       67.621       43.354        9.619       25.074       21.576       17.765      628.730      465.534      315.608        0.398        0.070       80.325        9.018        0.013      339.683       13.183      866.224
03/09/2014  11:11:00       53.341       59.325        2.429       35.965       37.037       24.920     1293.447     1371.754      621.003        0.483        0.164       79.779       20.593        0.067      339.689       13.196      866.210
03/09/2014  11:12:00       46.710       30.501        9.268       24.963       20.369       22.109      623.161      414.906      488.795        0.236        0.076       55.787       17.099        0.094      339.731       13.266      866.211
03/09/2014  11:13:00       35.904       24.424        6.259       23.811       17.697       14.618      566.952      313.167      213.673        0.151        0.055       43.424       11.100        0.065      339.746       13.290      866.222
03/09/2014  11:14:00       53.057       40.043        0.968       18.837       14.774       17.752      354.827      218.272      315.132        0.265        0.044       66.472       12.052        0.033      339.705       13.220      866.223
03/09/2014  11:15:00       11.862       45.709       -8.051       20.593       16.228       13.508      424.061      263.348      182.475        0.158        0.043       47.223        9.928        0.044      339.723       13.255      866.225
03/09/2014  11:16:00       37.380       31.748       -4.072       17.587       32.496       16.762      309.289     1055.965      280.972        0.203        0.082       49.043       11.227        0.052      339.719       13.247      866.217
03/09/2014  11:17:00        3.812       64.908       -5.596        9.717       23.523       13.234       94.415      553.335      175.151        0.254        0.041       65.020        8.358        0.017      339.741       13.283      866.194
03/09/2014  11:18:00       10.344       15.992       -1.554       12.686       15.725       11.970      160.928      247.289      143.269        0.046        0.028       19.046        9.771        0.263      339.778       13.344      866.169
03/09/2014  11:19:00       -8.482       31.903       -8.446       12.646        9.860        8.007      159.919       97.221       64.111        0.074        0.016       33.012        6.606        0.040      339.785       13.359      866.165
03/09/2014  11:20:00      -15.522       40.108       -9.307       29.232       18.723       13.510      854.526      350.561      182.526        0.166        0.069       43.007        9.590        0.050      339.838       13.445      866.172
03/09/2014  11:21:00      -43.086       48.178       -7.888       24.698       29.865       17.598      609.992      891.907      309.697        0.303        0.091       64.634       19.076        0.087      339.857       13.478      866.182
03/09/2014  11:22:00      -48.799       58.337      -13.910       14.823       21.076       13.262      219.716      444.215      175.869        0.341        0.042       76.056        9.613        0.016      339.809       13.396      866.195
03/09/2014  11:23:00        3.067       37.001       -1.724       25.316       22.916       12.984      640.901      525.124      168.590        0.136        0.067       37.128        9.961        0.072      339.977       13.682      866.216
03/09/2014  11:24:00       22.364       33.922        9.500       15.054       16.658       16.649      226.610      277.495      277.176        0.126        0.039       40.631       13.081        0.104      339.974       13.676      866.240
03/09/2014  11:25:00       41.900       44.166        7.927       19.292       14.856       15.081      372.169      220.710      227.437        0.229        0.041       60.878        9.075        0.022      339.878       13.514      866.254
03/09/2014  11:26:00       45.267       40.666        6.752       15.962       14.766       13.725      254.776      218.041      188.387        0.220        0.033       60.851        3.238        0.003      339.876       13.511      866.260
03/09/2014  11:27:00       68.512       41.893        4.655       28.417       24.972       19.539      807.553      623.617      381.778        0.414        0.091       80.305       15.635        0.038      339.900       13.549      866.262
03/09/2014  11:28:00       48.299       45.333        1.599       36.976       35.289       18.199     1367.194     1245.287      331.215        0.367        0.147       66.241       11.285        0.029      339.936       13.612      866.296
03/09/2014  11:29:00       37.560       41.414       -5.951       21.617       21.419       16.053      467.290      458.760      257.684        0.217        0.059       55.909        9.413        0.028      339.890       13.533      866.326
03/09/2014  11:30:00       24.704       43.085        4.937       35.777       31.524       24.231     1279.992      993.761      587.124        0.268        0.143       49.665       22.754        0.210      339.883       13.521      866.332
03/09/2014  11:31:00        7.610      100.809      -18.213       16.561       13.544       11.315      274.259      183.427      128.037        0.557        0.029      101.096       10.977        0.012      339.840       13.448      866.329
03/09/2014  11:32:00        6.231       63.913       -6.411       11.384       26.519       13.435      129.590      703.277      180.509        0.259        0.051       64.216       16.490        0.066      339.907       13.561      866.319
03/09/2014  11:33:00      -27.600       74.332       -6.268       20.089       40.440       14.701      403.566     1635.356      216.108        0.429        0.113       79.290       20.132        0.064      340.004       13.727      866.301
03/09/2014  11:34:00      -12.857      115.864      -18.400       13.375       15.915        9.116      178.884      253.283       83.106        0.722        0.026      116.575        6.170        0.003      339.904       13.558      866.304
03/09/2014  11:35:00       -6.054       96.255      -18.097       15.356       15.897        9.823      235.799      252.715       96.495        0.511        0.029       96.445        6.487        0.005      339.917       13.580      866.318
03/09/2014  11:36:00       -1.616       82.198      -10.541       15.196       15.451       10.749      230.932      238.730      115.550        0.373        0.029       82.214        8.733        0.011      339.911       13.568      866.305
03/09/2014  11:37:00       -3.477       56.632       -3.389       12.508       24.498       11.655      156.454      600.160      135.848        0.206        0.045       56.739        7.492        0.017      339.993       13.707      866.283
03/09/2014  11:38:00       18.580       46.861        3.291       25.534       33.679       15.859      651.985     1134.268      251.506        0.229        0.102       50.410       11.334        0.051      340.089       13.869      866.249
03/09/2014  11:39:00       61.736       39.993       -2.404       31.132       35.191       22.227      969.201     1238.424      494.040        0.406        0.135       73.558       16.173        0.048      340.078       13.850      866.193
03/09/2014  11:40:00       74.574       77.894        4.977       47.254       32.795       31.944     2232.929     1075.515     1020.447        0.799        0.216      107.837       18.121        0.028      340.042       13.791      866.150
03/09/2014  11:41:00       88.796       72.310        5.273       56.774       41.595       36.755     3223.257     1730.165     1350.959        0.972        0.315      114.515       18.985        0.027      340.048       13.801      866.117
03/09/2014  11:42:00       93.996       83.675        2.834       44.908       45.959       36.754     2016.729     2112.218     1350.874        1.066        0.274      125.844       21.003        0.028      340.054       13.810      866.090
03/09/2014  11:43:00       99.268       60.503        1.810       45.184       36.266       34.594     2041.624     1315.215     1196.763        0.903        0.228      116.253       21.436        0.034      340.060       13.821      866.086
03/09/2014  11:44:00       34.268       22.347       -3.384       39.595       28.573       18.030     1567.739      816.390      325.084        0.220        0.135       40.910       13.423        0.108      340.144       13.962      866.068
03/09/2014  11:45:00       23.784       82.714      -14.517       35.849       61.967       23.491     1285.147     3839.895      551.814        0.665        0.284       86.066       27.149        0.100      340.142       13.958      866.056
03/09/2014  11:46:00       65.845       96.744       -2.454       46.163       73.215       38.119     2130.978     5360.505     1453.041        1.132        0.447      117.025       41.351        0.125      340.131       13.940      866.051
03/09/2014  11:47:00       45.313       48.301        3.345       33.194       25.190       24.379     1101.866      634.534      594.348        0.336        0.117       66.229       16.497        0.062      340.166       13.999      866.030
03/09/2014  11:48:00       -3.176       61.347        3.282       23.904       37.705       25.229      571.379     1421.700      636.516        0.321        0.131       61.429       23.814        0.150      340.305       14.234      866.015
03/09/2014  11:49:00       51.629       71.056        0.903       39.803       55.681       23.903     1584.294     3100.394      571.342        0.648        0.263       87.832       31.626        0.130      340.262       14.161      866.008
03/09/2014  11:50:00       31.025       26.971        4.057       25.928       23.566       17.921      672.246      555.377      321.145        0.163        0.077       41.109       10.985        0.071      340.294       14.215      865.985
03/09/2014  11:51:00       55.585       45.193        3.078       32.255       31.509       28.381     1040.401      992.836      805.471        0.399        0.142       71.639       19.514        0.074      340.357       14.320      865.969
03/09/2014  11:52:00       53.469       77.882       -9.250       32.089       55.218       29.084     1029.702     3048.986      845.892        0.697        0.246       94.470       26.678        0.080      340.350       14.311      865.965
03/09/2014  11:53:00       34.988       86.396       -3.659       34.948       47.247       30.657     1221.331     2232.302      939.874        0.655        0.220       93.211       29.676        0.101      340.352       14.313      865.955
03/09/2014  11:54:00       26.594       52.621        7.461       32.695       43.787       27.599     1068.936     1917.335      761.683        0.364        0.187       58.959       26.386        0.200      340.421       14.430      865.960
03/09/2014  11:55:00       31.708       71.395        0.017       37.594       54.738       26.742     1413.286     2996.301      715.122        0.561        0.256       78.120       28.813        0.136      340.453       14.483      865.954
03/09/2014  11:56:00       39.239       67.601        0.524       37.649       43.235       33.667     1417.440     1869.236     1133.496        0.526        0.221       78.163       25.729        0.108      340.473       14.518      865.938
03/09/2014  11:57:00       50.448       53.027       -0.299       40.194       36.240       26.804     1615.577     1313.349      718.456        0.450        0.182       73.191       19.420        0.070      340.482       14.531      865.921
03/09/2014  11:58:00       26.675       53.592        2.425       36.272       36.898       23.483     1315.661     1361.475      551.455        0.341        0.161       59.864       24.682        0.170      340.532       14.618      865.895
03/09/2014  11:59:00       42.635       81.496       -3.227       41.769       53.110       29.756     1744.683     2820.626      885.417        0.696        0.273       91.974       28.999        0.099      340.547       14.644      865.868
03/09/2014  12:00:00       48.409       87.975       -3.990       43.918       43.974       31.593     1928.810     1933.702      998.139        0.748        0.243      100.414       23.892        0.057      340.537       14.626      865.838
03/09/2014  12:01:00       75.658       76.048       -4.674       48.888       37.643       22.650     2390.023     1416.983      513.010        0.792        0.216      107.273       16.426        0.023      340.540       14.630      865.802
03/09/2014  12:02:00       32.658      104.216       -3.975       41.071       71.472       37.235     1686.845     5108.264     1386.418        1.006        0.409      109.213       41.041        0.141      340.574       14.689      865.793
03/09/2014  12:03:00       55.766       71.144       -4.548       42.749       37.681       32.222     1827.470     1419.876     1038.250        0.624        0.214       90.395       30.820        0.116      340.621       14.769      865.805
03/09/2014  12:04:00       99.117       50.549        9.486       48.588       33.678       24.469     2360.752     1134.224      598.750        0.828        0.205      111.263       20.903        0.035      340.656       14.828      865.812
03/09/2014  12:05:00       79.762       59.991       18.103       52.379       20.026       29.359     2743.532      401.044      861.940        0.715        0.200       99.805       25.739        0.067      340.723       14.940      865.824
03/09/2014  12:06:00      115.802       65.148       27.069       52.356       28.622       35.248     2741.167      819.230     1242.421        1.159        0.240      132.869       31.778        0.057      340.663       14.840      865.849
03/09/2014  12:07:00       80.160       54.782       34.778       59.816       36.553       40.283     3577.990     1336.125     1622.728        0.859        0.327       97.091       33.015        0.116      340.757       14.997      865.842
03/09/2014  12:08:00      136.786       85.627       37.826       37.118       47.141       42.829     1377.732     2222.280     1834.341        1.645        0.272      161.377       32.749        0.041      340.659       14.832      865.854
03/09/2014  12:09:00      100.648       67.651       25.373       46.731       50.737       46.993     2183.784     2574.261     2208.307        1.116        0.348      121.271       31.235        0.066      340.747       14.981      865.853
03/09/2014  12:10:00       88.759       56.961       29.087       54.911       42.446       22.654     3015.220     1801.650      513.215        0.865        0.267      105.464       19.063        0.033      340.730       14.953      865.846
03/09/2014  12:11:00       81.571       47.765        8.266       49.225       31.950       26.997     2423.095     1020.795      728.813        0.659        0.209       94.527        9.147        0.009      340.754       14.993      865.849
03/09/2014  12:12:00       65.889       66.220        7.959       37.713       26.842       27.736     1422.297      720.506      769.277        0.585        0.146       93.415       21.158        0.051      340.748       14.983      865.868
03/09/2014  12:13:00       40.588       44.326        2.635       30.812       27.470       22.280      949.360      754.595      496.389        0.291        0.110       60.102       16.685        0.077      340.838       15.135      865.866
03/09/2014  12:14:00       62.946       58.584        5.054       48.234       32.321       29.950     2326.474     1044.638      897.005        0.584        0.213       85.990       17.706        0.042      340.861       15.175      865.874
03/09/2014  12:15:00      116.522       81.742       19.171       57.126       33.904       32.634     3263.353     1149.500     1064.980        1.305        0.274      142.334       17.025        0.014      340.845       15.146      865.858
03/09/2014  12:16:00       96.287       42.066       29.181       48.045       35.708       33.541     2308.307     1275.088     1125.012        0.830        0.235      105.075       21.832        0.043      340.891       15.225      865.826
03/09/2014  12:17:00       76.650       76.603       61.081       62.087       53.300       53.419     3854.788     2840.864     2853.580        1.251        0.477      108.367       52.254        0.233      340.916       15.268      865.809
03/09/2014  12:18:00      119.988       54.714       26.535       67.623       44.833       38.230     4572.898     2009.958     1461.555        1.307        0.402      131.874       34.447        0.068      340.948       15.321      865.793
03/09/2014  12:19:00       88.982       53.848       13.702       49.981       34.463       31.325     2498.142     1187.673      981.229        0.784        0.233      104.007       16.918        0.026      341.038       15.472      865.768
03/09/2014  12:20:00      105.971       69.747       29.940       53.709       46.436       42.006     2884.625     2156.329     1764.515        1.190        0.340      126.864       30.247        0.057      341.074       15.536      865.744
03/09/2014  12:21:00      141.082       78.488       52.433       83.306       64.750       50.575     6939.916     4192.522     2557.857        2.125        0.685      161.445       42.993        0.071      341.057       15.503      865.734
03/09/2014  12:22:00      142.618       71.112       32.184       94.324       83.148       51.028     8896.982     6913.546     2603.892        2.242        0.921      159.364       32.915        0.043      340.896       15.232      865.723
03/09/2014  12:23:00      116.576       76.255       36.587       96.810       52.942       39.071     9372.157     2802.881     1526.569        1.722        0.685      139.301       24.839        0.032      340.957       15.333      865.733
03/09/2014  12:24:00      113.316       56.716       23.136       42.337       40.813       42.921     1792.395     1665.731     1842.194        1.095        0.265      126.717       31.540        0.062      340.968       15.353      865.754
03/09/2014  12:25:00       92.258       54.780       15.699       43.951       38.744       28.193     1931.722     1501.098      794.868        0.799        0.211      107.296       16.098        0.023      341.017       15.438      865.745
03/09/2014  12:26:00       85.418       54.957       16.718       53.179       31.040       31.195     2828.030      963.452      973.159        0.768        0.238      101.571        8.472        0.007      341.114       15.603      865.734
03/09/2014  12:27:00       73.614       56.873       16.798       75.594       52.500       37.547     5714.501     2756.261     1409.758        0.941        0.494       93.024       12.902        0.019      341.169       15.695      865.717
03/09/2014  12:28:00      108.923       72.087       13.486       75.682       58.541       47.387     5727.813     3427.098     2245.556        1.432        0.570      130.616       29.729        0.052      341.147       15.658      865.702
03/09/2014  12:29:00      153.794       92.136       24.092       36.309       35.266       42.644     1318.312     1243.711     1818.524        1.855        0.219      179.281       21.026        0.014      341.134       15.634      865.695
03/09/2014  12:30:00       89.465       42.599       -6.195       41.563       40.178       30.040     1727.514     1614.310      902.421        0.705        0.212       99.089       18.791        0.036      341.206       15.758      865.692
03/09/2014  12:31:00       95.587       60.402       11.564       55.121       30.542       32.203     3038.286      932.783     1037.061        0.896        0.250      113.072       11.648        0.011      341.272       15.870      865.673
03/09/2014  12:32:00      104.962       40.728       14.799       55.442       47.893       33.799     3073.777     2293.699     1142.396        0.970        0.325      112.587       15.136        0.018      341.336       15.978      865.663
03/09/2014  12:33:00       56.801       51.678       48.861       45.101       48.604       39.404     2034.091     2362.385     1552.709        0.712        0.297       76.792       36.604        0.227      341.448       16.168      865.656
03/09/2014  12:34:00      128.189       81.399       80.822       52.915       57.401       50.581     2800.026     3294.867     2558.427        1.912        0.433      151.849       34.441        0.051      341.361       16.020      865.653
03/09/2014  12:35:00       86.507       68.373       81.582       44.235       56.191       42.594     1956.698     3157.408     1814.210        1.287        0.346      110.265       31.517        0.082      341.389       16.068      865.661
03/09/2014  12:36:00       63.241      105.330      102.471       65.989       63.355       48.046     4354.595     4013.912     2308.384        1.813        0.534      122.857       37.522        0.093      341.422       16.123      865.667
03/09/2014  12:37:00       83.863       56.246       63.259       45.743       51.111       45.280     2092.401     2612.305     2050.263        1.048        0.338      100.978       27.782        0.076      341.364       16.025      865.642
03/09/2014  12:38:00      104.014       43.634       44.078       37.030       48.036       35.443     1371.243     2307.469     1256.194        0.980        0.247      112.795       22.357        0.039      341.310       15.936      865.606
03/09/2014  12:39:00      165.275       73.170       28.250       67.873       63.068       45.742     4606.742     3977.615     2092.316        2.207        0.534      180.747       31.157        0.030      341.403       16.089      865.560
03/09/2014  12:40:00      127.862       62.661       38.380       63.790       53.290       53.592     4069.204     2839.833     2872.051        1.576        0.489      142.391       19.512        0.019      341.431       16.137      865.521
03/09/2014  12:41:00      140.284       64.181       18.513       64.827       64.747       40.284     4202.573     4192.142     1622.817        1.708        0.501      154.268       35.314        0.052      341.489       16.233      865.491
03/09/2014  12:42:00       99.067       84.455       85.021       81.158       62.628       59.114     6586.620     3922.267     3494.417        1.909        0.700      130.180       48.626        0.140      341.606       16.434      865.489
03/09/2014  12:43:00       95.016       59.256       46.939       64.439       52.360       46.969     4152.340     2741.616     2206.047        1.192        0.455      111.979       34.542        0.095      341.622       16.462      865.498
03/09/2014  12:44:00       69.516     -150.405       -7.012       76.650       84.067       39.603     5875.273     7067.235     1568.431        2.100        0.726      165.693       43.639        0.069      341.648       16.505      865.511
03/09/2014  12:45:00       75.944     -165.713        2.872       44.811       91.667       47.047     2008.004     8402.896     2213.380        2.293        0.631      182.287       47.039        0.067      341.653       16.514      865.508
03/09/2014  12:46:00       88.491      -52.129       25.620       76.925      103.753       63.566     5917.513    10764.632     4040.678        1.596        1.036      102.704       75.816        0.545      341.667       16.538      865.518
03/09/2014  12:47:00       61.629     -106.160      -17.904       57.733       78.022       38.152     3333.092     6087.407     1455.577        1.313        0.544      122.753       32.290        0.069      341.657       16.521      865.527
03/09/2014  12:48:00       84.267      -82.930       -6.597       43.225       40.736       28.239     1868.420     1659.389      797.454        0.917        0.216      118.230       23.642        0.040      341.578       16.387      865.529
03/09/2014  12:49:00        7.808       23.890       62.232       28.856       57.463       25.422      832.641     3301.968      646.266        0.464        0.239       25.134       27.248        1.175      341.706       16.604      865.519
03/09/2014  12:50:00       54.435       51.908       63.383       33.785       30.726       15.677     1141.408      944.105      245.772        0.600        0.117       75.217       11.387        0.023      341.623       16.463      865.501
03/09/2014  12:51:00       39.950       33.022       63.212       33.344       35.096       28.494     1111.822     1231.709      811.931        0.492        0.158       51.831       15.696        0.092      341.748       16.676      865.495
03/09/2014  12:52:00       42.012       61.336       66.635       41.951       37.574       30.106     1759.848     1411.796      906.400        0.702        0.204       74.345       30.818        0.172      341.639       16.492      865.489
03/09/2014  12:53:00       35.018       30.587       48.887       31.875       35.955       29.939     1016.042     1292.756      896.319        0.388        0.160       46.495       16.656        0.128      341.671       16.547      865.489
03/09/2014  12:54:00       28.304      -16.696       11.831       25.565       25.342       18.840      653.588      642.227      354.948        0.143        0.083       32.862       15.095        0.211      341.686       16.571      865.493
03/09/2014  12:55:00       -9.981       43.682       67.181       20.906       42.611       28.435      437.066     1815.676      808.537        0.479        0.153       44.807       28.861        0.415      341.816       16.791      865.486
03/09/2014  12:56:00       16.709       56.519       92.822       52.677       40.852       29.783     2774.843     1668.893      887.003        0.871        0.267       58.937       35.145        0.356      341.700       16.595      865.478
03/09/2014  12:57:00       75.942       32.495       19.670       39.155       27.276       23.984     1533.117      744.001      575.247        0.503        0.143       82.602       18.514        0.050      341.553       16.345      865.476
03/09/2014  12:58:00       14.936        0.668       15.098       33.616       29.356       20.736     1130.023      861.779      429.975        0.144        0.121       14.951       20.526        1.885      341.664       16.532      865.482
03/09/2014  12:59:00      -28.023      -58.354       -1.230       44.746       37.578       18.337     2002.223     1412.069      336.243        0.397        0.188       64.734       10.982        0.029      341.660       16.529      865.479
03/09/2014  13:00:00     -134.242      -32.427       -4.077       38.456       33.741       21.748     1478.833     1138.444      472.965        1.109        0.155      138.103       18.980        0.019      341.552       16.343      865.452
03/09/2014  13:01:00      -45.278      -46.510        4.539       65.642       39.655       24.948     4308.877     1572.496      622.395        0.537        0.325       64.910       22.647        0.122      341.640       16.493      865.424
03/09/2014  13:02:00      -65.402      -68.744        3.641       30.774       54.900       24.749      947.013     3014.049      612.513        0.679        0.229       94.885       28.368        0.089      341.609       16.442      865.393
03/09/2014  13:03:00      -47.880      -11.314        9.710       36.316       16.498       14.718     1318.870      272.169      216.621        0.216        0.090       49.198       10.411        0.045      341.646       16.504      865.364
03/09/2014  13:04:00      -64.972       -9.094        0.752       26.274       20.001       23.623      690.325      400.031      558.052        0.298        0.082       65.606       16.745        0.065      341.625       16.469      865.352
03/09/2014  13:05:00      -19.667       -6.312        7.649       23.340       10.218       13.026      544.745      104.409      169.684        0.065        0.041       20.655        8.749        0.179      341.782       16.735      865.374
03/09/2014  13:06:00      -34.252      -22.459      -10.196       25.639       21.589       12.342      657.343      466.073      152.314        0.153        0.064       40.959        8.933        0.048      341.692       16.582      865.397
03/09/2014  13:07:00      -36.229      -34.723        5.289       54.940       27.746       21.082     3018.435      769.858      444.468        0.339        0.212       50.182       23.123        0.212      341.714       16.618      865.409
03/09/2014  13:08:00      -74.050      -63.327        3.254       41.876       27.706       17.447     1753.574      767.640      304.413        0.616        0.141       97.436       13.908        0.020      341.605       16.434      865.414
03/09/2014  13:09:00      -48.930      -35.770        3.963       40.144       25.198       14.051     1611.573      634.942      197.431        0.307        0.122       60.610       15.263        0.063      341.705       16.603      865.419
03/09/2014  13:10:00      -46.644       12.491        4.690       20.965       20.395       11.713      439.546      415.947      137.202        0.167        0.050       48.287        8.085        0.028      341.621       16.460      865.409
03/09/2014  13:11:00       -1.351        8.314       18.809       17.546       11.330       10.301      307.855      128.364      106.105        0.048        0.027        8.423        7.485        0.790      341.835       16.825      865.409
03/09/2014  13:12:00        9.677        4.429       11.384       19.510       13.620       12.975      380.640      185.497      168.347        0.049        0.037       10.642       10.513        0.976      341.883       16.906      865.392
03/09/2014  13:13:00        5.747       12.817      -11.646       29.628       19.400       11.428      877.801      376.348      130.594        0.086        0.069       14.047        4.675        0.111      341.655       16.517      865.400
03/09/2014  13:14:00      -61.762      -30.363      -10.115       38.445       29.825       18.967     1478.011      889.538      359.747        0.378        0.136       68.822       13.014        0.036      341.661       16.528      865.412
03/09/2014  13:15:00     -109.620      -69.144        3.137       52.221       40.905       32.611     2727.046     1673.202     1063.482        1.113        0.273      129.605       29.664        0.052      341.614       16.448      865.413
03/09/2014  13:16:00     -108.588      -62.540       10.003       49.480       39.859       30.912     2448.235     1588.770      955.562        1.040        0.250      125.310       22.659        0.033      341.581       16.392      865.411
03/09/2014  13:17:00      -76.600      -52.536        1.413       53.371       39.857       18.535     2848.465     1588.587      343.537        0.670        0.239       92.885       14.855        0.026      341.604       16.432      865.411
03/09/2014  13:18:00      -61.274       -7.058        3.931       25.575       35.125       16.858      654.068     1233.782      284.207        0.300        0.109       61.679       13.834        0.050      341.576       16.387      865.395
03/09/2014  13:19:00      -86.888       10.239       -0.435       34.149       29.564       19.144     1166.125      874.047      366.509        0.503        0.120       87.490       12.175        0.019      341.594       16.417      865.365
03/09/2014  13:20:00     -103.843      -31.478       -7.139       46.718       23.776       24.204     2182.592      565.278      585.842        0.758        0.167      108.509       26.737        0.061      341.593       16.413      865.355
03/09/2014  13:21:00      -90.563      -51.441      -18.602       20.665       15.870       10.971      427.041      251.844      120.354        0.600        0.040      104.153       10.812        0.011      341.534       16.312      865.360
03/09/2014  13:22:00      -21.960      -17.678        8.250       32.769       24.440       20.743     1073.815      597.308      430.286        0.148        0.105       28.191       20.889        0.549      341.666       16.538      865.353
03/09/2014  13:23:00       -8.624      -42.954        9.476       29.774       24.346       21.272      886.494      592.712      452.487        0.197        0.097       43.811       17.019        0.151      341.633       16.479      865.336
03/09/2014  13:24:00      -36.218      -64.320        2.100       22.207       16.684       14.210      493.146      278.346      201.929        0.321        0.049       73.816       11.877        0.026      341.556       16.350      865.313
03/09/2014  13:25:00      -54.931      -42.932       -3.132       28.577       22.515       11.484      816.622      506.925      131.888        0.316        0.073       69.718        9.463        0.018      341.556       16.352      865.291
03/09/2014  13:26:00      -15.601      -40.958        1.125       24.047       22.410       13.292      578.277      502.186      176.672        0.159        0.063       43.829       12.132        0.077      341.620       16.460      865.263
03/09/2014  13:27:00       -2.403      -42.489        4.051        8.431       25.970       13.928       71.087      674.425      193.995        0.138        0.047       42.557       15.606        0.134      341.605       16.435      865.237
03/09/2014  13:28:00      -51.237      -25.885        0.787       23.741       16.365       14.138      563.636      267.798      199.878        0.216        0.052       57.404       14.350        0.062      341.630       16.475      865.216
03/09/2014  13:29:00      -47.597      -28.629       -5.992       17.848       14.191        9.066      318.565      201.377       82.185        0.186        0.030       55.544        9.049        0.027      341.545       16.330      865.205
03/09/2014  13:30:00      -21.689      -50.458        1.240       25.506       17.008       12.847      650.539      289.266      165.050        0.206        0.055       54.922       14.643        0.071      341.610       16.444      865.190
03/09/2014  13:31:00      -30.015      -46.251       -0.522       25.115       27.480       22.704      630.774      755.142      515.487        0.247        0.095       55.137       22.394        0.165      341.631       16.477      865.188
03/09/2014  13:32:00      -25.830      -33.978       11.051       38.358       25.542       19.553     1471.300      652.411      382.304        0.222        0.125       42.681       23.915        0.314      341.697       16.589      865.183
03/09/2014  13:33:00      -71.137      -63.360       -7.463       26.768       24.886       16.849      716.537      619.297      283.900        0.537        0.081       95.263        9.966        0.011      341.581       16.391      865.167
03/09/2014  13:34:00      -38.397      -45.920       -2.065       14.799        9.687       10.066      219.007       93.846      101.329        0.200        0.021       59.858        8.677        0.021      341.550       16.333      865.138
03/09/2014  13:35:00      -17.764      -20.438       -2.828       12.314        6.117        7.570      151.622       37.418       57.301        0.049        0.012       27.079        8.076        0.089      341.562       16.359      865.117
03/09/2014  13:36:00       -1.823      -11.617       10.461       18.140       23.262       25.267      329.070      541.102      638.408        0.088        0.075       11.759       15.049        1.638      341.742       16.666      865.099
03/09/2014  13:37:00       18.250        4.249       42.902       30.771       31.525       28.004      946.846      993.851      784.218        0.246        0.136       18.738       18.891        1.016      341.821       16.801      865.090
03/09/2014  13:38:00       15.136       18.963       54.399       35.545       29.741       31.028     1263.448      884.521      962.750        0.333        0.156       24.263       18.303        0.569      341.801       16.765      865.079
03/09/2014  13:39:00       69.211       64.353       43.287       51.677       31.975       40.291     2670.488     1022.429     1623.357        0.806        0.266       94.506       34.232        0.131      341.678       16.558      865.074
03/09/2014  13:40:00       72.238       30.548        6.100       37.301       29.972       27.174     1391.383      898.294      738.439        0.461        0.151       78.431       23.038        0.086      341.666       16.538      865.049
03/09/2014  13:41:00       73.537       58.449       13.274       16.437       13.544       13.101      270.181      183.452      171.639        0.481        0.031       93.936        8.655        0.008      341.640       16.492      865.022
03/09/2014  13:42:00       49.726       20.713       11.759       31.775       22.912       17.958     1009.635      524.943      322.492        0.245        0.093       53.868       13.730        0.065      341.674       16.552      865.023
03/09/2014  13:43:00      -20.154      -11.838       -6.302       37.154       16.415       11.535     1380.431      269.442      133.050        0.118        0.089       23.373       11.385        0.237      341.710       16.610      865.045
03/09/2014  13:44:00      -85.854      -31.225       -0.662       18.886       18.141       12.975      356.684      329.109      168.339        0.460        0.043       91.356        2.697        0.001      341.677       16.557      865.059
03/09/2014  13:45:00      -89.035      -54.164        2.995       42.304       28.838       25.051     1789.596      831.648      627.574        0.706        0.162      104.216       17.998        0.030      341.703       16.600      865.067
03/09/2014  13:46:00      -87.142      -42.871       -0.415       30.630       23.354       20.220      938.223      545.395      408.836        0.566        0.095       97.117       15.786        0.026      341.694       16.585      865.077
03/09/2014  13:47:00     -124.181      -18.861       -9.816       22.805       24.125       15.694      520.078      582.029      246.299        0.861        0.067      125.605       12.322        0.010      341.667       16.539      865.088
03/09/2014  13:48:00      -68.253       -8.333        8.359       33.901       24.146       18.898     1149.266      583.011      357.146        0.344        0.104       68.760       19.604        0.081      341.733       16.653      865.089
03/09/2014  13:49:00      -43.601       -8.839        1.949       22.473       21.433       17.939      505.046      459.381      321.804        0.163        0.064       44.488       13.194        0.088      341.767       16.708      865.072
03/09/2014  13:50:00      -55.253       -6.014        8.645       33.345       25.238       19.770     1111.902      636.968      390.871        0.265        0.107       55.579       18.471        0.110      341.801       16.765      865.061
03/09/2014  13:51:00      -52.169       -8.704       -1.475       20.414       15.687       12.984      416.715      246.068      168.580        0.182        0.042       52.890        9.567        0.033      341.784       16.738      865.035
03/09/2014  13:52:00      -27.024       -9.783        0.833       16.387       10.368        6.412      268.521      107.502       41.112        0.062        0.021       28.741        7.715        0.072      341.790       16.747      865.015
03/09/2014  13:53:00      -39.531       23.362       -7.365       16.425       15.315        7.008      269.784      234.563       49.111        0.136        0.028       45.919        5.623        0.015      341.721       16.630      865.003
03/09/2014  13:54:00      -16.500       -0.021       -5.901       18.113       15.322        6.781      328.082      234.769       45.980        0.046        0.030       16.500        6.596        0.160      341.787       16.741      864.988
03/09/2014  13:55:00        0.814       -6.206        3.048        5.175       11.802        6.406       26.781      139.288       41.037        0.013        0.010        6.259        6.432        1.056      341.893       16.923      864.964
03/09/2014  13:56:00        5.245        2.757        7.742        5.919        4.617        5.722       35.036       21.320       32.741        0.009        0.004        5.925        4.054        0.468      342.027       17.150      864.942
03/09/2014  13:57:00        2.628        9.388       -1.956        3.631       10.632        6.780       13.187      113.039       45.971        0.014        0.009        9.749        3.616        0.138      341.855       16.860      864.927
03/09/2014  13:58:00        7.361       13.703       -4.696       11.615       11.178        5.789      134.904      124.953       33.508        0.028        0.015       15.555        6.009        0.149      341.845       16.840      864.917
03/09/2014  13:59:00       14.605       -0.612       -1.359        9.606        7.820        6.553       92.285       61.149       42.941        0.021        0.010       14.618        3.645        0.062      341.850       16.848      864.911
03/09/2014  14:00:00       13.766       17.047       10.697        9.352        8.932       11.103       87.460       79.787      123.274        0.044        0.015       21.911        3.882        0.031      341.903       16.940      864.905
03/09/2014  14:01:00       -9.508        5.631       -2.321       19.288        8.136        7.020      372.009       66.190       49.283        0.031        0.024       11.050        5.774        0.273      341.966       17.047      864.890
03/09/2014  14:02:00      -22.329       -2.889        0.284       12.260        7.340        5.957      150.315       53.882       35.481        0.037        0.012       22.515        4.331        0.037      341.922       16.972      864.882
03/09/2014  14:03:00      -73.211      -14.928       -9.719       20.889       33.205       18.232      436.337     1102.571      332.391        0.377        0.094       74.717       14.409        0.037      341.863       16.870      864.883
03/09/2014  14:04:00      -84.712       69.958      -20.310       15.655       25.213       11.962      245.081      635.687      143.086        0.675        0.051      109.865        6.814        0.004      341.759       16.696      864.870
03/09/2014  14:05:00      -59.464       57.203      -11.004       28.096       19.886       18.980      789.365      395.472      360.225        0.424        0.077       82.511       17.523        0.045      341.820       16.796      864.852
03/09/2014  14:06:00      -63.338       12.941       -4.100       25.801       26.969       14.569      665.711      727.311      212.251        0.290        0.080       64.646       11.335        0.031      341.864       16.871      864.849
03/09/2014  14:07:00      -57.163      -44.372       -1.678       25.450       17.471       11.919      647.703      305.252      142.068        0.317        0.055       72.363       11.654        0.026      341.852       16.854      864.839
03/09/2014  14:08:00      -56.775      -95.114      -10.357       43.889       37.563       18.551     1926.251     1410.989      344.149        0.803        0.184      110.770       14.905        0.018      341.848       16.845      864.826
03/09/2014  14:09:00      -79.706      -58.381      -11.588       25.032       28.963       21.088      626.620      838.839      444.687        0.590        0.096       98.799       11.469        0.013      341.842       16.837      864.804
03/09/2014  14:10:00     -148.784      -91.713       -6.948       56.243       35.466       29.456     3163.221     1257.861      867.627        1.794        0.264      174.780       27.242        0.024      341.807       16.775      864.790
03/09/2014  14:11:00     -170.022      -95.567       -1.414       54.446       46.073       29.818     2964.420     2122.678      889.143        2.201        0.299      195.040       25.947        0.018      341.809       16.778      864.795
03/09/2014  14:12:00     -152.420      -89.485       -2.545       61.311       37.246       30.918     3759.001     1387.268      955.922        1.867        0.305      176.747       26.118        0.022      341.854       16.855      864.793
03/09/2014  14:13:00      -92.684      -62.820        0.898       27.317       29.563       17.883      746.215      873.959      319.815        0.724        0.097      111.967       13.588        0.015      341.851       16.849      864.788
03/09/2014  14:14:00        1.393      -28.314       10.065       36.823       25.307       18.854     1355.963      640.435      355.459        0.163        0.118       28.349       11.789        0.173      341.951       17.020      864.750
03/09/2014  14:15:00       46.557       -4.158        4.314       24.681       23.158       23.172      609.148      536.288      536.955        0.194        0.084       46.742       18.296        0.153      341.903       16.940      864.698
03/09/2014  14:16:00        4.141      -22.705        8.585       31.173       14.374       13.593      971.765      206.610      184.756        0.098        0.068       23.079       11.317        0.240      341.969       17.050      864.671
03/09/2014  14:17:00      -97.218      -49.559      -11.539       57.057       32.296       20.719     3255.486     1043.023      429.295        0.838        0.236      109.121       14.266        0.017      341.929       16.983      864.657
03/09/2014  14:18:00      -99.127      -54.379       -3.809       40.625       52.189       22.227     1650.387     2723.661      494.024        0.883        0.243      113.063       20.838        0.034      341.925       16.976      864.659
03/09/2014  14:19:00     -100.421      -74.936       -5.968       27.184       28.878       14.785      738.952      833.933      218.609        0.876        0.090      125.298       13.933        0.012      341.935       16.995      864.650
03/09/2014  14:20:00      -69.782     -100.613        4.220       77.158       51.885       29.792     5953.425     2692.067      887.570        1.227        0.477      122.444       35.958        0.086      341.965       17.045      864.641
03/09/2014  14:21:00     -179.776     -173.617      -23.491      129.115       82.004       58.085    16670.608     6724.635     3373.823        4.489        1.338      249.925       63.840        0.065      342.087       17.247      864.587
03/09/2014  14:22:00     -231.116      -49.022      -28.953       98.602       70.195       48.826     9722.385     4927.273     2384.002        3.684        0.852      236.258       42.594        0.033      342.138       17.336      864.531
03/09/2014  14:23:00     -119.122      -64.459       21.442      113.211       76.339       54.500    12816.681     5827.602     2970.245        2.021        1.081      135.444       54.107        0.160      342.258       17.539      864.561
03/09/2014  14:24:00     -257.669      -83.197        7.946      198.632      126.764       73.414    39454.743    16069.104     5389.686        6.713        3.046      270.768       74.541        0.076      342.216       17.467      864.576
03/09/2014  14:25:00     -332.356     -170.117      -23.124      180.688      207.885       81.743    32647.994    43216.205     6681.873       11.122        4.127      373.364       80.083        0.046      342.104       17.279      864.566
03/09/2014  14:26:00     -359.676      -77.209        3.456      212.747      109.776       83.779    45261.391    12050.808     7018.940        9.982        3.217      367.870       91.804        0.062      342.071       17.221      864.524
03/09/2014  14:27:00     -352.102      -55.608       -1.271      267.621      149.169       87.707    71620.910    22251.419     7692.510       11.430        5.078      356.466      117.998        0.110      342.078       17.233      864.484
03/09/2014  14:28:00     -399.415      -23.062      -19.989      187.193      138.899       67.961    35041.317    19292.911     4618.635       10.970        2.948      400.080       77.156        0.037      342.057       17.197      864.471
03/09/2014  14:29:00     -257.147     -141.529        7.928      181.194      158.537       86.122    32831.180    25134.028     7417.074        7.579        3.269      293.522       92.878        0.100      342.113       17.291      864.460
03/09/2014  14:30:00     -193.471     -136.777       18.395      162.818      144.613       80.261    26509.833    20912.923     6441.796        5.516        2.693      236.936       92.834        0.154      342.153       17.360      864.456
03/09/2014  14:31:00     -365.787     -186.156       -8.348      219.664      150.526       78.162    48252.079    22658.177     6109.273       12.276        3.851      410.431       93.111        0.051      342.104       17.276      864.429
03/09/2014  14:32:00     -120.674      -86.126       36.462      199.195      171.538       98.798    39678.830    29425.229     9761.042        5.107        3.943      148.257      112.463        0.575      342.178       17.403      864.396
03/09/2014  14:33:00     -339.498       -2.369      -12.638      180.631      102.632       62.295    32627.423    10533.249     3880.721        8.122        2.352      339.506       76.493        0.051      342.126       17.316      864.403
03/09/2014  14:34:00     -325.675     -100.641      -25.156      126.616      147.923       65.180    16031.580    21881.283     4248.437        7.949        2.108      340.871       58.650        0.030      342.117       17.300      864.395
03/09/2014  14:35:00     -282.936     -224.426       15.261      174.056      159.360       93.740    30295.652    25395.563     8787.102        9.755        3.224      361.137      105.345        0.085      342.134       17.328      864.390
03/09/2014  14:36:00     -377.477     -248.191       -8.536      171.905      152.590       89.194    29551.320    23283.696     7955.495       13.246        3.040      451.760       83.528        0.034      342.149       17.356      864.375
03/09/2014  14:37:00     -376.203     -197.149        0.054      205.889      138.153       80.106    42390.367    19086.139     6417.017       12.413        3.395      424.731       82.214        0.037      342.152       17.359      864.383
03/09/2014  14:38:00     -428.953     -197.515      -10.399      199.852      167.300      107.543    39940.761    27989.185    11565.495       15.129        3.975      472.242      107.140        0.051      342.085       17.245      864.359
03/09/2014  14:39:00     -405.695     -188.696      -12.923      231.270      183.798       90.776    53485.673    33781.826     8240.199       14.792        4.775      447.431      104.530        0.055      342.057       17.196      864.378
03/09/2014  14:40:00     -298.814      -61.009       -2.451      175.165      180.925       77.559    30682.773    32733.784     6015.470        8.121        3.472      304.979       92.748        0.092      342.100       17.270      864.375
03/09/2014  14:41:00     -368.612     -279.345      -12.249      233.027      208.134      107.226    54301.643    43319.711    11497.377       16.157        5.456      462.503      125.301        0.073      342.064       17.209      864.379
03/09/2014  14:42:00     -445.650     -305.739       -9.605      227.668      192.495       95.204    51832.604    37054.234     9063.804       19.504        4.898      540.445      110.803        0.042      342.060       17.201      864.397
03/09/2014  14:43:00     -374.362     -247.877       -2.247      225.576      139.220       90.073    50884.574    19382.341     8113.086       13.997        3.919      448.988      101.185        0.051      342.045       17.176      864.389
03/09/2014  14:44:00     -421.446     -297.035       -5.738      200.876      159.806       81.211    40351.263    25537.822     6595.203       16.917        3.624      515.603       99.211        0.037      342.046       17.179      864.371
03/09/2014  14:45:00     -274.639     -164.975       -8.099      192.180      143.802       79.569    36933.089    20678.883     6331.228        8.331        3.197      320.380      103.483        0.104      342.091       17.255      864.370
03/09/2014  14:46:00     -301.527     -153.131       -0.491      195.837      144.233       82.820    38352.296    20803.120     6859.098        9.018        3.301      338.183       96.491        0.081      342.051       17.186      864.356
03/09/2014  14:47:00     -322.091      -15.678       -6.909      144.907      113.529       67.972    20998.059    12888.767     4620.134        7.126        1.925      322.473       60.887        0.036      342.019       17.132      864.343
03/09/2014  14:48:00     -480.659      -94.845      -14.654      183.410      127.167       81.983    33639.374    16171.515     6721.178       14.838        2.827      489.927       89.064        0.033      341.887       16.907      864.323
03/09/2014  14:49:00     -457.694     -166.994      -33.387      185.703      165.569       88.194    34485.528    27413.102     7778.154       15.407        3.484      487.207       90.371        0.034      341.837       16.823      864.303
03/09/2014  14:50:00     -407.611     -168.519      -15.952      161.110      108.123       67.294    25956.387    11690.679     4528.474       11.848        2.109      441.073       65.023        0.022      341.797       16.755      864.246
03/09/2014  14:51:00     -339.440     -172.484      -31.363      186.122      107.602       66.836    34641.518    11578.210     4467.040        9.831        2.534      380.749       79.113        0.043      341.820       16.793      864.239
03/09/2014  14:52:00     -161.264     -156.596        4.364      134.152      108.920       64.386    17996.879    11863.642     4145.499        4.227        1.700      224.785       57.793        0.066      341.841       16.832      864.224
03/09/2014  14:53:00     -205.543      -60.323       -0.770      153.098       98.344       58.080    23438.883     9671.542     3373.278        4.118        1.824      214.212       68.303        0.102      341.892       16.919      864.220
03/09/2014  14:54:00     -407.065      -98.496       -0.656      204.590      158.204       97.266    41857.265    25028.561     9460.697       12.586        3.817      418.812      103.812        0.061      341.845       16.836      864.193
03/09/2014  14:55:00     -396.214     -164.555        8.780      203.813      208.225       91.759    41539.649    43357.465     8419.627       13.871        4.666      429.027       78.141        0.033      341.799       16.759      864.184
03/09/2014  14:56:00     -396.041     -184.220      -26.212      172.605      196.969       96.427    29792.476    38796.905     9298.119       13.466        3.894      436.790       95.355        0.048      341.779       16.724      864.176
03/09/2014  14:57:00     -327.366     -185.627      -16.537      129.333      133.145       71.594    16726.929    17727.550     5125.762        9.073        1.979      376.332       66.880        0.032      341.780       16.726      864.156
03/09/2014  14:58:00     -194.441      -50.608        5.828      136.586      125.194       74.462    18655.617    15673.450     5544.565        4.013        1.994      200.919       66.837        0.111      341.854       16.851      864.126
03/09/2014  14:59:00     -257.777      -91.640      -11.355      149.580      134.719       76.456    22374.139    18149.294     5845.445        6.066        2.318      273.582       85.057        0.097      341.877       16.891      864.135
03/09/2014  15:00:00     -248.192      -25.185        0.447      132.315      112.453       62.227    17507.157    12645.773     3872.166        4.812        1.701      249.466       70.670        0.080      341.925       16.972      864.152
03/09/2014  15:01:00     -424.498     -153.680       11.519      195.254      146.147       76.736    38124.057    21358.998     5888.459       13.465        3.269      451.460       91.158        0.041      341.870       16.879      864.138
03/09/2014  15:02:00     -560.347     -110.464      -33.155      168.888      129.437       74.926    28523.003    16754.023     5613.866       18.908        2.545      571.131       68.118        0.014      341.837       16.824      864.140
03/09/2014  15:03:00     -406.008      -79.666      -15.758      170.006      132.832       69.092    28902.093    17644.329     4773.760       11.137        2.566      413.750       71.938        0.030      341.858       16.859      864.145
03/09/2014  15:04:00     -309.683       58.532      -13.769      127.479      108.119       65.038    16251.008    11689.671     4229.973        6.584        1.609      315.166       62.724        0.040      341.877       16.891      864.115
03/09/2014  15:05:00     -135.470      -25.406       -2.011       97.994       81.673       52.106     9602.873     6670.487     2714.986        1.899        0.949      137.832       42.380        0.095      341.943       17.005      864.082
03/09/2014  15:06:00     -227.968      -64.090      -13.446      118.260       92.921       53.770    13985.320     8634.399     2891.242        4.088        1.276      236.806       61.548        0.068      342.003       17.105      864.097
03/09/2014  15:07:00     -334.101     -164.917       -7.924      267.276      180.194       88.410    71436.399    32469.712     7816.382       12.528        5.586      372.587      101.745        0.075      342.071       17.223      864.105
03/09/2014  15:08:00     -437.406     -121.646      -12.804      161.260      153.635       92.516    26004.761    23603.612     8559.161       13.222        2.908      454.006       92.972        0.042      342.137       17.332      864.078
03/09/2014  15:09:00     -487.630      -58.628      -28.656      193.351      155.464       76.723    37384.504    24169.031     5886.438       15.473        3.372      491.141       84.328        0.029      342.184       17.413      864.058
03/09/2014  15:10:00     -379.713      -68.555      -13.347      189.966      152.663       79.603    36087.163    23306.098     6336.563       10.738        3.286      385.852       87.632        0.052      342.193       17.429      864.042
03/09/2014  15:11:00     -328.084     -102.886       15.129      194.641      162.146       94.510    37885.235    26291.201     8932.133        9.577        3.655      343.839      106.206        0.095      342.199       17.439      864.024
03/09/2014  15:12:00     -316.598     -177.539      -16.211      198.852      176.658       90.687    39542.313    31208.064     8224.079       10.548        3.949      362.980       97.855        0.073      342.220       17.474      864.006
03/09/2014  15:13:00     -253.036     -166.304       -8.838      184.481      140.614       85.124    34033.083    19772.355     7246.134        7.639        3.053      302.794       88.864        0.086      342.224       17.482      863.996
03/09/2014  15:14:00     -253.272     -205.348        3.165      174.503      128.385       82.920    30451.218    16482.756     6875.661        8.006        2.690      326.059       89.575        0.075      342.224       17.481      863.959
03/09/2014  15:15:00     -416.598     -319.758       -3.269      207.687      149.683       90.079    43133.991    22404.868     8114.152       17.472        3.683      525.166      103.784        0.039      342.215       17.466      864.012
03/09/2014  15:16:00     -350.230     -200.528        0.720      170.146      160.722       85.059    28949.563    25831.625     7235.004       11.243        3.101      403.575       84.356        0.044      342.274       17.566      864.077
03/09/2014  15:17:00     -294.937     -100.161       -4.953      147.397      128.922       76.496    21725.949    16620.987     5851.603        7.061        2.210      311.480       66.507        0.046      342.300       17.609      864.131
03/09/2014  15:18:00     -261.930     -142.613       11.829      152.604      121.243       62.059    23287.832    14699.822     3851.316        6.545        2.092      298.238       64.581        0.047      342.247       17.521      864.152
03/09/2014  15:19:00     -297.349     -275.691       -2.352      172.689      170.547       89.613    29821.456    29086.346     8030.542       11.567        3.347      405.490       80.949        0.040      342.034       17.157      864.118
03/09/2014  15:20:00     -245.581     -206.560       -7.032      139.697      142.413       61.831    19515.337    20281.392     3823.024        7.331        2.181      320.901       75.330        0.055      342.006       17.110      864.094
03/09/2014  15:21:00     -287.291     -195.889       15.814      152.551      104.453       71.634    23271.718    10910.418     5131.369        8.023        1.966      347.719       73.441        0.045      341.953       17.020      864.092
03/09/2014  15:22:00     -234.523     -135.974      -15.018       78.946       63.215       44.650     6232.441     3996.167     1993.608        4.297        0.611      271.090       30.738        0.013      341.978       17.061      864.093
03/09/2014  15:23:00     -174.089      -89.009       -3.995       98.581       98.418       43.402     9718.185     9686.054     1883.738        2.976        1.064      195.523       41.508        0.045      342.005       17.110      864.095
03/09/2014  15:24:00     -369.331     -107.501      -15.169      141.326      121.866       60.160    19972.941    14851.229     3619.266        9.331        1.922      384.658       59.495        0.024      341.924       16.970      864.047
03/09/2014  15:25:00     -233.102     -107.952      -11.817      136.647      126.882       52.773    18672.412    16099.008     2785.041        5.184        1.878      256.886       66.931        0.068      341.956       17.025      864.001
03/09/2014  15:26:00     -111.362      -56.107        2.234       83.004       79.074       32.952     6889.717     6252.716     1085.833        1.489        0.711      124.698       35.765        0.082      341.974       17.058      863.996
03/09/2014  15:27:00     -134.345      -79.450       11.015       84.046      101.801       41.320     7063.664    10363.425     1707.375        2.180        0.957      156.080       44.868        0.083      342.012       17.122      864.027
03/09/2014  15:28:00     -223.603      -87.108       -7.577       99.305       83.794       48.354     9861.466     7021.406     2338.076        3.843        0.961      239.971       50.593        0.044      341.998       17.096      864.013
03/09/2014  15:29:00     -165.938     -118.335        6.700      131.989      109.384       69.818    17421.221    11964.817     4874.600        3.792        1.713      203.810       78.850        0.150      342.050       17.185      863.992
03/09/2014  15:30:00     -203.525      -84.672       -0.353      106.742       98.488       54.449    11393.768     9699.844     2964.687        3.632        1.203      220.435       51.412        0.054      342.097       17.265      863.986
03/09/2014  15:31:00     -260.982     -209.442       -5.810      117.634      117.639       52.896    13837.855    13838.976     2798.005        7.124        1.524      334.630       53.337        0.025      342.107       17.282      864.026
03/09/2014  15:32:00     -148.370       -1.117        5.812      129.428       93.879       35.516    16751.703     8813.176     1261.417        2.443        1.341      148.375       55.503        0.140      342.157       17.371      864.019
03/09/2014  15:33:00      -69.239      -59.282       -1.813       60.653       38.128       19.644     3678.731     1453.763      385.887        0.691        0.276       91.150       21.688        0.057      342.133       17.329      864.011
03/09/2014  15:34:00      -61.498     -122.706       -2.987       51.620       49.557       30.412     2664.616     2455.928      924.886        1.245        0.302      137.254       18.411        0.018      342.147       17.355      864.026
03/09/2014  15:35:00      -94.313     -119.909        2.332       78.676       59.298       31.374     6189.911     3516.264      984.305        1.698        0.535      152.555       30.208        0.039      342.133       17.331      864.032
03/09/2014  15:36:00     -158.361     -136.169       -7.873       65.879       70.823       41.483     4340.038     5015.934     1720.838        2.738        0.554      208.854       28.181        0.018      342.104       17.277      864.050
03/09/2014  15:37:00     -190.425     -153.915       -0.752      115.749       93.300       48.771    13397.853     8704.901     2378.648        4.221        1.224      244.850       50.387        0.042      342.094       17.259      864.065
03/09/2014  15:38:00     -360.704     -208.160        0.229      196.078      161.958       91.769    38446.495    26230.416     8421.494       12.325        3.655      416.459       83.956        0.041      342.156       17.364      864.045
03/09/2014  15:39:00     -397.730     -272.592      -12.992      260.650      184.597      101.395    67938.283    34076.122    10280.852       17.246        5.615      482.178      118.525        0.060      342.231       17.493      863.932
03/09/2014  15:40:00     -431.648     -336.086      -15.684      235.238      179.619      102.762    55336.742    32262.947    10560.023       19.882        4.908      547.059      105.371        0.037      342.226       17.483      863.950
03/09/2014  15:41:00     -197.235      -91.061       20.940      191.242      112.419       68.175    36573.579    12637.960     4647.800        5.074        2.693      217.241       69.967        0.104      342.246       17.519      863.992
03/09/2014  15:42:00       34.173      -63.683       -6.801       46.578       45.276       43.466     2169.465     2049.938     1889.308        0.569        0.305       72.273       32.826        0.206      342.272       17.567      863.978
03/09/2014  15:43:00     -162.116      -51.017       -5.928      129.098       88.998       51.116    16666.272     7920.695     2612.842        2.805        1.360      169.954       48.816        0.083      342.257       17.539      863.983
03/09/2014  15:44:00     -116.794      -78.252       -5.787      114.934       76.371       42.300    13209.755     5832.548     1789.278        2.031        1.042      140.585       45.714        0.106      342.265       17.553      863.939
03/09/2014  15:45:00      -24.721     -109.404       -1.297       66.655       76.105       32.370     4442.942     5792.035     1047.841        1.193        0.564      112.162       25.972        0.054      342.322       17.649      863.939
03/09/2014  15:46:00       21.784     -121.731        3.511       79.440       94.279       48.213     6310.754     8888.572     2324.512        1.641        0.876      123.665       45.200        0.134      342.429       17.831      863.968
03/09/2014  15:47:00       76.069     -213.992      -16.370      115.142       91.182       60.307    13257.644     8314.207     3636.989        3.852        1.260      227.110       56.224        0.061      342.333       17.665      863.969
03/09/2014  15:48:00     -231.382      -91.063       18.120      132.375       77.222       51.808    17523.262     5963.253     2684.050        4.416        1.309      248.656       50.134        0.041      342.185       17.416      863.992
03/09/2014  15:49:00     -220.459     -193.207      -13.327       79.507       64.354       43.400     6321.378     4141.386     1883.558        4.922        0.617      293.140       27.821        0.009      342.142       17.340      863.998
03/09/2014  15:50:00     -228.317     -170.748       -1.140      128.717      105.430       59.658    16568.080    11115.430     3559.080        5.626        1.562      285.102       61.577        0.047      342.116       17.297      863.994
03/09/2014  15:51:00     -314.292     -134.592      -26.177      133.952      130.187       61.016    17943.091    16948.619     3723.009        7.809        1.931      341.898       52.419        0.024      342.153       17.360      863.965
03/09/2014  15:52:00     -155.731      -48.961       15.251      190.903       90.036       61.376    36443.843     8106.409     3766.971        3.759        2.416      163.246       82.121        0.253      342.190       17.425      863.966
03/09/2014  15:53:00     -132.070     -108.177       -2.444       99.594       97.907       45.835     9918.952     9585.765     2100.850        2.537        1.080      170.718       44.828        0.069      342.117       17.298      863.975
03/09/2014  15:54:00     -142.388     -107.142        1.688       94.327       61.789       42.795     8897.573     3817.938     1831.397        2.315        0.727      178.196       43.498        0.060      342.099       17.268      863.960
03/09/2014  15:55:00     -283.260     -217.276        1.711      138.104      130.213       67.020    19072.639    16955.452     4491.706        8.398        2.026      356.995       72.385        0.041      341.998       17.096      863.939
03/09/2014  15:56:00     -287.423     -131.567        6.022      174.830      119.687       72.132    30565.436    14325.041     5203.049        7.502        2.505      316.104       81.435        0.066      341.983       17.072      863.896
03/09/2014  15:57:00     -306.239     -102.418      -10.539      155.277      122.891       70.429    24110.888    15102.130     4960.177        7.427        2.209      322.911       78.262        0.059      341.969       17.048      863.845
03/09/2014  15:58:00      -92.867      -48.284       -2.890       82.688       80.137       41.439     6837.350     6421.866     1717.185        1.297        0.749      104.669       36.919        0.124      342.015       17.129      863.826
03/09/2014  15:59:00     -112.426      -24.808       -1.128       71.004       61.756       39.557     5041.564     3813.836     1564.718        1.184        0.521      115.130       40.530        0.124      342.025       17.146      863.806
03/09/2014  16:00:00     -215.479      -53.750      -10.400      100.882       93.326       44.270    10177.246     8709.783     1959.875        3.513        1.042      222.082       41.470        0.035      342.023       17.141      863.778
03/09/2014  16:01:00     -311.962      -47.337       -1.613      160.635      136.307       65.223    25803.558    18579.728     4254.013        7.409        2.432      315.533       71.969        0.052      342.013       17.123      863.751
03/09/2014  16:02:00     -280.815     -103.207       11.532      214.311      158.281       88.436    45929.392    25052.865     7820.995        8.421        3.940      299.180      103.060        0.119      341.931       16.982      863.730
03/09/2014  16:03:00     -239.473      -79.911       -9.497      147.488       98.809       59.574    21752.763     9763.200     3549.020        4.944        1.753      252.454       65.039        0.066      341.954       17.022      863.768
03/09/2014  16:04:00     -353.130      -72.870      -27.580      133.280       96.708       59.263    17763.474     9352.442     3512.134        8.069        1.531      360.571       59.207        0.027      341.921       16.966      863.748
03/09/2014  16:05:00     -193.429      -92.271        6.181      118.341      123.039       51.891    14004.680    15138.672     2692.649        3.890        1.592      214.310       49.588        0.054      341.950       17.016      863.757
03/09/2014  16:06:00      -71.539      -91.323       23.652       90.842       89.894       48.960     8252.340     8080.898     2397.071        1.637        0.937      116.007       51.878        0.200      341.979       17.066      863.761
03/09/2014  16:07:00      -75.538      -86.507       10.842      102.627       70.923       53.641    10532.213     5030.082     2877.307        1.587        0.922      114.845       51.539        0.201      341.974       17.060      863.746
03/09/2014  16:08:00     -327.570     -101.184      -16.905      130.692      119.270       57.629    17080.435    14225.450     3321.142        7.622        1.731      342.841       48.422        0.020      341.952       17.018      863.696
03/09/2014  16:09:00     -172.909      -38.514       15.214      156.336      122.325       54.702    24440.943    14963.492     2992.296        3.700        2.120      177.146       61.854        0.122      341.980       17.068      863.700
03/09/2014  16:10:00     -231.021     -139.822       -0.899      113.400      136.524       59.386    12859.536    18638.741     3526.663        5.397        1.751      270.039       52.922        0.038      341.977       17.062      863.669
03/09/2014  16:11:00     -160.702     -115.687       -0.278      120.942       90.028       60.442    14626.982     8105.078     3653.200        3.279        1.319      198.012       56.713        0.082      341.969       17.050      863.576
03/09/2014  16:12:00     -241.825     -149.978       -1.693      157.478       98.057       63.425    24799.478     9615.081     4022.754        5.970        1.922      284.556       68.571        0.058      342.001       17.102      863.551
03/09/2014  16:13:00     -421.185      -58.722      -14.327      184.542      130.549       74.714    34055.762    17043.001     5582.194       11.885        2.834      425.259       79.377        0.035      341.963       17.037      863.508
03/09/2014  16:14:00     -395.150     -179.496      -17.635      205.492      206.690      101.631    42226.829    42720.696    10328.786       14.196        4.764      434.007      111.481        0.066      341.900       16.930      863.437
03/09/2014  16:15:00     -284.840     -105.355       -0.149      197.643      126.076       67.309    39062.898    15895.119     4530.492        7.585        2.974      303.699       83.032        0.075      341.909       16.947      863.372
03/09/2014  16:16:00     -256.180      -96.481        8.631      140.483      118.409       64.540    19735.574    14020.734     4165.354        5.646        1.896      273.746       76.076        0.077      341.922       16.967      863.346
03/09/2014  16:17:00     -286.344     -172.152      -10.439      113.760       94.822       57.539    12941.260     8991.281     3310.768        6.849        1.262      334.109       60.140        0.032      341.949       17.014      863.336
03/09/2014  16:18:00     -127.599     -112.760       21.152      121.984       92.153       63.843    14879.982     8492.135     4075.954        2.844        1.372      170.283       70.838        0.173      341.994       17.091      863.367
03/09/2014  16:19:00     -165.011     -105.525       11.362      137.504       95.077       57.614    18907.459     9039.690     3319.357        3.487        1.563      195.868       59.716        0.093      342.019       17.132      863.388
03/09/2014  16:20:00     -209.070      -70.002       -3.368      118.591       76.934       42.348    14063.878     5918.874     1793.358        3.519        1.089      220.478       44.748        0.041      341.997       17.097      863.371
03/09/2014  16:21:00     -234.197     -121.396      -10.386       97.096       74.201       51.613     9427.586     5505.725     2663.904        4.364        0.880      263.790       48.998        0.035      341.981       17.067      863.323
03/09/2014  16:22:00     -358.256     -170.587      -13.649      197.837      154.382       78.754    39139.323    23833.760     6202.202       11.339        3.459      396.796       89.686        0.051      341.948       17.012      863.292
03/09/2014  16:23:00     -272.941     -236.649        1.459      151.190      140.633       70.357    22858.422    19777.763     4950.080        8.903        2.379      361.247       73.821        0.042      341.926       16.975      863.307
03/09/2014  16:24:00     -219.454     -147.694        6.035      136.002      113.801       75.627    18496.505    12950.724     5719.407        5.358        1.858      264.525       81.099        0.094      341.935       16.992      863.335
03/09/2014  16:25:00     -286.747     -178.463      -18.919      106.771      101.772       53.954    11400.097    10357.562     2911.086        6.954        1.233      337.747       47.210        0.020      341.909       16.945      863.343
03/09/2014  16:26:00     -172.782     -126.622      -18.860      124.586      104.268       52.041    15521.660    10871.822     2708.284        3.767        1.455      214.212       37.738        0.031      341.921       16.966      863.344
03/09/2014  16:27:00      -89.927     -152.923       -1.673      131.880      133.391       44.879    17392.293    17793.066     2014.127        3.433        1.860      177.405       59.091        0.111      341.998       17.095      863.412
03/09/2014  16:28:00       10.321      -84.311       32.182      127.064      103.886       50.922    16145.247    10792.320     2593.087        1.888        1.477       84.941       41.047        0.234      342.066       17.214      863.367
03/09/2014  16:29:00     -137.413     -182.683        3.371      152.081      142.809       66.776    23128.752    20394.395     4459.027        5.011        2.399      228.595       69.867        0.093      342.026       17.146      863.454
03/09/2014  16:30:00     -196.597     -294.017       -8.705      142.264      150.621       62.287    20238.985    22686.664     3879.694        8.598        2.340      353.690       51.336        0.021      342.045       17.177      863.462
03/09/2014  16:31:00     -250.100     -221.441      -21.419      152.547      141.631       62.312    23270.541    20059.391     3882.787        7.962        2.361      334.045       60.795        0.033      342.021       17.136      863.489
03/09/2014  16:32:00     -233.078     -143.772       18.572      180.897      102.684       59.473    32723.812    10544.022     3536.987        6.106        2.340      273.853       58.618        0.046      341.994       17.091      863.481
03/09/2014  16:33:00      -77.760      -78.002        6.600      112.275       67.437       45.816    12605.605     4547.768     2099.090        1.571        0.963      110.140       57.696        0.274      342.026       17.147      863.456
03/09/2014  16:34:00     -114.675      -84.294        2.843       62.073       72.705       42.132     3853.028     5285.992     1775.088        1.559        0.546      142.323       37.007        0.068      342.020       17.137      863.447
03/09/2014  16:35:00      -77.655     -118.968       13.568       89.136       92.410       53.103     7945.213     8539.643     2819.903        1.983        0.965      142.069       56.802        0.160      342.030       17.153      863.439
03/09/2014  16:36:00      -34.635      -93.681       -6.768       93.619       63.387       36.455     8764.488     4017.894     1328.982        1.206        0.706       99.879       32.803        0.108      342.078       17.236      863.438
03/09/2014  16:37:00      -58.577      -92.208        4.686      115.201      109.125       47.903    13271.159    11908.324     2294.657        1.971        1.374      109.241       28.545        0.068      342.101       17.274      863.420
03/09/2014  16:38:00       33.902      -88.243       -0.855       85.491       78.483       37.427     7308.786     6159.617     1400.768        1.190        0.743       94.531       40.170        0.181      342.103       17.278      863.414
03/09/2014  16:39:00       37.918     -111.339      -18.971       76.825       99.407       52.474     5902.019     9881.657     2753.554        1.636        0.927      117.619       49.139        0.175      342.098       17.267      863.422
03/09/2014  16:40:00      -11.545      -29.421      116.516      168.842      217.310      134.563    28507.664    47223.546    18107.137        5.419        4.692       31.606      152.984       23.429      342.052       17.188      863.274
03/09/2014  16:41:00     -110.177     -122.380       21.610      147.725      110.407       70.140    21822.716    12189.814     4919.637        3.325        1.947      164.669       66.887        0.165      341.975       17.059      863.357
03/09/2014  16:42:00     -123.790     -187.459       -2.489       94.785      103.083       46.183     8984.201    10626.044     2132.825        3.610        1.087      224.644       44.243        0.039      341.922       16.967      863.429
03/09/2014  16:43:00     -257.430      -87.029       -4.454      203.954      126.330       80.586    41597.435    15959.341     6494.099        6.894        3.203      271.743      102.784        0.143      341.849       16.844      863.419
03/09/2014  16:44:00     -160.585     -104.719        0.088      106.656       93.680       58.824    11375.586     8775.939     3460.227        3.018        1.181      191.712       64.018        0.112      341.836       16.822      863.402
03/09/2014  16:45:00     -136.990     -121.226        5.263      119.450       81.358       50.994    14268.384     6619.085     2600.384        2.848        1.174      182.927       47.728        0.068      341.823       16.801      863.403
03/09/2014  16:46:00     -172.807     -146.030       -4.408       99.461       97.139       59.628     9892.398     9435.958     3555.526        3.704        1.144      226.245       51.226        0.051      341.805       16.768      863.435
03/09/2014  16:47:00     -229.783     -153.222       -2.795      132.964      104.983       63.494    17679.328    11021.372     4031.470        5.450        1.637      276.183       60.650        0.048      341.791       16.746      863.458
03/09/2014  16:48:00     -371.902     -214.853      -20.894      186.551      117.110       80.353    34801.314    13714.758     6456.660       11.993        2.749      429.503       96.724        0.051      341.753       16.679      863.461
03/09/2014  16:49:00     -281.047     -218.003       -8.611      149.119      125.919       63.335    22236.366    15855.542     4011.355        8.434        2.105      355.686       59.951        0.028      341.735       16.651      863.436
03/09/2014  16:50:00     -229.393     -204.425       -3.010      167.387      113.176       78.250    28018.558    12808.804     6123.057        7.068        2.348      307.263       89.995        0.086      341.756       16.685      863.432
03/09/2014  16:51:00     -348.188     -235.293      -12.753      148.663      139.854       75.880    22100.799    19559.094     5757.838       11.208        2.371      420.235       81.367        0.037      341.751       16.676      863.425
03/09/2014  16:52:00     -189.044      -59.717       15.562      186.742      123.044       67.520    34872.599    15139.767     4558.908        4.705        2.729      198.252       78.193        0.156      341.834       16.819      863.421
03/09/2014  16:53:00     -259.941      -70.414       -1.623      108.490       84.446       57.431    11770.146     7131.047     3298.309        4.736        1.110      269.309       54.358        0.041      341.799       16.759      863.445
03/09/2014  16:54:00     -221.651     -157.870       14.195      173.434      129.225       91.952    30079.263    16699.228     8455.249        6.473        2.762      272.125       95.615        0.123      341.811       16.780      863.456
03/09/2014  16:55:00     -441.506     -302.839      -14.819      181.258      141.659       84.051    32854.409    20067.255     7064.616       17.341        2.999      535.387       87.868        0.027      341.763       16.698      863.409
03/09/2014  16:56:00     -298.864     -276.685       -5.101      154.946      135.255       67.087    24008.368    18294.013     4500.614       10.634        2.340      407.276       58.827        0.021      341.762       16.695      863.409
03/09/2014  16:57:00     -321.304     -194.172       -7.040      122.180       73.728       61.015    14928.028     5435.830     3722.827        8.253        1.204      375.419       58.024        0.024      341.755       16.683      863.367
03/09/2014  16:58:00     -178.330      -79.631       -8.416       94.264       53.838       41.292     8885.626     2898.556     1705.061        2.585        0.674      195.301       37.343        0.037      341.764       16.699      863.346
03/09/2014  16:59:00     -324.377       -9.307        6.416      190.814       97.716       68.287    36410.056     9548.341     4663.126        7.797        2.531      324.511       80.440        0.061      341.779       16.723      863.355
03/09/2014  17:00:00     -394.243     -156.218      -17.620      165.655      139.086       68.426    27441.622    19345.045     4682.173       11.580        2.573      424.066       76.964        0.033      341.788       16.741      863.366
03/09/2014  17:01:00     -364.054     -108.747      -12.998      140.904      169.325       76.327    19853.973    28670.931     5825.818        9.943        2.718      379.949       69.538        0.033      341.780       16.726      863.362
03/09/2014  17:02:00     -320.658     -212.206      -21.866      213.494      126.738       84.141    45579.844    16062.540     7079.785       10.851        3.436      384.517       98.470        0.066      341.759       16.691      863.357
03/09/2014  17:03:00     -330.923     -203.722      -14.595      149.855      117.171       73.859    22456.427    13729.095     5455.084        9.642        2.082      388.603       65.518        0.028      341.762       16.694      863.352
03/09/2014  17:04:00     -312.689     -103.066      -13.079      137.628      111.948       68.941    18941.549    12532.417     4752.829        7.239        1.811      329.237       81.815        0.062      341.767       16.702      863.326
03/09/2014  17:05:00     -314.131      -52.056      -12.747      190.744      158.314       73.497    36383.094    25063.429     5401.862        8.419        3.342      318.415       72.224        0.051      341.781       16.727      863.263
03/09/2014  17:06:00     -259.199     -159.845       11.570      155.604      124.798       63.106    24212.487    15574.521     3982.334        6.831        2.188      304.524       54.162        0.032      341.797       16.755      863.265
03/09/2014  17:07:00     -317.533     -235.822       -3.119      173.245      219.844       85.420    30013.908    48331.173     7296.651       12.103        4.282      395.524       93.482        0.056      341.847       16.841      863.283
03/09/2014  17:08:00     -332.728     -141.819       13.339      198.869      170.555       84.666    39548.791    29088.879     7168.320       10.339        3.790      361.691      102.531        0.080      341.881       16.898      863.263
03/09/2014  17:09:00     -430.944     -175.427        7.631      203.769      162.768       84.347    41521.716    26493.312     7114.370       14.582        3.756      465.282       97.947        0.044      341.871       16.880      863.210
03/09/2014  17:10:00     -324.523     -163.579      -13.951      184.367      108.877       71.830    33991.070    11854.238     5159.503        9.163        2.550      363.419       82.131        0.051      341.866       16.873      863.254
03/09/2014  17:11:00     -279.017      -95.613      -15.796      111.757      149.083       63.607    12489.630    22225.636     4045.876        6.299        1.938      294.944       60.361        0.042      341.871       16.881      863.287
03/09/2014  17:12:00     -296.491     -112.349      -11.463      130.575      100.025       54.223    17049.927    10004.953     2940.091        6.532        1.500      317.063       56.009        0.031      341.827       16.806      863.311
03/09/2014  17:13:00     -193.184      -95.800       -0.730      123.711      126.120       51.625    15304.297    15906.242     2665.169        4.018        1.694      215.633       52.133        0.058      341.820       16.796      863.318
03/09/2014  17:14:00     -156.118     -154.314        0.359      112.596       86.459       47.188    12677.944     7475.189     2226.683        3.528        1.119      219.512       49.057        0.050      341.820       16.795      863.306
03/09/2014  17:15:00     -374.504     -240.790      -22.163      122.301      121.314       61.577    14957.424    14717.126     3791.728       11.609        1.673      445.234       60.245        0.018      341.792       16.745      863.261
03/09/2014  17:16:00     -127.146      -90.793       14.856      143.793       77.148       58.524    20676.502     5951.844     3425.019        2.734        1.503      156.236       72.116        0.213      341.822       16.799      863.246
03/09/2014  17:17:00      -35.486     -152.399       21.932      101.318       85.098       58.890    10265.264     7241.586     3468.031        2.297        1.049      156.476       63.042        0.162      341.878       16.894      863.251
03/09/2014  17:18:00     -166.531     -165.985       -2.494       88.788       93.560       43.032     7883.335     8753.498     1851.713        3.689        0.924      235.125       49.291        0.044      341.854       16.854      863.261
03/09/2014  17:19:00     -112.407     -119.951       13.177       92.691       81.996       46.028     8591.562     6723.381     2118.532        2.231        0.872      164.388       42.682        0.067      341.866       16.875      863.252
03/09/2014  17:20:00     -213.023     -141.207        2.050       86.855       54.302       48.492     7543.789     2948.690     2351.428        3.908        0.642      255.575       47.316        0.034      341.850       16.844      863.255
03/09/2014  17:21:00     -149.595      -79.413       -8.762       66.074       55.083       32.724     4365.756     3034.095     1070.879        1.861        0.424      169.366       20.668        0.015      341.856       16.857      863.238
03/09/2014  17:22:00      -41.366      -55.192       13.971       65.940       55.856       34.306     4348.141     3119.894     1176.901        0.680        0.432       68.973       29.617        0.184      341.903       16.937      863.206
03/09/2014  17:23:00       -6.755      -75.889       -6.160       81.804       54.399       38.051     6691.876     2959.236     1447.861        0.847        0.555       76.189       25.142        0.109      341.986       17.080      863.202
03/09/2014  17:24:00      -15.139     -128.354       18.065      114.293       79.792       52.221    13062.923     6366.821     2727.085        1.959        1.108      129.243       42.614        0.109      341.997       17.096      863.209
03/09/2014  17:25:00     -152.206     -120.459        2.958       65.947       48.978       33.597     4349.027     2398.852     1128.769        2.278        0.394      194.106       29.368        0.023      341.931       16.982      863.166
03/09/2014  17:26:00      -43.850      -78.426        6.297       63.345       81.022       41.178     4012.540     6564.645     1695.654        1.019        0.614       89.852       51.536        0.329      341.963       17.040      863.150
03/09/2014  17:27:00       16.244      -52.780       35.313       97.368      110.101       71.217     9480.552    12122.247     5071.926        1.548        1.334       55.223       69.688        1.592      342.021       17.138      863.111
03/09/2014  17:28:00      -64.549      -92.846        7.491       94.379       74.787       39.609     8907.426     5593.115     1568.835        1.445        0.803      113.079       13.232        0.014      342.008       17.117      863.188
03/09/2014  17:29:00     -146.594      -51.514       -7.298       70.513       66.960       33.861     4972.031     4483.610     1146.585        1.740        0.530      155.382       23.289        0.022      341.986       17.079      863.202
03/09/2014  17:30:00      -15.523      -91.735       13.906       66.523       94.565       51.272     4425.330     8942.618     2628.803        1.242        0.800       93.039       49.909        0.288      341.989       17.085      863.171
03/09/2014  17:31:00      -69.237      -65.646      -11.116       55.970       55.958       39.308     3132.587     3131.325     1545.095        0.852        0.390       95.411       39.062        0.168      342.050       17.188      863.151
03/09/2014  17:32:00      -36.452     -247.917      -14.454      106.246      110.146       45.333    11288.114    12132.183     2055.065        4.423        1.274      250.583       35.880        0.021      341.958       17.028      863.171
03/09/2014  17:33:00       41.618      -62.467       20.118       66.519       87.003       65.101     4424.729     7569.476     4238.173        1.113        0.812       75.061       65.934        0.772      341.946       17.009      863.123
03/09/2014  17:34:00        9.942      -25.264       14.779       39.389       57.387       44.961     1551.487     3293.324     2021.500        0.391        0.343       27.149       26.722        0.969      341.932       16.985      863.107
03/09/2014  17:35:00      -17.426      -24.609       18.828       49.478       57.216       29.369     2448.085     3273.625      862.537        0.392        0.329       30.154       31.473        1.089      341.944       17.010      863.085
03/09/2014  17:36:00       39.219      -42.988        5.117       51.734       83.729       29.661     2676.386     7010.479      879.771        0.699        0.528       58.190       39.295        0.456      341.936       16.993      863.094
03/09/2014  17:37:00      113.138      -48.410       23.171       79.895       66.403       42.186     6383.167     4409.356     1779.663        1.412        0.629      123.060       48.357        0.154      341.915       16.958      863.112
03/09/2014  17:38:00        3.118        5.060       48.508       75.417       90.132       62.812     5687.659     8123.724     3945.363        1.007        0.888        5.943       70.412      140.366      341.976       17.063      863.095
03/09/2014  17:39:00       52.765       56.968       72.906       47.847       40.850       34.164     2289.340     1668.759     1167.207        0.823        0.256       77.650       33.202        0.183      341.915       16.960      863.095
03/09/2014  17:40:00       32.439      -17.333       27.882       40.742       54.398       30.605     1659.935     2959.161      936.645        0.384        0.278       36.779       36.086        0.963      341.947       17.013      863.115
03/09/2014  17:41:00       83.315      -72.509       -7.473       28.485       34.872       13.999      811.393     1216.028      195.964        0.724        0.111      110.449        5.263        0.002      341.913       16.956      863.129
03/09/2014  17:42:00       60.715      -21.903       20.794       48.726       53.613       35.561     2374.189     2874.332     1264.590        0.555        0.326       64.545       37.691        0.341      341.887       16.912      863.144
03/09/2014  17:43:00      -32.158      -91.429      -14.718       34.604       56.748       39.973     1197.409     3220.369     1597.829        0.781        0.301       96.919       38.066        0.154      341.946       17.009      863.158
03/09/2014  17:44:00      -82.448     -124.369       -0.384       52.349       55.958       24.040     2740.425     3131.269      577.934        1.436        0.322      149.216       23.438        0.025      341.984       17.076      863.193
03/09/2014  17:45:00      -84.073      -52.152        6.261       75.763       48.766       28.854     5740.004     2378.125      832.548        0.939        0.448       98.935       33.732        0.116      341.907       16.945      863.188
03/09/2014  17:46:00       13.243       20.270       18.433       39.132       29.376       31.320     1531.308      862.923      980.953        0.215        0.169       24.212       26.185        1.170      341.918       16.965      863.170
03/09/2014  17:47:00       -5.440      -43.338       -0.691       29.041       40.670       40.180      843.397     1654.089     1614.428        0.301        0.206       43.678       35.504        0.661      341.941       17.003      863.164
03/09/2014  17:48:00      -43.000      -39.130       -3.238       32.351       46.805       19.815     1046.598     2190.748      392.625        0.351        0.181       58.139       17.103        0.087      341.911       16.956      863.178
03/09/2014  17:49:00       11.701       56.153       72.908       40.734       54.196       51.796     1659.247     2937.243     2682.822        0.794        0.364       57.359       44.431        0.600      341.910       16.951      863.153
03/09/2014  17:50:00       75.012      -44.289       55.642       89.181      146.015       74.008     7953.225    21320.301     5477.182        2.271        1.738       87.110      103.650        1.416      341.881       16.900      863.148
03/09/2014  17:51:00       84.251     -156.512      -26.314      102.166       64.797       38.667    10437.860     4198.696     1495.112        2.421        0.807      177.748       28.076        0.025      341.865       16.872      863.196
03/09/2014  17:52:00      -53.768      -32.729       13.437       45.617       29.425       21.382     2080.870      865.820      457.179        0.377        0.170       62.946       16.186        0.066      341.899       16.934      863.225
03/09/2014  17:53:00        4.349      -21.752       16.161       40.510       57.098       39.411     1641.035     3260.138     1553.189        0.360        0.323       22.183       44.005        3.935      341.936       16.994      863.194
03/09/2014  17:54:00       50.089       -3.692       51.033       56.165       66.288       45.340     3154.461     4394.156     2055.705        0.736        0.480       50.225       46.234        0.847      341.873       16.889      863.159
03/09/2014  17:55:00       20.058       -9.785       48.692       34.369       58.175       46.489     1181.228     3384.295     2161.188        0.480        0.336       22.318       41.932        3.530      341.871       16.885      863.123
03/09/2014  17:56:00        2.572      -50.584       38.638       66.241       77.881       60.450     4387.878     6065.379     3654.242        0.908        0.705       50.650       48.520        0.918      341.826       16.808      863.104
03/09/2014  17:57:00       15.650      -51.196       -2.299       45.843       29.367       25.017     2101.592      862.405      625.860        0.323        0.179       53.535       20.582        0.148      341.867       16.877      863.109
03/09/2014  17:58:00       31.767      -15.087       46.470       52.688       84.275       54.586     2776.013     7102.255     2979.585        0.812        0.643       35.168       58.825        2.798      341.845       16.842      863.089
03/09/2014  17:59:00      -36.959      -22.666       31.672       45.434       42.576       43.051     2064.259     1812.718     1853.387        0.431        0.287       43.355       37.960        0.767      341.863       16.871      863.087
03/09/2014  18:00:00     -189.006      -77.598       -5.445       68.125       43.694       29.647     4640.973     1909.137      878.941        2.460        0.371      204.315       28.240        0.019      341.807       16.772      863.101
03/09/2014  18:01:00      -60.859      -70.850        9.751       59.502       49.213       30.786     3540.534     2421.968      947.759        0.786        0.346       93.400       23.598        0.064      341.810       16.782      863.055
03/09/2014  18:02:00      -59.945      -39.208        9.715       73.830       79.439       45.787     5450.862     6310.565     2096.414        0.954        0.693       71.629       48.770        0.464      341.848       16.845      862.988
03/09/2014  18:03:00      -37.278      -55.737       11.456      106.537       87.154       42.512    11350.027     7595.837     1807.236        1.269        1.038       67.054       47.722        0.506      341.923       16.973      862.996
03/09/2014  18:04:00       26.033      -10.458      -10.587      127.318      103.132       63.158    16209.988    10636.161     3988.935        1.586        1.542       28.055       35.401        1.592      341.946       17.009      862.897
03/09/2014  18:05:00      -13.215     -110.686        0.644       78.009       45.743       37.151     6085.338     2092.436     1380.171        1.099        0.478      111.472       23.224        0.043      341.930       16.983      862.876
03/09/2014  18:06:00      119.089     -151.439      -33.001       90.637      107.657       57.392     8215.109    11590.125     3293.799        3.065        1.155      192.655       61.954        0.103      341.874       16.887      862.869
03/09/2014  18:07:00       33.618       26.430      117.751       63.894      112.893       74.478     4082.494    12744.913     5547.010        1.903        1.119       42.764       84.815        3.934      341.812       16.785      862.843
03/09/2014  18:08:00      137.002     -186.482      -17.253       89.275       51.698       37.162     7969.957     2672.683     1381.025        3.293        0.601      231.398       39.542        0.029      341.841       16.830      862.900
03/09/2014  18:09:00       10.300        0.166       37.494       36.766       48.833       35.538     1351.718     2384.617     1262.959        0.325        0.250       10.301       35.774       12.060      341.865       16.876      862.884
03/09/2014  18:10:00       -0.393      -31.114       34.314       26.462       67.377       39.159      700.232     4539.711     1533.411        0.446        0.339       31.116       44.663        2.060      341.859       16.864      862.890
03/09/2014  18:11:00      -27.613       -3.710       23.030       39.890       37.093       23.768     1591.223     1375.914      564.905        0.242        0.177       27.861       18.413        0.437      341.886       16.909      862.890
03/09/2014  18:12:00       -6.843      -19.802       15.371       29.478       22.859       13.185      868.972      522.517      173.833        0.112        0.078       20.951       12.185        0.338      341.886       16.909      862.874
03/09/2014  18:13:00      -73.283      -30.843       -0.875       26.446       21.149       17.095      699.410      447.275      292.244        0.388        0.072       79.509       11.109        0.020      341.838       16.828      862.854
03/09/2014  18:14:00      -63.665      -80.828       -3.597       26.514       45.301       20.980      702.990     2052.176      440.155        0.690        0.160      102.890       12.384        0.014      341.864       16.874      862.866
03/09/2014  18:15:00      -46.869     -107.849       -3.057       53.889       76.237       32.775     2904.071     5812.044     1074.184        1.181        0.490      117.593       31.344        0.071      341.856       16.858      862.910
03/09/2014  18:16:00       11.544        9.451       35.649       63.627       46.812       39.074     4048.383     2191.335     1526.801        0.463        0.388       14.919       23.342        2.448      341.883       16.906      862.817
03/09/2014  18:17:00     -119.010     -182.440       -9.036      136.592      172.687       68.150    18657.433    29820.700     4644.436        5.032        2.656      217.825       76.467        0.123      341.866       16.875      862.852
03/09/2014  18:18:00     -168.016     -279.143      -29.653      177.156      207.601       85.282    31384.360    43098.062     7273.021        9.438        4.088      325.808       86.127        0.070      341.867       16.874      862.859
03/09/2014  18:19:00     -152.149     -169.027        6.490      151.878       85.045       59.605    23066.779     7232.596     3552.736        4.280        1.693      227.419       61.663        0.074      341.843       16.834      862.893
03/09/2014  18:20:00     -113.963     -217.334       -7.760      123.820       94.938       56.615    15331.434     9013.214     3205.303        4.391        1.377      245.401       65.469        0.071      341.859       16.860      862.915
03/09/2014  18:21:00      -77.907     -159.580       11.307       92.863       94.178       42.030     8623.486     8869.494     1766.519        2.546        0.963      177.582       43.620        0.060      341.838       16.826      862.924
03/09/2014  18:22:00     -147.826     -129.601       -1.972      125.927       83.273       62.608    15857.673     6934.475     3919.761        3.268        1.336      196.593       52.642        0.072      341.833       16.819      862.886
03/09/2014  18:23:00      -45.349      -75.601       17.669       76.096       59.128       38.848     5790.536     3496.080     1509.179        0.944        0.540       88.159       37.274        0.179      341.787       16.742      862.891
03/09/2014  18:24:00      -89.709     -152.287        5.998      127.050      115.487       54.943    16141.687    13337.299     3018.726        3.188        1.625      176.745        9.409        0.003      341.823       16.802      862.858
03/09/2014  18:25:00     -180.690     -192.348        7.530      157.591       90.162       59.041    24834.826     8129.212     3485.829        5.307        1.822      263.906       59.741        0.051      341.800       16.761      862.833
03/09/2014  18:26:00     -165.229      -58.682       21.054      159.977      106.911       63.112    25592.797    11429.891     3983.154        3.609        2.050      175.340       71.479        0.166      341.776       16.721      862.809
03/09/2014  18:27:00      -55.708     -198.927        5.486      111.715      115.940       61.282    12480.338    13442.187     3755.443        3.619        1.484      206.580       58.867        0.081      341.801       16.765      862.813
03/09/2014  18:28:00     -314.698     -162.936        1.975      208.990      142.650       76.278    43676.642    20348.996     5818.385        9.770        3.492      354.376       88.853        0.063      341.789       16.742      862.815
03/09/2014  18:29:00     -306.978     -204.423       -9.198      168.910      166.868       75.168    28530.740    27844.997     5650.200        9.905        3.101      368.814       77.739        0.044      341.791       16.744      862.800
03/09/2014  18:30:00     -224.897     -154.831        6.381      144.189      136.727       76.283    20790.558    18694.275     5819.096        5.994        2.265      273.040       85.428        0.098      341.773       16.716      862.788
03/09/2014  18:31:00     -195.592     -195.445       -1.118      121.448       94.442       52.553    14749.658     8919.332     2761.840        5.144        1.322      276.505       53.566        0.038      341.768       16.703      862.786
03/09/2014  18:32:00     -226.821     -236.059       -8.414      158.767      162.472       71.379    25207.069    26397.146     5095.006        8.196        2.835      327.371       67.818        0.043      341.752       16.678      862.791
03/09/2014  18:33:00     -125.549     -223.748        1.863      120.003      121.982       69.469    14400.775    14879.717     4825.957        4.996        1.705      256.566       48.888        0.036      341.739       16.658      862.808
03/09/2014  18:34:00     -171.919     -188.265        1.507      205.385      127.650       68.788    42182.803    16294.600     4731.819        6.409        3.160      254.951       43.712        0.029      341.719       16.625      862.800
03/09/2014  18:35:00     -238.138     -112.874       13.543      137.291      115.704       61.141    18848.806    13387.486     3738.193        5.280        1.799      263.534       52.552        0.040      341.684       16.565      862.805
03/09/2014  18:36:00      -30.464     -107.092        3.777       67.438       81.043       54.296     4547.949     6567.986     2948.082        1.323        0.703      111.340       33.387        0.090      341.699       16.592      862.795
03/09/2014  18:37:00     -207.723     -251.993       -1.213      134.679      118.149       74.333    18138.486    13959.116     5525.424        7.213        1.881      326.572       62.027        0.036      341.686       16.568      862.799
03/09/2014  18:38:00     -218.789     -148.679       13.294      209.366      134.089       78.511    43833.915    17979.760     6163.952        6.905        3.399      264.526       91.541        0.120      341.686       16.570      862.809
03/09/2014  18:39:00     -389.185     -305.284      -17.975      246.160      183.970       86.998    60594.821    33845.068     7568.610       17.348        5.100      494.635      109.210        0.049      341.687       16.571      862.794
03/09/2014  18:40:00     -374.286     -209.142       -9.952      184.068      122.784       80.544    33881.090    15075.985     6487.267       11.968        2.772      428.754       90.835        0.045      341.654       16.513      862.802
03/09/2014  18:41:00     -361.072     -154.376       -5.502      185.077      125.872       89.482    34253.581    15843.672     8006.986       10.616        2.905      392.689       90.467        0.053      341.624       16.462      862.792
03/09/2014  18:42:00     -441.838     -290.201       11.320      294.946      228.845      114.857    86993.261    52370.028    13192.143       21.603        7.628      528.618      138.129        0.068      341.658       16.520      862.783
03/09/2014  18:43:00     -245.284     -197.296        8.365      193.931      107.396       66.218    37609.153    11534.000     4384.759        7.633        2.676      314.786       58.512        0.035      341.648       16.504      862.777
03/09/2014  18:44:00     -316.475     -247.474       -5.181      214.388      107.338       75.913    45962.257    11521.496     5762.819       11.232        3.162      401.746       83.576        0.043      341.606       16.432      862.756
03/09/2014  18:45:00     -340.804     -175.949      -16.874      157.666      115.893       67.590    24858.560    13431.171     4568.446        9.512        2.143      383.543       59.211        0.024      341.563       16.360      862.732
03/09/2014  18:46:00     -136.674     -163.506       -9.040      102.225       99.743       46.299    10449.905     9948.571     2143.641        3.401        1.127      213.106       45.345        0.045      341.563       16.360      862.706
03/09/2014  18:47:00     -240.121     -100.346       -2.435      168.077       96.512       54.565    28249.783     9314.523     2977.346        5.413        2.027      260.245       73.524        0.080      341.537       16.314      862.703
03/09/2014  18:48:00     -173.232      -85.332        6.826      129.695       84.045       55.024    16820.852     7063.592     3027.660        3.212        1.346      193.108       63.351        0.108      341.525       16.297      862.708
03/09/2014  18:49:00     -165.667     -156.990        7.672      115.835      126.785       56.143    13417.854    16074.315     3152.035        4.239        1.632      228.235       47.624        0.044      341.558       16.349      862.701
03/09/2014  18:50:00     -156.412     -226.318        2.992      165.117      128.870       69.209    27263.527    16607.589     4789.917        6.217        2.433      275.108       79.349        0.083      341.545       16.329      862.706
03/09/2014  18:51:00      -44.007      -85.967        3.711       91.649       60.161       46.248     8399.474     3619.310     2138.905        1.175        0.708       96.576       35.885        0.138      341.545       16.330      862.655
03/09/2014  18:52:00     -158.176      -74.271       10.767      153.395      142.779       78.940    23530.077    20385.917     6231.502        4.039        2.507      174.745       87.999        0.254      341.540       16.320      862.652
03/09/2014  18:53:00     -273.339     -129.522       -9.311      176.299      153.278       81.186    31081.336    23494.141     6591.092        7.636        3.058      302.474       82.936        0.075      341.509       16.266      862.707
03/09/2014  18:54:00     -444.819     -271.236       -1.190      229.736      196.073      100.281    52778.495    38444.677    10056.202       18.634        5.064      520.993       99.240        0.036      341.451       16.170      862.713
03/09/2014  18:55:00     -268.682     -196.020       -3.838      155.955      127.562       74.361    24321.840    16272.085     5529.487        7.837        2.306      332.586       81.631        0.060      341.419       16.114      862.708
03/09/2014  18:56:00     -196.851     -138.667      -13.314      138.714      103.638       60.255    19241.511    10740.931     3630.631        4.588        1.681      240.788       63.193        0.069      341.391       16.068      862.694
03/09/2014  18:57:00     -282.400     -209.170      -10.486      169.082      133.878       68.046    28588.602    17923.330     4630.281        8.737        2.557      351.428       76.904        0.048      341.349       15.996      862.659
03/09/2014  18:58:00     -315.761     -212.095      -21.593      191.993      137.599       66.296    36861.428    18933.618     4395.216       10.266        3.010      380.381       83.628        0.048      341.342       15.985      862.664
03/09/2014  18:59:00     -203.740     -123.253        1.167      138.445       91.857       57.674    19167.113     8437.713     3326.316        4.381        1.547      238.120       46.203        0.038      341.310       15.930      862.654
03/09/2014  19:00:00     -378.122     -185.563        0.674      257.821      210.221       96.012    66471.492    44192.921     9218.315       14.862        5.994      421.200      124.329        0.087      341.286       15.891      862.630
03/09/2014  19:01:00     -395.546     -205.826       -2.020      191.597      208.150       92.951    36709.587    43326.564     8639.857       14.373        4.434      445.894      100.755        0.051      341.290       15.899      862.648
03/09/2014  19:02:00     -340.350     -248.484      -24.833      179.884      123.907       77.914    32358.380    15353.002     6070.526       11.598        2.689      421.405       65.536        0.024      341.314       15.938      862.630
03/09/2014  19:03:00     -205.793     -111.660        1.362      112.116       94.581       56.716    12569.979     8945.559     3216.682        3.977        1.237      234.134       52.633        0.051      341.297       15.910      862.628
03/09/2014  19:04:00     -336.975     -295.274       -8.558      205.379      174.090      102.213    42180.386    30307.215    10447.463       14.186        4.147      448.039      107.512        0.058      341.374       16.038      862.584
03/09/2014  19:05:00     -303.951     -287.090       -1.837      233.453      230.957      100.195    54500.314    53340.934    10038.961       14.632        5.894      418.099       98.331        0.055      341.382       16.053      862.586
03/09/2014  19:06:00     -407.378     -202.821       -8.661      220.241      134.165      103.810    48505.907    18000.114    10776.422       14.221        3.864      455.075      118.145        0.067      341.426       16.125      862.652
03/09/2014  19:07:00     -344.638     -214.038      -14.045      221.303      173.290       88.389    48975.176    30029.531     7812.534       12.578        4.341      405.694       98.645        0.059      341.352       16.000      862.652
03/09/2014  19:08:00     -236.999     -194.148       -4.464      180.950      169.572       79.564    32742.963    28754.665     6330.355        8.084        3.391      306.369       93.846        0.094      341.327       15.960      862.653
03/09/2014  19:09:00     -448.404     -194.340       -4.161      228.990      185.127      110.416    52436.514    34271.854    12191.691       16.886        4.945      488.706      118.013        0.058      341.324       15.956      862.591
03/09/2014  19:10:00     -439.174     -145.808       -3.081      234.242      152.527       86.372    54869.435    23264.449     7460.146       14.985        4.280      462.746       87.441        0.036      341.323       15.953      862.535
03/09/2014  19:11:00     -434.929     -246.547      -21.859      331.147      208.004       87.959   109658.463    43265.527     7736.781       20.551        8.033      499.949      123.594        0.061      341.230       15.795      862.542
03/09/2014  19:12:00     -386.985     -200.893        8.336      262.628      233.272      106.914    68973.237    54415.767    11430.635       16.248        6.741      436.022      137.132        0.099      341.178       15.707      862.474
03/09/2014  19:13:00     -416.275     -201.400      -15.303      170.253      197.170       96.302    28986.126    38875.962     9274.042       14.559        3.857      462.436       99.500        0.046      341.246       15.821      862.496
03/09/2014  19:14:00     -346.301     -228.181      -18.907      231.828      190.566       91.903    53744.054    36315.405     8446.097       13.541        4.925      414.718      112.864        0.074      341.223       15.784      862.536
03/09/2014  19:15:00     -537.950     -331.985      -24.647      195.799      167.455      101.798    38337.153    28041.110    10362.834       23.846        3.837      632.143       89.114        0.020      341.264       15.854      862.550
03/09/2014  19:16:00     -352.065     -250.099       -3.154      189.374      146.218       89.469    35862.340    21379.794     8004.757       12.587        3.262      431.856       90.216        0.044      341.156       15.671      862.592
03/09/2014  19:17:00     -394.092     -246.539       -2.714      259.494      125.619       85.064    67336.979    15780.224     7235.862       15.321        4.518      464.855       99.603        0.046      341.108       15.588      862.581
03/09/2014  19:18:00     -256.566     -206.146       -3.442      163.459      156.767       87.846    26718.784    24576.038     7716.982        8.366        2.951      329.124       97.415        0.088      341.059       15.506      862.599
03/09/2014  19:19:00     -286.037     -144.608       17.462      210.133      160.163      100.292    44155.812    25652.151    10058.498        9.143        3.993      320.513      122.579        0.146      341.060       15.507      862.530
03/09/2014  19:20:00     -234.800     -187.878       13.401      215.290      145.683       86.993    46349.950    21223.412     7567.759        8.286        3.757      300.715      103.727        0.119      341.071       15.526      862.471
03/09/2014  19:21:00     -247.709     -204.910        7.419      291.912      179.042      101.481    85212.567    32055.912    10298.299       11.546        6.378      321.478      130.631        0.165      341.151       15.664      862.490
03/09/2014  19:22:00     -473.479     -273.233      -25.340      194.679      183.714       92.941    37900.048    33750.671     8637.970       18.987        4.014      546.661       83.300        0.023      341.167       15.688      862.485
03/09/2014  19:23:00     -465.025     -340.546      -20.617      257.314      173.711      119.102    66210.253    30175.614    14185.389       22.159        5.529      576.385      128.427        0.050      341.126       15.619      862.525
03/09/2014  19:24:00     -419.942     -214.819       -9.302      257.327      197.345       99.151    66217.319    38945.180     9830.864       16.877        5.750      471.698      112.176        0.057      341.156       15.671      862.506
03/09/2014  19:25:00     -495.884     -247.168       -2.167      226.674      177.910       98.479    51381.211    31651.942     9698.147       19.985        4.637      554.069      102.606        0.034      341.172       15.696      862.519
03/09/2014  19:26:00     -393.081     -227.934       -4.707      231.331      179.164       91.757    53514.134    32099.774     8419.433       15.024        4.702      454.386      112.354        0.061      341.204       15.751      862.549
03/09/2014  19:27:00     -358.017     -275.096       14.777      217.159      217.729       93.743    47157.835    47406.095     8787.720       15.369        5.168      451.502      106.689        0.056      341.114       15.597      862.583
03/09/2014  19:28:00     -323.717     -206.146       -3.226      230.134      158.291       98.743    52961.437    25056.048     9750.146       11.752        4.388      383.782      117.270        0.093      341.033       15.464      862.531
03/09/2014  19:29:00     -446.211     -273.157      -14.067      266.464      204.638      109.725    71002.900    41876.776    12039.551       19.939        6.246      523.181      127.257        0.059      340.980       15.373      862.506
03/09/2014  19:30:00     -563.567     -221.396       -9.689      338.147      185.840      112.484   114343.592    34536.333    12652.655       26.409        8.077      605.495      130.666        0.047      341.025       15.448      862.533
03/09/2014  19:31:00     -445.856     -130.971       14.686      261.022      171.636      120.600    68132.472    29458.923    14544.303       16.412        5.607      464.695      135.294        0.085      341.170       15.695      862.534
03/09/2014  19:32:00     -439.979     -223.229       -4.010      204.114      185.553      103.113    41662.687    34430.005    10632.332       16.506        4.336      493.369       99.899        0.041      341.163       15.681      862.569
03/09/2014  19:33:00     -503.346     -289.081       -2.238      219.109      192.414      111.558    48008.777    37023.309    12445.228       21.718        4.874      580.452      119.093        0.042      341.071       15.526      862.581
03/09/2014  19:34:00     -451.125     -307.567       -2.737      240.139      188.292      108.293    57666.586    35454.023    11727.332       20.146        5.242      545.996      103.762        0.036      341.006       15.417      862.542
03/09/2014  19:35:00     -369.899     -191.738       -7.437      244.204      142.691       91.617    59635.412    20360.787     8393.714       13.100        4.419      416.640      100.473        0.058      340.959       15.335      862.508
03/09/2014  19:36:00     -361.047     -260.053        7.239      266.911      196.972      126.213    71241.226    38797.838    15929.803       16.198        6.298      444.952      130.070        0.085      340.919       15.267      862.547
03/09/2014  19:37:00     -431.590     -234.462        5.531      232.267      186.259      105.840    53947.734    34692.433    11202.096       17.054        4.992      491.164      115.653        0.055      340.936       15.297      862.583
03/09/2014  19:38:00     -368.115     -210.912       26.559      234.296      214.928      115.092    54894.610    46193.857    13246.129       14.749        5.717      424.255      128.037        0.091      340.972       15.360      862.600
03/09/2014  19:39:00     -388.909     -230.248        6.553      237.324      170.557      106.302    56322.460    29089.770    11300.041       15.049        4.836      451.956      121.355        0.072      340.994       15.395      862.645
03/09/2014  19:40:00     -670.923     -146.278      -11.679      288.976      223.736      120.706    83507.188    50057.645    14570.014       30.987        7.407      686.684      137.568        0.040      341.027       15.452      862.616
03/09/2014  19:41:00     -470.564     -217.225       -1.125      312.529      229.788      120.144    97674.252    52802.555    14434.598       21.673        8.246      518.283      153.581        0.088      340.994       15.394      862.616
03/09/2014  19:42:00     -547.460     -341.640      -16.352      261.460      224.093      107.211    68361.317    50217.467    11494.138       27.336        6.504      645.314      127.392        0.039      340.960       15.337      862.578
03/09/2014  19:43:00     -419.825     -398.276       -5.678      257.252      189.110      128.100    66178.649    35762.776    16409.561       22.661        5.918      578.685      142.025        0.060      340.910       15.253      862.563
03/09/2014  19:44:00     -403.631     -217.184       13.098      262.789      162.753       95.894    69057.955    26488.680     9195.610       15.748        5.237      458.352      109.886        0.057      340.865       15.177      862.582
03/09/2014  19:45:00     -417.031     -300.383       -0.200      230.290      196.678      105.668    53033.669    38682.201    11165.701       18.349        5.144      513.950      106.128        0.043      340.893       15.226      862.615
03/09/2014  19:46:00     -317.416     -221.434       -3.013      222.806      161.853       95.468    49642.660    26196.261     9114.157       11.736        4.248      387.022      103.638        0.072      340.900       15.237      862.675
03/09/2014  19:47:00     -320.032     -208.938        3.412      277.100      215.411       79.979    76784.185    46401.809     6396.719       13.781        6.479      382.198      105.870        0.077      340.882       15.207      862.700
03/09/2014  19:48:00     -441.184     -285.706       -4.847      196.109      140.325       83.063    38458.670    19691.219     6899.424       17.066        3.252      525.615       89.275        0.029      340.947       15.316      862.642
03/09/2014  19:49:00     -522.868     -291.629      -22.976      240.188      211.144      120.370    57690.199    44581.754    14488.930       23.784        5.838      598.698      131.099        0.048      340.931       15.289      862.605
03/09/2014  19:50:00     -427.091     -249.565      -12.523      213.560      218.593       96.988    45607.954    47783.101     9406.681       17.380        5.140      494.661      102.756        0.043      340.834       15.125      862.601
03/09/2014  19:51:00     -607.302     -371.606      -30.534      287.229      227.362      116.567    82500.709    51693.509    13587.771       32.778        7.389      711.974      139.817        0.039      340.902       15.239      862.657
03/09/2014  19:52:00     -377.058     -183.569       -2.886      236.951      165.506       86.105    56145.825    27392.108     7414.024       13.340        4.548      419.369      103.946        0.061      340.885       15.212      862.662
03/09/2014  19:53:00     -413.511     -288.991      -31.728      173.922      192.339       89.187    30248.778    36994.156     7954.397       16.534        3.760      504.487       84.279        0.028      340.876       15.195      862.696
03/09/2014  19:54:00     -435.852     -309.851       -9.172      213.660      194.058      107.864    45650.646    37658.504    11634.551       19.048        4.747      534.766      110.373        0.043      340.952       15.324      862.693
03/09/2014  19:55:00     -483.087     -318.375       -3.935      269.597      243.955      132.355    72682.327    59514.079    17517.732       24.220        7.486      578.563      144.121        0.062      341.063       15.513      862.661
03/09/2014  19:56:00     -443.748     -265.727       -5.947      244.267      173.632       90.292    59666.268    30147.964     8152.584       18.274        4.898      517.227      100.985        0.038      340.982       15.376      862.722
03/09/2014  19:57:00     -531.975     -257.195      -15.307      201.300      154.473       83.963    40521.674    23862.022     7049.793       21.039        3.572      590.886       79.649        0.018      340.869       15.183      862.724
03/09/2014  19:58:00     -487.103     -270.309      -19.484      222.825      161.400      106.324    49650.855    26049.986    11304.845       19.884        4.350      557.079      107.458        0.037      340.839       15.134      862.720
03/09/2014  19:59:00     -486.611     -159.004      -13.765      179.166      158.965       82.267    32100.303    25269.810     6767.838       16.319        3.207      511.930       79.394        0.024      340.795       15.059      862.713
03/09/2014  20:00:00     -321.299     -195.927      -14.513      245.984      201.422       92.275    60508.145    40570.806     8514.651       12.569        5.480      376.325      110.666        0.086      340.776       15.027      862.719
03/09/2014  20:01:00     -489.939     -115.213        0.703      248.591      171.594       97.974    61797.353    29444.574     9598.921       17.706        5.042      503.303      114.085        0.051      340.732       14.952      862.682
03/09/2014  20:02:00     -461.482     -158.815      -13.549      265.672      191.113       97.395    70581.797    36524.336     9485.799       17.746        5.830      488.045      119.110        0.060      340.884       15.210      862.687
03/09/2014  20:03:00     -390.245     -190.740       -9.492      211.509      165.485       97.351    44735.971    27385.292     9477.159       13.516        4.080      434.365      104.267        0.058      340.718       14.929      862.731
03/09/2014  20:04:00     -350.068     -240.093       12.493      208.722      147.809      111.933    43564.693    21847.507    12529.003       12.913        3.897      424.490      126.307        0.089      340.625       14.770      862.767
03/09/2014  20:05:00     -437.090     -308.491      -12.097      213.661      179.229      109.814    45651.164    32122.872    12059.015       18.808        4.492      534.990      132.303        0.061      340.648       14.810      862.737
03/09/2014  20:06:00     -512.421     -233.102      -10.389      254.934      176.783      108.502    64991.493    31252.191    11772.790       21.250        5.401      562.949      122.344        0.047      340.612       14.749      862.731
03/09/2014  20:07:00     -355.290     -133.845        1.499      200.719      142.925       94.714    40288.178    20427.623     8970.721       10.690        3.484      379.665       85.277        0.050      340.641       14.799      862.750
03/09/2014  20:08:00     -465.461     -220.947      -33.160      229.457      135.043       81.959    52650.418    18236.636     6717.351       17.207        3.880      515.239       91.435        0.031      340.665       14.839      862.758
03/09/2014  20:09:00     -586.971     -360.397      -30.360      198.662      178.201      104.489    39466.769    31755.536    10917.861       27.873        4.107      688.783      111.344        0.026      340.666       14.841      862.789
03/09/2014  20:10:00     -446.828     -263.963        4.588      238.728      187.760       86.118    56990.970    35253.993     7416.251       18.449        4.983      518.972       98.200        0.036      340.693       14.886      862.789
03/09/2014  20:11:00     -420.569     -241.442      -22.459      216.727      148.276       88.556    46970.420    21985.906     7842.118       15.622        3.840      484.946       97.165        0.040      340.646       14.808      862.782
03/09/2014  20:12:00     -467.610     -222.545       -6.932      246.677      173.485      105.128    60849.538    30097.215    11051.869       18.510        5.100      517.866      109.197        0.044      340.709       14.913      862.772
03/09/2014  20:13:00     -363.059     -254.059      -16.364      197.529      181.177       92.793    39017.643    32824.991     8610.471       13.852        4.023      443.123      101.432        0.052      340.742       14.970      862.734
03/09/2014  20:14:00     -394.112     -223.777      -11.108      185.279      164.366       94.959    34328.233    27016.172     9017.164       13.793        3.518      453.212       95.889        0.045      340.613       14.751      862.701
03/09/2014  20:15:00     -396.760     -229.638       -5.661      229.483      230.911      110.004    52662.364    53319.913    12100.980       16.411        5.904      458.424      115.339        0.063      340.633       14.784      862.705
03/09/2014  20:16:00     -462.444     -185.630       -4.702      196.171      176.526       95.405    38483.098    31161.559     9102.092       16.353        3.937      498.310       90.823        0.033      340.583       14.699      862.730
03/09/2014  20:17:00     -545.818     -150.889      -11.542      198.836      168.166       97.864    39535.928    28279.856     9577.397       19.909        3.870      566.291      108.711        0.037      340.506       14.571      862.739
03/09/2014  20:18:00     -464.757     -197.936      -21.063      187.425      191.387       95.075    35128.211    36629.087     9039.286       16.819        4.040      505.151       99.123        0.039      340.565       14.669      862.753
03/09/2014  20:19:00     -430.238     -262.177       -7.214      215.569      165.942      109.077    46469.926    27536.848    11897.898       16.988        4.295      503.827      118.065        0.055      340.650       14.813      862.721
03/09/2014  20:20:00     -341.202     -189.005      -15.960      167.128      131.554       87.136    27931.628    17306.356     7592.674       10.260        2.642      390.054       85.854        0.048      340.637       14.791      862.713
03/09/2014  20:21:00     -351.807     -264.855       -5.522      181.532      122.308       83.155    32953.915    14959.297     6914.753       12.438        2.741      440.359       84.862        0.037      340.579       14.692      862.730
03/09/2014  20:22:00     -484.806     -254.503       -3.788      232.986      159.752      108.737    54282.667    25520.683    11823.814       19.571        4.581      547.548      117.891        0.046      340.588       14.708      862.706
03/09/2014  20:23:00     -492.485     -200.481        0.046      264.908      214.215      100.179    70176.049    45887.941    10035.781       20.439        6.305      531.728      129.817        0.060      340.637       14.791      862.720
03/09/2014  20:24:00     -401.461     -227.964       -4.259      213.185      161.087       95.139    45447.964    25949.035     9051.369       14.679        4.022      461.670       98.833        0.046      340.625       14.770      862.745
03/09/2014  20:25:00     -389.420     -224.848       12.443      172.189      126.641       80.739    29649.220    16038.064     6518.829       12.727        2.610      449.671       84.309        0.035      340.594       14.717      862.759
03/09/2014  20:26:00     -447.296     -228.933       -9.288      162.786      162.512       85.043    26499.363    26410.224     7232.361       15.634        3.007      502.478       88.392        0.031      340.532       14.614      862.742
03/09/2014  20:27:00     -329.554     -185.328       10.123      207.642      168.129      102.468    43115.110    28267.324    10499.775       11.245        4.094      378.090      102.536        0.074      340.468       14.506      862.739
03/09/2014  20:28:00     -380.389     -243.923        3.155      222.264      173.725      101.201    49401.142    30180.341    10241.685       14.700        4.491      451.879      113.962        0.064      340.472       14.513      862.739
03/09/2014  20:29:00     -356.337     -214.807        1.446      198.582      153.792       90.002    39434.907    23651.994     8100.308       12.214        3.559      416.074       89.254        0.046      340.465       14.502      862.734
03/09/2014  20:30:00     -342.548     -221.548       -3.823      155.902      116.681       77.032    24305.588    13614.386     5933.998       10.514        2.193      407.949       82.744        0.041      340.430       14.441      862.788
03/09/2014  20:31:00     -279.806     -236.658        2.779      181.309      134.004       82.917    32872.823    17957.122     6875.293        9.599        2.885      366.468       79.045        0.047      340.387       14.369      862.799
03/09/2014  20:32:00     -393.148     -267.641       -6.892      176.192      142.320       85.127    31043.515    20254.907     7246.609       14.238        2.927      475.601       90.680        0.036      340.371       14.342      862.797
03/09/2014  20:33:00     -388.887     -227.676       -4.887      192.919      197.164       85.087    37217.877    38873.653     7239.787       14.320        4.167      450.632       89.682        0.040      340.405       14.399      862.814
03/09/2014  20:34:00     -478.248     -392.276      -17.567      184.836      144.352       99.292    34164.357    20837.454     9858.817       22.387        3.243      618.548       91.039        0.022      340.474       14.516      862.843
03/09/2014  20:35:00     -511.729     -315.614       -0.227      223.036      154.368       97.712    49744.962    23829.510     9547.700       22.228        4.156      601.231      114.837        0.036      340.457       14.486      862.861
03/09/2014  20:36:00     -509.616     -305.949      -37.626      218.945      147.799       88.247    47936.998    21844.466     7787.605       21.613        3.878      594.402       81.373        0.019      340.525       14.602      862.813
03/09/2014  20:37:00     -595.860     -283.201      -28.071      179.445      172.943       80.560    32200.369    29909.354     6489.939       25.231        3.430      659.736       59.377        0.008      340.545       14.636      862.774
03/09/2014  20:38:00     -441.255     -235.815       -9.651      180.938      193.984       85.860    32738.578    37629.983     7372.009       16.406        3.887      500.314       84.805        0.029      340.608       14.742      862.799
03/09/2014  20:39:00     -358.824     -258.099       -3.131      223.300      179.149      110.084    49863.032    32094.445    12118.471       14.471        4.704      442.007      126.049        0.081      340.630       14.780      862.841
03/09/2014  20:40:00     -383.905     -269.234      -15.458      184.501      153.059       78.957    34040.445    23427.148     6234.199       14.189        3.185      468.903       98.361        0.044      340.604       14.734      862.868
03/09/2014  20:41:00     -302.786     -229.303        7.993      232.363      145.594       89.055    53992.776    21197.473     7930.805       11.371        4.156      379.815      103.481        0.074      340.551       14.646      862.881
03/09/2014  20:42:00     -462.659     -303.684       -0.786      208.960      155.690       98.923    43664.105    24239.420     9785.694       19.197        3.884      553.423       94.248        0.029      340.475       14.518      862.874
03/09/2014  20:43:00     -448.581     -263.028      -12.867      219.559      206.682       91.187    48205.972    42717.410     8315.082       18.489        4.962      520.009      113.660        0.048      340.399       14.389      862.860
03/09/2014  20:44:00     -339.457     -195.840       -8.191      191.452      130.835       74.826    36653.698    17117.815     5598.858       10.650        2.969      391.898       68.534        0.031      340.344       14.297      862.834
03/09/2014  20:45:00     -339.255     -193.008       12.929      178.544      127.555       73.123    31877.797    16270.326     5346.963       10.299        2.675      390.315       80.489        0.043      340.416       14.418      862.808
03/09/2014  20:46:00     -290.986     -231.196       -0.832      174.749      123.277       80.533    30537.328    15197.338     6485.551        9.516        2.611      371.651       90.488        0.059      340.390       14.375      862.874
03/09/2014  20:47:00     -200.294     -214.610        9.078      166.320      131.896       73.629    27662.290    17396.541     5421.210        6.836        2.524      293.557       73.764        0.063      340.239       14.119      862.918
03/09/2014  20:48:00     -467.678     -273.092      -29.435      177.475      141.496       81.567    31497.461    20021.151     6653.128       17.616        2.909      541.574       88.788        0.027      340.298       14.218      862.906
03/09/2014  20:49:00     -289.712     -288.590        1.822      197.760      168.570       97.778    39109.142    28415.681     9560.612       12.214        3.854      408.922      107.968        0.070      340.284       14.194      862.893
03/09/2014  20:50:00     -455.600     -296.329      -10.459      210.539      191.046       99.600    44326.517    36498.709     9920.073       19.310        4.537      543.491      103.340        0.036      340.382       14.360      862.868
03/09/2014  20:51:00     -358.020     -162.042        1.990      188.265      131.103       74.401    35443.862    17188.099     5535.566       10.629        2.908      392.983       93.392        0.056      340.421       14.427      862.864
03/09/2014  20:52:00     -265.431     -150.972        4.007      144.263      112.906       70.784    20811.780    12747.829     5010.407        6.591        1.929      305.362       50.094        0.027      340.390       14.375      862.872
03/09/2014  20:53:00     -352.271     -188.374      -13.991      157.200       96.565       71.485    24711.786     9324.754     5110.051        9.945        1.957      399.474       73.265        0.034      340.337       14.284      862.878
03/09/2014  20:54:00     -349.989     -156.592      -10.794      196.725      160.223       91.869    38700.780    25671.301     8439.895       10.996        3.641      383.423       97.785        0.065      340.367       14.335      862.835
03/09/2014  20:55:00     -447.203     -294.992       -8.602      258.867      172.276       91.581    67011.931    29678.861     8387.167       19.606        5.254      535.734      108.973        0.041      340.594       14.719      862.841
03/09/2014  20:56:00     -337.628     -257.670       -6.550      169.812      145.283       84.663    28836.113    21107.076     7167.848       11.876        2.856      424.719       92.282        0.047      340.477       14.520      862.935
03/09/2014  20:57:00     -329.617     -159.054       12.694      160.167      120.818       74.500    25653.578    14596.968     5550.291        8.994        2.290      365.985       85.259        0.054      340.360       14.323      862.973
03/09/2014  20:58:00     -239.561     -244.737       -6.241      175.268      141.976       66.262    30718.742    20157.159     4390.687        8.628        2.763      342.470       75.709        0.049      340.314       14.246      863.011
03/09/2014  20:59:00     -361.090     -321.259        4.657      245.897      219.825      112.605    60465.451    48323.101    12679.841       17.752        6.073      483.315      119.018        0.061      340.295       14.214      862.983
03/09/2014  21:00:00     -385.458     -238.333      -13.226      183.026      134.076       74.776    33498.653    17976.494     5591.382       13.130        2.853      453.189       99.064        0.048      340.265       14.162      862.960
03/09/2014  21:01:00     -369.087     -259.916        8.419      263.083      222.629       99.426    69212.771    49563.477     9885.495       16.623        6.433      451.422      129.555        0.082      340.278       14.185      862.931
03/09/2014  21:02:00     -433.687     -308.891       -5.194      246.068      161.153      102.476    60549.241    25970.301    10501.276       19.025        4.851      532.445      122.990        0.053      340.315       14.248      862.844
03/09/2014  21:03:00     -267.027     -192.691       14.742      180.295      125.408       88.330    32506.154    15727.123     7802.275        8.233        2.802      329.292      102.147        0.096      340.288       14.202      862.828
03/09/2014  21:04:00     -353.391     -235.881       10.536      186.270      155.764       76.467    34696.426    24262.487     5847.139       12.271        3.240      424.882       89.560        0.044      340.239       14.119      862.901
03/09/2014  21:05:00     -308.452     -123.340       11.136      176.682      131.135       78.869    31216.667    17196.431     6220.312        8.255        2.732      332.197       84.037        0.064      340.189       14.033      862.935
03/09/2014  21:06:00     -303.557     -186.987      -10.331      135.794       99.525       55.168    18440.017     9905.158     3043.459        7.930        1.569      356.526       49.310        0.019      340.178       14.016      862.926
03/09/2014  21:07:00     -258.402     -232.267       -3.908      188.313      168.939       76.180    35461.639    28540.224     5803.359        9.526        3.490      347.447       97.316        0.078      340.167       13.997      862.914
03/09/2014  21:08:00     -260.513     -229.673       -4.726      162.376      115.447       67.960    26365.973    13327.970     4618.585        8.247        2.216      347.299       72.068        0.043      340.122       13.923      862.895
03/09/2014  21:09:00     -300.460     -117.519      -11.904      148.095      100.156       60.526    21932.032    10031.266     3663.381        6.992        1.781      322.625       64.284        0.040      340.109       13.900      862.931
03/09/2014  21:10:00     -204.243     -163.329       11.638      151.361      124.102       63.068    22910.009    15401.194     3977.599        5.540        2.114      261.518       71.611        0.075      340.101       13.887      862.929
03/09/2014  21:11:00     -176.694     -188.379       -3.372      130.277       96.113       58.489    16971.976     9237.804     3420.974        4.817        1.482      258.278       64.950        0.063      340.099       13.883      862.957
03/09/2014  21:12:00     -159.383     -188.868       11.847      110.112      143.405       58.531    12124.543    20565.080     3425.830        4.866        1.806      247.131       59.345        0.058      340.070       13.834      862.979
03/09/2014  21:13:00     -182.368     -155.287      -14.462      102.467       69.677       50.798    10499.444     4854.875     2580.418        3.775        0.897      239.525       44.119        0.034      340.082       13.854      862.995
03/09/2014  21:14:00     -213.841     -185.048      -12.309      142.031      107.956       66.012    20172.851    11654.576     4357.578        5.815        1.809      282.791       71.075        0.063      340.089       13.865      862.976
03/09/2014  21:15:00     -232.368     -134.450        0.714      120.514      111.036       58.832    14523.607    12328.988     3461.208        5.119        1.516      268.462       63.717        0.056      340.084       13.858      862.981
03/09/2014  21:16:00     -284.766     -199.186        5.867      131.190      169.747       78.460    17210.930    28813.991     6155.945        8.648        2.609      347.515       75.941        0.048      340.129       13.932      862.986
03/09/2014  21:17:00     -179.066     -192.323       10.284      125.546      135.214       64.001    15761.714    18282.936     4096.072        5.364        1.907      262.779       64.185        0.060      340.099       13.884      862.982
03/09/2014  21:18:00     -223.657     -212.012       -1.291      141.889      128.597       68.553    20132.549    16537.068     4699.561        6.816        2.068      308.175       61.134        0.039      340.085       13.860      862.969
03/09/2014  21:19:00     -172.771     -201.754       -6.598      108.042      167.015       61.392    11673.032    27893.877     3768.938        5.696        2.167      265.621       49.421        0.035      340.099       13.883      862.999
03/09/2014  21:20:00     -216.885     -231.663       -9.756      143.008      153.431       73.182    20451.218    23541.045     5355.648        7.507        2.467      317.344       80.752        0.065      340.097       13.880      863.004
03/09/2014  21:21:00     -177.771     -215.633       12.692      173.266      124.727       74.539    30020.987    15556.736     5556.013        6.469        2.557      279.464       70.562        0.064      340.103       13.888      863.033
03/09/2014  21:22:00     -173.932     -226.043       -7.640      155.300      107.964       80.985    24118.133    11656.271     6558.537        6.186        2.117      285.215       55.385        0.038      340.151       13.971      862.998
03/09/2014  21:23:00     -130.872     -287.285        1.799       90.299      118.304       57.558     8153.988    13995.728     3312.964        6.256        1.273      315.690       49.750        0.025      340.143       13.957      862.951
03/09/2014  21:24:00     -233.493     -163.539       -7.336      108.306       77.754       54.400    11730.268     6045.721     2959.404        5.102        1.037      285.068       46.041        0.026      340.099       13.882      862.983
03/09/2014  21:25:00     -270.396     -250.043        6.779      172.943      170.550       79.990    29909.115    29087.455     6398.365       10.052        3.270      368.287       89.382        0.059      340.090       13.867      863.029
03/09/2014  21:26:00     -142.352     -227.620        7.180      120.795      136.387       66.822    14591.433    18601.320     4465.124        5.488        1.883      268.467       55.566        0.043      340.100       13.883      863.032
03/09/2014  21:27:00     -163.789     -102.989       19.095      155.063       77.477       57.190    24044.652     6002.635     3270.684        3.555        1.666      193.478       62.156        0.103      340.085       13.861      863.010
03/09/2014  21:28:00     -281.243     -227.226      -16.054      144.688      113.736       61.284    20934.487    12935.830     3755.720        8.430        1.881      361.565       59.117        0.027      340.145       13.960      863.010
03/09/2014  21:29:00     -293.117     -223.955       -7.059      114.340      101.801       57.426    13073.692    10363.470     3297.715        8.142        1.337      368.881       52.623        0.020      340.108       13.900      863.014
03/09/2014  21:30:00     -183.169     -196.931       -6.716      129.147      142.962       56.976    16678.971    20438.034     3246.271        5.636        2.018      268.948       56.444        0.044      340.085       13.860      863.072
03/09/2014  21:31:00     -236.865     -180.945       -2.153      156.218      133.496       85.757    24404.165    17821.231     7354.326        6.921        2.479      298.070       63.413        0.045      340.092       13.871      863.123
03/09/2014  21:32:00     -209.697     -193.156        5.219      137.992      149.858       70.897    19041.816    22457.341     5026.393        6.391        2.326      285.100       51.841        0.033      340.088       13.864      863.150
03/09/2014  21:33:00     -135.800     -222.669      -20.917      145.080       94.024       70.616    21048.137     8840.451     4986.573        5.166        1.744      260.812       51.433        0.039      340.128       13.932      863.138
03/09/2014  21:34:00     -113.721     -200.172       -9.763      109.824      113.681       53.117    12061.259    12923.370     2821.421        4.045        1.390      230.220       49.677        0.047      340.110       13.900      863.127
03/09/2014  21:35:00     -226.252     -157.509       -6.246      130.809      101.069       59.972    17111.037    10214.929     3596.686        5.347        1.546      275.679       64.781        0.055      340.018       13.745      863.136
03/09/2014  21:36:00     -231.592     -255.036      -12.323      125.563      138.483       61.501    15766.135    19177.490     3782.359        7.877        1.936      344.496       57.575        0.028      340.002       13.719      863.156
03/09/2014  21:37:00     -158.487     -183.017       -0.418       84.037      120.412       51.070     7062.266    14498.967     2608.131        4.139        1.208      242.102       35.206        0.021      339.999       13.713      863.159
03/09/2014  21:38:00     -158.249     -190.283       -4.421      109.162      168.401       57.504    11916.401    28358.893     3306.744        5.242        2.179      247.488       57.919        0.055      339.982       13.686      863.141
03/09/2014  21:39:00     -136.226     -170.273        0.565      135.082      190.510       67.779    18247.012    36294.128     4594.052        5.333        2.957      218.060       86.594        0.158      339.992       13.704      863.127
03/09/2014  21:40:00     -188.073     -151.383       -3.746      159.303      106.565       56.963    25377.342    11356.179     3244.743        4.913        1.999      241.430       56.384        0.055      340.049       13.799      863.118
03/09/2014  21:41:00     -123.786     -152.377        6.532       90.965      115.719       59.481     8274.720    13390.773     3538.035        3.189        1.260      196.321       51.764        0.070      340.017       13.745      863.117
03/09/2014  21:42:00      -69.273     -165.676       15.268       95.509       91.174       48.795     9122.003     8312.643     2380.918        2.614        0.991      179.576       45.129        0.063      340.012       13.735      863.103
03/09/2014  21:43:00      -87.783     -125.089        7.778      102.691       81.150       48.710    10545.341     6585.324     2372.631        2.145        0.975      152.817       43.144        0.080      339.974       13.674      863.137
03/09/2014  21:44:00      -70.798     -172.532       -6.300      130.128      124.224       67.955    16933.306    15431.614     4617.838        3.589        1.849      186.493       52.202        0.078      340.039       13.781      863.199
03/09/2014  21:45:00     -127.138     -277.530      -12.506       76.436      134.704       51.349     5842.477    18145.209     2636.746        5.998        1.331      305.265       28.822        0.009      340.132       13.938      863.209
03/09/2014  21:46:00      -92.046     -150.368       -5.202      127.212      107.242       67.109    16182.994    11500.764     4503.568        3.164        1.609      176.304       56.449        0.103      340.130       13.936      863.148
03/09/2014  21:47:00     -218.306     -198.668      -27.273      117.306       91.803       46.028    13760.792     8427.848     2118.564        5.608        1.215      295.172       32.384        0.012      340.047       13.793      863.149
03/09/2014  21:48:00     -149.865     -149.383       14.950      100.992      130.664       63.891    10199.369    17072.994     4082.062        3.817        1.568      211.601       60.733        0.082      340.006       13.725      863.162
03/09/2014  21:49:00     -141.164     -119.484       33.266      143.152      133.054       79.905    20492.526    17703.436     6384.759        3.994        2.229      184.942       88.886        0.231      340.014       13.741      863.176
03/09/2014  21:50:00     -180.136     -216.556       -5.950      128.848      143.582       62.148    16601.696    20615.775     3862.318        6.022        2.054      281.683       79.606        0.080      340.067       13.828      863.133
03/09/2014  21:51:00     -209.883     -244.456        2.018      103.644      126.021       69.393    10742.027    15881.373     4815.338        6.762        1.572      322.195       58.904        0.033      340.073       13.839      863.162
03/09/2014  21:52:00     -216.100     -183.717       -8.091      113.436      155.275       69.351    12867.739    24110.180     4809.504        6.114        2.089      283.639       60.699        0.046      340.054       13.807      863.202
03/09/2014  21:53:00     -164.348     -154.882       -3.416       99.626       77.837       52.443     9925.287     6058.600     2750.263        3.487        0.937      225.829       40.187        0.032      340.042       13.787      863.227
03/09/2014  21:54:00     -180.835     -223.057      -11.598       99.511      110.780       56.807     9902.410    12272.284     3227.046        5.399        1.270      287.151       37.100        0.017      340.008       13.729      863.205
03/09/2014  21:55:00     -123.177     -201.222      -13.695       70.625      123.672       46.257     4987.949    15294.865     2139.754        3.913        1.121      235.930       25.873        0.012      339.994       13.705      863.166
03/09/2014  21:56:00     -118.234     -142.773      -17.457       98.116       55.342       41.396     9626.846     3062.703     1713.648        2.453        0.720      185.374       25.966        0.020      340.031       13.769      863.151
03/09/2014  21:57:00     -163.734     -217.212      -12.001       99.256      112.990       56.725     9851.739    12766.744     3217.689        4.998        1.292      272.010       56.055        0.042      339.961       13.651      863.136
03/09/2014  21:58:00     -213.885     -189.342      -11.325      119.661      100.824       51.035    14318.858    10165.409     2604.573        5.440        1.354      285.652       40.193        0.020      339.945       13.623      863.131
03/09/2014  21:59:00     -140.365     -210.332       -3.365      103.428      101.316       60.273    10697.426    10264.889     3632.874        4.427        1.230      252.868       50.660        0.040      339.953       13.637      863.154
03/09/2014  22:00:00     -172.069     -270.205       -2.481      141.543      112.821       69.217    20034.527    12728.620     4791.009        7.008        1.878      320.341       72.629        0.051      339.942       13.618      863.170
03/09/2014  22:01:00     -113.375     -150.131       -8.050       85.053       86.512       48.261     7234.069     7484.322     2329.148        2.625        0.852      188.131       42.049        0.050      339.887       13.524      863.207
03/09/2014  22:02:00     -141.756     -182.896       -1.630       91.641       98.749       49.274     8397.989     9751.424     2427.912        3.706        1.029      231.399       27.579        0.014      339.873       13.500      863.186
03/09/2014  22:03:00     -139.719     -216.318      -18.079       60.506       86.915       47.516     3660.984     7554.245     2257.800        4.005        0.674      257.517       27.356        0.011      339.893       13.534      863.162
03/09/2014  22:04:00     -136.568     -251.111       -6.177       98.630      116.321       58.725     9727.819    13530.590     3448.636        5.422        1.335      285.845       59.652        0.044      339.868       13.492      863.157
03/09/2014  22:05:00     -220.420     -226.432       -5.550      123.361      116.619       67.241    15217.948    13600.096     4521.379        6.661        1.667      316.001       57.060        0.033      339.901       13.546      863.123
03/09/2014  22:06:00     -151.193     -162.477       21.569      134.470      107.377       69.567    18082.294    11529.806     4839.599        4.208        1.723      221.942       68.913        0.096      339.889       13.529      863.096
03/09/2014  22:07:00     -139.468     -185.020        8.920       99.575      123.911       60.240     9915.084    15353.920     3628.908        4.132        1.445      231.698       48.460        0.044      339.874       13.501      863.088
03/09/2014  22:08:00     -157.996     -152.563        2.156      107.233      108.539       56.497    11498.975    11780.648     3191.888        3.735        1.324      219.632       49.269        0.050      339.887       13.525      863.089
03/09/2014  22:09:00     -188.776     -159.600       -5.727      134.312      112.259       56.671    18039.812    12602.056     3211.646        4.749        1.693      247.201       59.595        0.058      339.927       13.594      863.085
03/09/2014  22:10:00     -148.447     -289.862       -5.745      117.623      124.853       78.750    13835.095    15588.160     6201.597        7.085        1.781      325.663       71.428        0.048      339.975       13.674      863.094
03/09/2014  22:11:00      -27.650     -195.645        7.622      132.210      134.921       51.229    17479.561    18203.604     2624.407        3.870        1.915      197.589       31.758        0.026      340.003       13.722      863.105
03/09/2014  22:12:00       17.114      -75.413        6.917       78.247       92.368       46.746     6122.669     8531.778     2185.152        1.143        0.842       77.330       52.861        0.467      340.025       13.761      863.001
03/09/2014  22:13:00       -0.606      -89.967        5.668      136.211       65.129       41.333    18553.432     4241.793     1708.455        1.631        1.225       89.969       32.360        0.129      340.070       13.835      862.984
03/09/2014  22:14:00     -175.103     -215.629      -17.246      104.525       79.040       59.254    10925.485     6247.293     3511.024        4.906        1.034      277.772       51.596        0.035      340.039       13.780      863.068
03/09/2014  22:15:00     -212.752     -159.401        2.819      101.268      130.525       53.118    10255.155    17036.894     2821.569        5.039        1.506      265.842       56.621        0.045      339.945       13.623      863.107
03/09/2014  22:16:00     -160.149      -71.691        1.690      123.105       94.086       43.505    15154.944     8852.264     1892.648        2.834        1.295      175.463       51.416        0.086      339.923       13.587      863.091
03/09/2014  22:17:00     -162.987     -114.193        6.846      113.992       89.742       53.345    12994.214     8053.696     2845.658        3.177        1.195      199.010       50.566        0.065      339.991       13.700      863.036
03/09/2014  22:18:00      -68.308     -181.007       13.220       88.677      116.173       45.380     7863.669    13496.096     2059.380        3.051        1.171      193.467       39.501        0.042      340.089       13.868      863.037
03/09/2014  22:19:00     -104.192     -148.798        1.094       90.878       82.051       45.329     8258.789     6732.341     2054.712        2.502        0.852      181.650       38.660        0.045      340.041       13.785      863.070
03/09/2014  22:20:00     -114.874     -175.442        5.845      108.542      122.000       68.246    11781.346    14884.008     4657.546        3.766        1.566      209.704       66.142        0.099      340.044       13.791      863.082
03/09/2014  22:21:00      -54.269     -136.468       -3.807      104.172       67.708       45.736    10851.829     4584.430     2091.790        1.955        0.876      146.863       26.929        0.034      340.024       13.756      863.064
03/09/2014  22:22:00       -1.933     -154.444      -12.538       94.241       63.439       45.908     8881.386     4024.501     2107.521        1.951        0.751      154.456       45.804        0.088      340.065       13.826      862.991
03/09/2014  22:23:00      -69.679     -153.265        5.381      103.014       96.604       56.273    10611.867     9332.278     3166.690        2.574        1.156      168.361       47.612        0.080      340.152       13.973      863.009
03/09/2014  22:24:00     -118.805      -98.268        7.224      111.458       73.618       49.899    12422.874     5419.568     2489.949        2.207        1.017      154.179       38.615        0.063      340.081       13.854      863.060
03/09/2014  22:25:00     -101.536     -228.843       -9.327      129.071      145.158       55.947    16659.230    21070.782     3130.090        5.180        2.043      250.357       47.294        0.036      340.154       13.977      863.090
03/09/2014  22:26:00     -170.838     -229.924      -16.489      142.507      150.732       70.726    20308.350    22720.253     5002.174        6.517        2.402      286.445       64.045        0.050      340.126       13.929      863.083
03/09/2014  22:27:00      -56.248     -157.419       16.811      116.357       95.072       70.396    13538.901     9038.663     4955.602        2.787        1.377      167.167       59.208        0.125      340.085       13.861      863.093
03/09/2014  22:28:00     -147.582     -224.306        3.044      133.891      130.813       72.529    17926.862    17112.017     5260.398        5.619        2.015      268.503       76.617        0.081      340.044       13.791      863.123
03/09/2014  22:29:00     -185.589     -149.348        1.434       87.494       82.510       49.282     7655.261     6807.841     2428.690        3.682        0.845      238.219       43.552        0.033      340.000       13.714      863.127
03/09/2014  22:30:00     -132.391     -171.238       -6.148      157.246      115.180       59.708    24726.184    13266.425     3565.031        4.421        2.078      216.449       61.414        0.081      340.023       13.755      863.100
03/09/2014  22:31:00     -138.977     -203.118        0.275      100.861       88.708       53.067    10172.850     7869.167     2816.057        4.071        1.043      246.113       37.690        0.023      340.016       13.743      863.059
03/09/2014  22:32:00     -220.319     -144.462      -12.120      132.353       88.744       54.518    17517.375     7875.458     2972.226        4.896        1.418      263.457       63.953        0.059      339.978       13.679      863.047
03/09/2014  22:33:00      -74.860     -114.687       35.034       93.702       78.615       59.012     8780.114     6180.280     3482.416        1.921        0.922      136.957       56.182        0.168      339.969       13.666      863.051
03/09/2014  22:34:00     -149.842     -230.128      -16.776       93.067      145.863       53.975     8661.538    21275.882     2913.256        5.427        1.643      274.611       58.928        0.046      339.991       13.699      863.091
03/09/2014  22:35:00     -191.801     -187.242       -2.273      143.108      137.974       65.573    20479.912    19036.811     4299.785        5.783        2.191      268.043       51.570        0.037      339.982       13.685      863.109
03/09/2014  22:36:00     -231.070     -240.951        5.480      165.384      168.812       68.815    27351.978    28497.553     4735.528        8.602        3.029      333.842       64.547        0.037      339.974       13.671      863.082
03/09/2014  22:37:00     -229.980     -216.583      -13.704      141.849       99.195       67.171    20121.063     9839.618     4512.009        6.722        1.724      315.910       70.230        0.049      340.005       13.725      863.049
03/09/2014  22:38:00     -178.969     -215.984       -0.138      125.071      119.272       67.306    15642.862    14225.721     4530.096        5.653        1.720      280.498       62.673        0.050      339.993       13.705      863.045
03/09/2014  22:39:00     -162.469     -211.261       -4.933      122.901      114.042       60.852    15104.772    13005.629     3702.992        5.143        1.591      266.510       63.902        0.057      339.974       13.673      863.001
03/09/2014  22:40:00      -14.761      -99.274        3.111       76.906       87.558       41.463     5914.467     7666.440     1719.212        1.269        0.765      100.366       44.199        0.194      340.040       13.786      862.965
03/09/2014  22:41:00       34.274     -170.584       10.905      104.811      148.748       51.686    10985.318    22125.864     2671.418        3.308        1.789      173.993       53.613        0.095      340.099       13.884      862.919
03/09/2014  22:42:00      -27.165     -245.767        2.619      122.248      135.772       82.204    14944.474    18433.935     6757.575        5.063        2.007      247.264       73.097        0.087      340.148       13.967      862.936
03/09/2014  22:43:00     -104.626     -178.853       -4.346       67.426      102.294       41.465     4546.315    10464.159     1719.375        2.984        0.836      207.207       40.284        0.038      340.017       13.745      862.963
03/09/2014  22:44:00     -113.839     -154.012        2.931       81.127      112.750       55.365     6581.632    12712.452     3065.250        2.952        1.118      191.517       57.133        0.089      339.972       13.670      862.988
03/09/2014  22:45:00      -61.527     -153.440        4.052      119.119      112.146       45.463    14189.446    12576.794     2066.845        2.808        1.442      165.316       58.131        0.124      339.954       13.640      862.970
03/09/2014  22:46:00     -109.814     -194.763      -19.901       75.988       64.403       35.468     5774.157     4147.720     1258.004        3.078        0.559      223.588       22.839        0.010      339.914       13.571      862.967
03/09/2014  22:47:00     -134.229     -212.022       -3.731       93.082      106.778       51.139     8664.260    11401.595     2615.202        4.283        1.134      250.940       47.397        0.036      339.862       13.483      862.976
03/09/2014  22:48:00     -142.320     -228.867       -7.896       91.249      110.229       50.901     8326.326    12150.394     2590.904        4.788        1.153      269.509       44.269        0.027      339.897       13.542      862.948
03/09/2014  22:49:00     -161.928     -197.594       16.299      133.351      112.799       65.684    17782.389    12723.564     4314.452        5.017        1.741      255.468       55.024        0.046      339.885       13.522      862.941
03/09/2014  22:50:00        9.991      -36.292       20.250       79.891       59.164       51.027     6382.551     3500.417     2603.729        0.715        0.624       37.642       34.685        0.849      339.857       13.478      862.899
03/09/2014  22:51:00      -78.182     -134.409      -12.122       91.526       77.047       59.225     8376.938     5936.193     3507.649        2.107        0.891      155.493       50.836        0.107      339.851       13.466      862.876
03/09/2014  22:52:00      107.600     -205.460      -24.713      155.956      171.507       68.134    24322.324    29414.501     4642.254        5.638        2.919      231.930       72.976        0.099      339.957       13.643      862.858
03/09/2014  22:53:00      -28.313     -203.723       -3.167      107.530      112.930       71.868    11562.783    12753.118     5165.041        3.589        1.474      205.681       59.197        0.083      340.066       13.828      862.833
03/09/2014  22:54:00      -16.681     -165.964        0.449      104.052       94.092       66.578    10826.762     8853.368     4432.658        2.596        1.206      166.800       53.511        0.103      340.117       13.914      862.878
03/09/2014  22:55:00      -63.277     -198.864        0.055      174.648      134.087       81.201    30501.938    17979.365     6593.670        4.930        2.754      208.688       67.968        0.106      340.076       13.844      862.876
03/09/2014  22:56:00       -1.243     -197.842       -2.267      127.754       92.823       62.438    16321.136     8616.063     3898.560        3.399        1.442      197.846       49.972        0.064      340.140       13.952      862.889
03/09/2014  22:57:00      -34.410     -318.245       -3.237      166.807      121.124       71.814    27824.614    14671.079     5157.239        7.505        2.383      320.100       81.349        0.065      340.147       13.963      862.869
03/09/2014  22:58:00      -45.426     -208.412       -1.932      112.118      107.854       53.078    12570.414    11632.561     2817.255        3.626        1.351      213.305       48.060        0.051      340.115       13.911      862.868
03/09/2014  22:59:00     -135.942     -130.745      -10.363      152.713      131.379       73.203    23321.410    17260.404     5358.676        4.080        2.297      188.612       77.935        0.171      340.043       13.788      862.902
03/09/2014  23:00:00      -23.325     -136.245       -8.900       80.595      102.313       63.042     6495.559    10467.969     3974.347        2.006        1.047      138.227       62.186        0.202      340.063       13.823      862.872
03/09/2014  23:01:00       14.408     -301.108      -24.737      143.700      123.625       87.978    20649.664    15283.192     7740.083        6.757        2.184      301.453       53.191        0.031      340.183       14.024      862.836
03/09/2014  23:02:00       33.262     -204.125        6.425      114.553      107.910       73.084    13122.314    11644.532     5341.205        3.646        1.505      206.817       60.611        0.086      340.177       14.015      862.838
03/09/2014  23:03:00      -94.111      -76.273       33.502       97.476      135.947       63.486     9501.515    18481.686     4030.444        2.390        1.601      121.138       60.455        0.249      340.053       13.807      862.830
03/09/2014  23:04:00      -28.122     -145.338       15.808      168.017      109.502       62.763    28229.717    11990.776     3939.190        3.315        2.208      148.034       64.532        0.190      340.023       13.756      862.846
03/09/2014  23:05:00     -157.871     -173.380        5.961      150.862      160.971       75.619    22759.271    25911.525     5718.243        5.469        2.719      234.487       88.702        0.143      340.084       13.859      862.800
03/09/2014  23:06:00       41.441     -169.702       -8.363      105.992      131.948       61.011    11234.246    17410.237     3722.395        3.147        1.618      174.689       61.075        0.122      340.143       13.958      862.777
03/09/2014  23:07:00      -78.900     -102.503       -1.255       90.744       67.624       52.867     8234.392     4573.041     2794.901        1.616        0.780      129.352       50.146        0.150      340.031       13.770      862.778
03/09/2014  23:08:00      -33.754     -119.247       -6.064       84.011       57.482       44.842     7057.772     3304.193     2010.812        1.388        0.619      123.932       37.802        0.093      340.088       13.866      862.772
03/09/2014  23:09:00      -85.063      -81.314        0.421       64.744       55.389       29.796     4191.824     3067.973      887.786        1.100        0.407      117.676       15.912        0.018      340.053       13.807      862.721
03/09/2014  23:10:00     -158.545     -138.091       -9.606       78.895       55.922       43.536     6224.423     3127.277     1895.402        2.777        0.562      210.251       32.502        0.024      339.947       13.626      862.722
03/09/2014  23:11:00     -102.249     -143.344       -6.033       85.181       50.551       41.659     7255.857     2555.415     1735.465        2.129        0.577      176.075       32.386        0.034      339.867       13.492      862.732
03/09/2014  23:12:00     -156.352     -175.356        7.016      100.752       80.972       48.964    10150.923     6556.427     2397.500        3.717        0.955      234.938       37.934        0.026      339.824       13.417      862.719
03/09/2014  23:13:00     -108.395     -171.043        6.610       96.739       89.638       60.478     9358.407     8035.056     3657.551        3.105        1.053      202.497       63.270        0.098      339.778       13.342      862.693
03/09/2014  23:14:00     -118.559     -141.255       -1.243       91.292       94.598       51.005     8334.190     8948.722     2601.545        2.694        0.994      184.416       52.968        0.082      339.746       13.288      862.669
03/09/2014  23:15:00     -131.511      -84.420       11.143      105.538       88.851       51.148    11138.174     7894.535     2616.136        2.309        1.082      156.275       49.057        0.099      339.721       13.248      862.642
03/09/2014  23:16:00     -106.624     -101.511       -3.020      114.970       96.414       57.530    13218.169     9295.706     3309.738        2.375        1.291      147.218       45.664        0.096      339.748       13.292      862.610
03/09/2014  23:17:00      -69.505     -129.182       -0.311       53.239       80.247       42.126     2834.379     6439.554     1774.592        1.628        0.552      146.694       32.143        0.048      339.773       13.337      862.590
03/09/2014  23:18:00      -59.842      -98.541       -6.501       63.648       43.257       24.539     4051.126     1871.206      602.153        0.993        0.326      115.288       14.701        0.016      339.750       13.297      862.593
03/09/2014  23:19:00     -120.839     -104.660       -4.097       71.454      104.658       30.998     5105.705    10953.286      960.885        2.129        0.851      159.861       25.963        0.026      339.819       13.412      862.584
03/09/2014  23:20:00      -86.619      -94.929        9.760       92.874       59.672       40.852     8625.608     3560.764     1668.864        1.523        0.693      128.508       25.463        0.039      339.798       13.377      862.601
03/09/2014  23:21:00      -14.689      -17.933       23.140       72.151       58.352       44.182     5205.824     3404.921     1952.043        0.582        0.528       23.181       38.980        2.828      339.802       13.383      862.588
03/09/2014  23:22:00     -116.233     -127.246        0.108       88.581       61.493       42.116     7846.506     3781.394     1773.725        2.155        0.670      172.342       29.990        0.030      339.770       13.329      862.576
03/09/2014  23:23:00      -10.111     -114.955        0.472      106.220       90.572       52.796    11282.622     8203.218     2787.434        1.779        1.114      115.399       52.879        0.210      339.958       13.648      862.571
03/09/2014  23:24:00      -93.536      -89.119       -4.910      127.341       86.423       51.243    16215.770     7468.928     2625.824        2.151        1.316      129.195       43.538        0.114      339.942       13.620      862.550
03/09/2014  23:25:00     -143.519     -207.400       -0.259       83.810       97.292       36.048     7024.129     9465.735     1299.426        4.070        0.889      252.215       45.077        0.032      339.948       13.628      862.560
03/09/2014  23:26:00     -118.363      -88.075        6.724      111.170       97.623       52.719    12358.861     9530.331     2779.299        2.324        1.233      147.537       58.268        0.156      339.878       13.512      862.531
03/09/2014  23:27:00     -193.366     -206.356       -2.373      116.207      156.277       60.708    13504.016    24422.363     3685.442        6.079        2.081      282.795       59.924        0.045      339.909       13.560      862.504
03/09/2014  23:28:00     -147.774     -199.270      -10.518      115.776      126.950       65.163    13404.014    16116.367     4246.245        4.770        1.688      248.084       49.487        0.040      339.898       13.541      862.580
03/09/2014  23:29:00     -137.270     -199.967        6.418      115.861      120.057       63.387    13423.678    14413.724     4017.900        4.536        1.593      242.548       53.084        0.048      339.896       13.540      862.593
03/09/2014  23:30:00     -121.134     -230.947        1.652       87.870      187.999       53.499     7721.077    35343.781     2862.177        5.696        2.296      260.787       60.991        0.055      339.882       13.517      862.586
03/09/2014  23:31:00     -155.991     -226.496      -11.892       95.698       78.397       48.593     9158.145     6146.073     2361.236        4.672        0.883      275.016       35.590        0.017      339.860       13.477      862.606
03/09/2014  23:32:00      -81.417     -203.339        5.876       83.095      125.630       58.802     6904.768    15782.940     3457.681        3.707        1.307      219.033       56.196        0.066      339.818       13.410      862.583
03/09/2014  23:33:00        5.690     -121.779        4.931       92.864      119.887       64.939     8623.688    14372.806     4217.119        2.104        1.361      121.912       45.800        0.141      339.892       13.536      862.595
03/09/2014  23:34:00      117.532     -110.716       18.708      104.907      136.155       79.035    11005.507    18538.086     6246.541        3.110        1.790      161.468       83.755        0.269      339.951       13.635      862.504
03/09/2014  23:35:00       35.325     -212.832      -29.235      157.794       99.583       70.503    24898.936     9916.781     4970.605        4.359        1.989      215.744       37.187        0.030      340.049       13.799      862.507
03/09/2014  23:36:00       45.577     -185.209       -4.790      172.864      118.283       65.380    29881.924    13990.911     4274.565        4.227        2.407      190.735       50.956        0.071      340.044       13.791      862.520
03/09/2014  23:37:00      -46.629     -262.751        4.721      120.768      127.480       73.084    14584.935    16251.116     5341.280        5.370        1.809      266.857       61.083        0.052      340.117       13.913      862.519
03/09/2014  23:38:00      -55.059     -253.700      -16.283      133.712       95.097       67.841    17878.990     9043.491     4602.395        4.959        1.576      259.606       37.651        0.021      340.098       13.881      862.505
03/09/2014  23:39:00      -71.082     -184.253      -14.984       87.872       85.635       55.334     7721.423     7333.369     3061.798        2.867        0.906      197.489       43.649        0.049      340.051       13.802      862.581
03/09/2014  23:40:00     -112.212     -159.760       15.652      123.551      100.400       64.705    15264.740    10080.209     4186.727        3.394        1.477      195.230       63.354        0.105      340.056       13.810      862.598
03/09/2014  23:41:00       12.943     -134.562       13.681      128.927      122.832       74.780    16622.204    15087.770     5592.049        2.787        1.865      135.183       50.215        0.138      340.030       13.767      862.565
03/09/2014  23:42:00      -88.053     -174.929      -20.821      150.163      115.653       75.149    22548.777    13375.657     5647.428        4.017        2.079      195.841       61.553        0.099      340.050       13.799      862.554
03/09/2014  23:43:00        1.305     -253.645      -11.781      120.990      107.854       59.272    14638.632    11632.550     3513.142        4.712        1.489      253.649       33.108        0.017      340.047       13.795      862.557
03/09/2014  23:44:00       -3.237     -160.128        7.705       95.139      145.576       53.477     9051.451    21192.506     2859.827        2.940        1.655      160.161       53.303        0.111      340.065       13.827      862.525
03/09/2014  23:45:00      106.579     -148.460       24.513      120.063      132.543       67.887    14415.076    17567.601     4608.663        3.529        1.830      182.755       64.642        0.125      340.000       13.717      862.497
03/09/2014  23:46:00        1.398     -110.313       -2.965      115.369      125.716       58.332    13309.996    15804.584     3402.631        2.234        1.626      110.322       66.955        0.368      339.933       13.605      862.473
03/09/2014  23:47:00      -88.768      -95.667       12.792       93.986       76.403       48.278     8833.281     5837.410     2330.808        1.710        0.850      130.506       47.116        0.130      339.881       13.517      862.519
03/09/2014  23:48:00       -7.227     -222.859      -22.453       96.579      137.554       70.756     9327.581    18921.077     5006.476        4.173        1.663      222.976       61.672        0.076      340.048       13.798      862.536
03/09/2014  23:49:00      -23.546     -130.126       -8.344       83.288       54.989       53.767     6936.950     3023.808     2890.857        1.520        0.643      132.239       31.960        0.058      340.040       13.786      862.517
03/09/2014  23:50:00       70.902      -95.794       21.442       88.756      131.822       83.434     7877.610    17377.163     6961.260        2.343        1.611      119.179       80.215        0.453      340.005       13.727      862.484
03/09/2014  23:51:00      -43.466     -168.422       -6.058      104.110      132.176       58.348    10838.983    17470.365     3404.536        3.100        1.586      173.940       67.570        0.151      340.015       13.742      862.470
03/09/2014  23:52:00       47.188     -262.521      -24.861      131.353      121.531       77.366    17253.573    14769.771     5985.480        5.488        1.900      266.729       64.592        0.059      340.101       13.885      862.464
03/09/2014  23:53:00      -25.612     -176.640       -8.629      113.072       85.565       44.830    12785.353     7321.431     2009.750        2.702        1.106      178.487       34.441        0.037      340.085       13.858      862.465
03/09/2014  23:54:00       11.295      -31.134       23.945       57.268       37.848       25.953     3279.611     1432.473      673.580        0.353        0.269       33.119       14.167        0.183      339.926       13.595      862.442
03/09/2014  23:55:00       65.145     -133.115        8.134      139.143      126.919       70.661    19360.868    16108.364     4992.975        3.124        2.023      148.201       74.805        0.255      340.030       13.767      862.393
03/09/2014  23:56:00     -169.585     -214.616      -22.142      111.990      127.976       69.725    12541.652    16377.891     4861.614        5.454        1.689      273.531       66.501        0.059      340.029       13.766      862.399
03/09/2014  23:57:00      -90.663     -176.929      -24.827      128.678       78.153       65.205    16557.909     6107.935     4251.734        3.352        1.346      198.805       49.391        0.062      340.041       13.786      862.422
03/09/2014  23:58:00      -30.498     -154.480        3.560      127.447       98.272       59.930    16242.793     9657.325     3591.619        2.714        1.475      157.462       47.940        0.093      340.032       13.770      862.423
03/09/2014  23:59:00     -108.131     -127.459       -5.977      148.542      101.329       56.580    22064.587    10267.523     3201.347        3.175        1.777      167.148       58.309        0.122      339.942       13.619      862.386
